GFSGL_850_spd_000.txt.gz
Wind_Speed
37 33 26 20 16 10 9 10 10 9 8 8 9 9 9 8 8 11 13 13 15 15 15 16 18 17 18 19 20 20 18 20 28 34 29 39 40 39 33 29 28 27 32
39 34 29 22 16 11 11 11 9 7 8 9 10 9 8 8 9 9 10 11 13 15 17 17 18 19 20 20 22 22 21 21 26 32 38 39 38 40 40 33 30 28 29
39 36 29 25 20 15 14 14 11 10 10 9 8 7 5 7 7 7 9 11 13 15 14 16 16 17 20 21 23 23 23 25 27 32 36 37 40 41 42 41 35 30 31
40 39 33 29 22 18 14 13 13 12 11 10 9 7 7 8 9 10 13 14 14 14 14 13 17 19 21 22 23 24 25 25 27 32 37 41 45 43 42 41 41 34 31
45 40 35 28 24 20 14 13 14 15 13 11 10 10 12 13 12 14 16 16 17 15 14 16 19 19 20 20 23 26 26 27 28 32 36 41 46 46 44 43 41 42 38
46 42 33 29 25 22 16 14 14 18 16 13 12 12 15 15 15 17 18 18 16 17 20 21 23 21 19 19 22 23 22 26 29 30 30 36 40 38 44 41 43 40 42
47 42 33 31 23 25 18 15 17 19 18 16 14 14 17 16 16 18 17 20 18 20 21 21 20 21 19 18 20 20 21 22 24 24 28 34 37 41 45 42 44 43 43
44 36 33 31 26 25 19 19 20 21 20 18 15 17 19 19 18 19 19 19 17 21 18 14 16 19 18 19 21 21 22 25 24 24 27 32 37 43 43 39 43 43 43
42 32 35 28 28 26 22 22 23 23 21 20 21 9 22 25 25 20 20 19 20 22 19 20 16 17 20 20 19 24 27 26 27 23 25 30 39 44 44 43 43 38 43
44 32 35 29 26 26 24 24 23 22 22 21 22 21 20 22 19 20 21 22 20 21 24 18 17 18 19 18 21 26 30 31 31 29 29 35 40 47 46 38 40 33 37
35 30 31 28 29 24 23 24 22 21 24 22 19 17 18 17 19 19 18 21 21 24 21 18 20 18 18 20 23 27 30 32 32 31 30 35 40 47 51 44 38 19 31
32 33 22 18 28 41 25 20 20 22 25 18 12 15 17 17 18 20 18 18 18 14 17 17 17 15 16 20 23 25 31 31 26 24 24 30 43 51 53 47 32 17 19
29 23 14 11 19 25 19 20 23 22 23 15 13 14 16 17 20 16 17 14 12 14 15 16 16 17 17 17 21 27 29 22 20 20 20 25 36 47 47 47 35 5 10
16 15 21 21 9 20 23 22 26 19 14 14 15 16 17 17 15 16 13 11 13 14 15 17 15 13 14 17 22 25 20 18 18 19 17 20 30 42 45 47 45 26 2
2 7 6 9 17 18 23 16 15 15 14 14 16 15 15 15 13 13 14 15 13 13 15 14 13 13 15 21 21 14 14 14 15 17 16 19 24 31 40 43 45 41 33
6 3 1 16 22 21 19 18 18 16 13 14 15 15 13 12 13 13 14 15 14 15 12 11 11 13 18 14 12 10 12 13 14 14 16 19 19 24 32 38 40 44 39
22 12 14 23 22 22 16 16 15 13 11 14 16 13 11 10 9 10 12 10 10 13 11 13 13 11 8 9 8 9 11 12 12 12 14 17 20 23 27 30 35 37 42
9 10 12 15 11 11 13 13 10 11 12 13 12 9 7 8 9 8 7 8 7 9 12 11 6 6 6 7 8 8 10 11 13 13 14 15 18 20 22 25 30 30 33
8 9 10 10 12 12 12 12 14 13 11 11 9 6 7 9 10 7 8 8 10 10 8 6 6 6 6 7 9 11 11 11 12 13 14 15 17 19 18 17 20 25 23
5 11 10 10 10 13 15 14 11 10 9 10 7 4 6 9 12 12 9 7 5 4 4 5 6 7 7 8 11 13 10 8 7 8 11 13 15 16 17 16 16 17 21
11 12 10 13 13 12 12 11 10 9 10 8 6 5 5 5 7 9 6 5 4 3 2 3 6 8 9 12 13 11 7 4 5 7 9 11 13 16 16 16 15 16 16
16 14 13 13 10 12 13 12 13 11 10 6 8 5 6 5 5 7 6 4 3 2 3 7 9 9 9 8 6 7 4 4 5 6 9 11 12 14 15 16 13 15 16
14 15 11 10 12 13 13 12 13 13 12 11 11 9 8 7 5 4 6 8 6 5 6 9 8 7 4 3 3 4 4 5 6 8 8 9 10 12 15 16 16 14 14
11 10 10 11 11 11 10 12 14 13 11 12 13 12 11 9 6 5 5 10 6 6 8 8 5 4 2 2 2 3 3 4 5 7 6 6 8 8 10 13 15 16 16
9 6 4 3 3 5 7 10 10 10 11 13 14 14 12 10 7 6 4 6 7 9 6 3 4 3 2 1 1 1 2 3 4 6 7 5 5 7 7 9 11 12 14
7 4 6 10 10 9 9 9 11 11 13 12 15 14 13 12 10 9 8 7 8 8 5 3 3 3 2 1 4 4 3 5 5 6 6 5 5 5 6 7 8 9 11

GFSGL_850_spd_003.txt.gz
Wind_Speed
42 39 34 31 27 18 16 14 12 11 13 13 12 11 10 9 10 11 13 13 15 16 16 17 18 19 20 21 22 22 22 24 29 32 31 29 31 33 36 35 37 37 32
44 41 38 33 29 21 18 15 13 13 12 11 10 10 10 9 9 10 11 9 11 12 14 16 18 19 22 22 22 22 22 23 27 32 34 34 35 35 39 40 43 40 37
47 43 41 35 31 26 22 16 15 14 12 11 10 9 8 8 7 8 10 11 13 14 16 17 18 17 19 21 23 25 25 25 26 30 35 34 35 35 39 43 43 46 43
50 47 44 41 36 30 23 17 16 16 14 14 12 10 9 8 9 11 14 14 14 16 16 17 18 19 21 23 24 26 25 26 27 30 33 37 36 35 39 42 50 49 53
54 50 46 44 38 32 26 17 18 19 18 18 15 13 11 10 11 13 15 16 17 15 16 16 20 21 22 23 24 25 24 27 29 29 32 35 38 36 39 40 50 46 51
57 53 48 41 38 34 27 19 19 20 22 22 20 15 12 12 11 15 17 18 19 18 17 18 21 24 23 21 23 25 24 26 27 29 31 33 36 36 37 39 45 47 49
53 54 46 43 43 35 28 25 19 20 23 25 22 17 14 11 12 18 21 21 20 20 19 21 22 16 18 21 23 24 25 24 25 28 32 34 34 32 36 42 47 45 52
50 50 47 32 40 30 29 25 21 22 25 24 24 20 17 17 18 20 21 22 21 21 22 23 24 23 23 21 24 26 24 24 26 28 32 36 33 32 38 44 50 54 51
46 47 40 38 32 32 31 22 20 24 25 25 22 21 19 18 20 22 23 21 20 21 24 25 23 24 22 24 25 24 24 26 28 30 31 32 32 33 35 46 47 52 47
43 41 34 35 29 32 26 19 22 24 25 27 21 21 24 23 22 22 23 24 23 23 24 26 24 22 23 24 21 22 25 29 31 36 35 28 22 26 39 43 52 48 47
36 35 24 24 29 35 34 33 27 25 30 28 17 21 23 24 23 18 20 22 21 21 24 22 16 17 18 18 18 21 26 30 35 36 30 25 23 30 40 45 53 48 43
29 31 29 30 27 25 27 28 25 16 41 16 16 24 23 21 20 18 19 21 18 20 18 17 15 16 19 19 20 24 26 32 32 28 27 25 24 30 43 49 52 47 36
25 28 29 24 14 13 10 12 18 42 25 19 18 23 17 17 18 19 19 17 18 17 17 16 18 19 20 19 18 24 27 29 25 25 25 24 26 29 38 46 50 43 28
20 25 27 23 14 12 13 21 12 13 14 18 19 17 17 16 17 16 15 17 17 17 18 20 20 20 20 17 20 25 26 20 20 21 22 22 25 27 34 44 49 42 36
11 9 5 6 2 8 15 24 19 12 16 16 15 17 16 14 14 13 14 16 19 19 20 23 21 19 17 17 22 21 17 15 15 17 20 22 25 27 30 40 41 44 34
21 23 9 13 24 26 25 22 15 20 18 16 13 12 12 12 12 13 15 15 17 18 19 19 16 14 17 21 19 16 13 13 15 18 19 22 24 26 26 32 34 37 43
19 19 16 17 19 20 24 18 19 20 14 11 12 14 14 14 12 11 12 14 15 15 15 14 14 16 16 15 14 13 15 15 16 17 19 21 23 23 23 26 33 32 40
13 11 13 16 18 22 22 18 19 10 8 11 13 12 11 11 11 10 10 10 9 9 12 14 15 14 12 11 12 13 14 15 15 17 19 20 21 21 21 23 23 28 30
8 10 10 10 10 11 14 11 8 11 11 13 14 10 7 9 10 10 11 14 14 13 14 12 10 10 10 11 12 14 17 15 14 15 16 17 19 20 19 20 19 20 23
12 9 8 7 6 7 9 9 12 14 11 11 10 7 5 5 9 12 12 11 10 9 9 8 9 10 11 11 14 16 15 11 9 10 12 14 16 18 18 17 19 19 19
11 8 7 7 6 8 11 11 9 9 9 10 10 8 4 5 7 9 9 9 7 7 7 5 6 9 10 11 12 12 9 6 7 8 10 12 15 17 17 15 15 16 17
10 7 10 12 12 11 10 9 9 10 12 13 12 10 7 5 4 8 9 9 7 5 5 5 8 9 10 8 6 5 3 4 5 5 8 10 14 16 18 17 14 14 16
8 10 10 11 9 9 10 10 10 11 13 12 11 10 9 6 7 9 9 9 9 7 6 7 9 8 5 3 2 3 3 3 4 6 7 9 12 14 16 17 17 16 14
9 9 9 8 8 9 11 10 10 12 12 9 11 10 11 9 10 9 8 8 9 9 8 9 6 4 2 2 1 1 2 3 5 7 7 8 9 11 12 14 15 15 15
6 7 4 2 2 3 6 8 9 10 9 7 8 9 12 13 13 9 7 5 6 7 8 5 4 4 2 2 3 3 4 3 4 6 8 7 8 9 10 11 13 13 14
7 5 4 5 6 6 7 8 7 8 8 8 9 11 14 15 14 12 9 8 7 6 7 6 3 1 2 2 3 5 6 5 4 4 6 6 5 5 6 8 10 11 12

GFSGL_850_spd_006.txt.gz
Wind_Speed
45 43 41 36 31 26 22 20 18 16 15 15 14 14 14 12 11 11 10 10 13 13 14 17 17 17 18 19 20 21 22 24 29 34 33 28 29 30 30 29 31 33 36
48 47 44 40 35 32 28 23 19 18 17 16 15 15 15 14 11 10 9 8 9 10 12 15 17 17 20 20 21 22 24 26 29 32 34 35 33 32 31 34 34 34 36
51 49 47 44 40 37 30 26 20 20 19 17 17 16 15 12 11 10 8 8 11 13 14 16 16 17 19 19 20 23 26 27 29 31 34 36 37 34 36 34 38 38 39
53 51 48 46 45 42 34 31 23 22 21 19 18 16 14 12 12 10 11 12 14 16 16 16 16 17 19 21 24 26 26 27 28 29 32 36 37 36 37 40 43 40 43
55 54 51 49 49 46 41 33 26 24 23 20 20 18 16 16 13 11 13 14 17 18 18 17 18 20 20 24 26 26 25 27 28 30 32 34 37 37 40 42 44 45 47
49 54 53 50 51 51 44 33 30 24 23 22 24 23 20 17 13 12 13 17 19 20 20 21 22 23 22 20 18 23 26 27 28 30 30 31 36 40 41 43 45 47 48
41 44 47 47 47 47 28 22 33 24 21 27 28 25 23 19 14 15 17 22 22 22 23 24 25 25 25 21 22 25 25 25 26 27 29 32 37 40 42 43 41 46 51
35 37 39 41 39 43 27 28 34 31 28 27 25 24 25 21 17 19 22 24 25 25 24 24 25 25 25 24 26 25 26 25 25 26 28 31 35 38 36 35 36 43 52
29 31 33 35 36 40 34 32 34 38 32 27 22 21 21 25 21 22 23 26 25 23 22 23 25 25 24 26 25 25 27 24 24 26 28 32 33 28 24 26 33 43 46
24 25 25 26 32 39 31 26 35 39 36 30 22 16 14 23 25 28 25 24 23 20 21 23 22 25 24 20 22 23 22 21 27 29 32 33 28 25 24 26 38 46 48
16 21 23 20 27 31 30 28 30 29 30 23 24 24 22 28 26 30 25 22 19 18 20 19 21 20 19 17 18 20 21 23 28 32 33 31 28 25 25 28 36 43 50
11 13 15 19 25 21 19 21 25 26 23 19 22 28 31 19 27 26 20 19 20 21 19 19 18 18 18 20 20 20 20 26 30 30 27 27 27 26 28 27 38 43 52
7 9 13 17 17 16 18 16 12 10 10 15 29 21 15 20 20 16 18 20 20 20 19 17 18 18 19 20 20 18 21 26 28 25 24 24 25 28 31 32 38 39 49
5 9 12 14 15 15 18 15 9 6 19 25 21 15 17 17 16 18 18 18 18 19 18 17 19 21 21 19 18 18 24 24 23 22 22 24 25 28 31 30 38 42 47
10 10 9 17 20 20 18 10 12 23 20 19 17 16 17 16 16 16 16 16 18 18 18 19 20 18 15 14 16 21 21 18 18 20 21 24 26 28 31 29 31 37 40
13 20 17 20 20 17 15 17 14 17 17 16 19 17 14 13 14 15 15 17 17 16 16 19 17 13 12 15 19 18 15 16 18 20 22 23 26 27 29 28 27 31 36
11 16 15 14 17 20 17 15 13 16 18 18 12 10 10 12 12 13 13 13 14 13 14 14 12 13 16 17 15 14 15 17 19 20 21 21 23 24 25 25 25 26 31
13 14 14 16 16 16 14 12 15 14 12 8 7 8 9 10 10 9 11 13 11 9 11 11 12 15 15 13 13 14 14 17 17 18 18 19 20 22 23 23 22 21 24
17 18 14 10 11 12 12 13 15 10 8 8 7 8 9 9 8 8 9 12 14 14 14 13 12 10 10 11 13 14 17 17 15 14 15 16 18 20 21 20 21 20 19
10 8 7 5 4 6 5 6 8 9 10 10 9 8 8 7 5 6 7 10 11 11 10 9 8 8 10 11 13 15 14 11 9 9 11 14 16 19 20 19 19 20 20
9 7 6 5 4 4 3 5 7 7 8 8 8 8 7 6 6 6 8 9 9 8 8 7 7 8 10 11 11 10 8 6 7 8 10 12 15 18 19 19 16 15 16
9 7 7 7 8 8 8 10 7 7 7 9 10 10 10 9 7 7 8 10 9 6 7 6 7 9 10 8 6 4 4 4 5 7 9 11 13 15 17 18 18 16 16
9 8 7 7 8 9 11 10 8 8 8 9 11 11 10 10 8 7 9 10 9 7 7 8 9 8 6 3 2 2 2 3 5 7 8 10 11 14 16 17 18 18 18
7 7 7 6 7 9 10 10 9 9 10 12 13 12 13 11 9 9 10 8 8 7 8 9 9 6 3 2 2 2 3 4 5 7 8 9 10 11 12 13 14 15 15
5 4 4 4 6 8 9 10 10 10 9 9 10 12 12 13 13 12 11 8 6 6 6 8 7 6 5 3 2 2 3 4 5 6 7 8 9 9 10 11 12 12 12
3 3 2 1 3 5 6 7 8 8 9 8 9 10 10 12 13 14 14 11 8 7 7 8 7 6 4 4 3 3 4 4 4 4 5 6 7 7 7 9 10 11 12

GFSGL_850_spd_009.txt.gz
Wind_Speed
43 43 42 40 35 31 29 25 21 21 19 18 16 15 15 13 13 13 13 12 13 12 12 10 12 13 13 15 16 18 20 20 20 26 22 23 28 27 28 27 27 28 28
45 46 46 45 40 37 36 31 23 21 24 21 18 17 17 16 14 14 12 13 12 11 9 10 12 14 15 17 18 18 19 20 22 23 28 25 24 29 30 31 29 29 31
46 48 50 48 47 44 41 38 32 23 25 23 20 19 18 17 15 15 13 13 11 11 12 14 15 16 17 16 19 20 19 22 22 24 26 25 24 23 25 27 27 29 30
47 50 53 52 50 49 48 40 33 27 23 24 22 20 18 17 16 15 15 14 13 14 15 16 18 18 17 18 19 23 23 23 21 22 23 25 25 24 23 25 28 27 29
46 50 54 51 49 48 47 44 36 28 20 23 24 23 20 20 17 16 16 14 15 16 16 17 20 20 19 21 22 23 21 21 19 22 24 24 25 25 26 26 29 31 32
39 42 44 46 45 45 47 48 44 39 41 31 33 28 26 23 18 16 17 18 17 19 20 20 22 23 24 24 25 24 25 26 28 27 23 25 26 26 27 28 30 34 38
28 30 32 35 38 39 42 44 46 38 24 28 34 31 33 29 21 18 19 19 21 22 23 26 25 26 26 26 25 25 26 29 27 26 26 26 26 30 32 34 35 35 37
17 20 23 27 32 33 35 41 47 40 28 34 32 34 34 31 24 18 19 22 25 27 25 26 27 24 24 24 26 25 27 27 25 26 24 28 30 32 35 34 35 36 38
11 14 16 19 23 28 31 38 40 33 27 33 34 34 31 28 23 22 24 22 27 28 28 26 22 21 21 23 24 23 22 23 23 24 25 29 30 30 27 28 30 30 36
4 7 8 11 17 22 28 29 37 32 32 35 31 22 21 21 23 28 24 31 31 25 26 24 21 21 20 21 19 19 20 21 24 25 28 31 28 25 24 22 24 29 35
11 11 11 13 13 13 23 27 36 22 23 20 20 26 15 15 27 21 30 32 24 20 23 20 22 21 20 19 18 19 22 22 23 26 28 22 21 22 20 21 27 26 36
13 16 13 15 15 14 17 24 29 23 24 28 22 16 15 19 23 28 18 19 19 16 20 22 21 20 19 19 20 21 22 20 23 25 19 19 20 22 25 28 29 28 34
12 16 15 17 14 15 16 18 19 22 22 18 18 19 23 19 18 17 19 14 14 16 20 21 21 20 20 21 22 21 19 19 23 19 17 18 22 26 29 31 31 29 33
12 15 15 17 16 14 13 15 19 20 19 20 16 14 19 14 17 19 14 14 13 15 19 21 21 22 22 21 19 16 17 21 20 18 19 21 24 25 26 29 30 30 34
11 15 16 13 11 13 16 21 22 20 18 18 19 17 16 12 14 12 13 12 14 19 20 20 21 20 15 13 14 15 18 17 15 17 18 20 22 24 24 26 26 27 32
16 17 14 9 12 14 18 19 17 15 16 18 17 16 11 10 11 12 13 16 19 19 18 17 13 12 11 10 11 13 13 14 16 19 18 19 19 21 23 23 22 25 28
8 7 6 10 12 12 15 16 11 10 12 15 9 10 11 10 10 12 14 15 15 14 14 11 9 10 10 12 13 11 11 14 17 18 18 17 18 19 20 19 22 24 24
5 8 10 7 4 8 14 14 9 7 7 6 10 10 9 9 9 10 10 11 11 11 11 10 9 12 13 11 9 10 12 14 15 15 14 14 15 17 18 18 19 24 26
10 14 6 11 7 8 10 11 12 10 11 11 11 9 9 9 8 8 8 7 7 9 11 12 12 11 10 9 10 11 13 14 13 11 10 12 14 15 17 18 18 19 20
10 12 11 6 5 4 3 4 7 10 12 12 12 12 10 9 6 5 5 6 8 9 10 8 8 8 9 9 10 11 11 9 7 7 8 10 13 14 16 17 18 18 18
7 6 6 5 4 4 5 6 7 10 10 10 11 12 11 8 7 6 6 6 7 7 8 7 7 7 8 10 10 8 6 4 5 5 7 10 12 13 15 16 17 16 17
9 9 6 6 5 5 6 7 8 10 9 10 11 11 11 11 8 7 6 7 7 8 9 8 7 8 9 9 7 4 2 2 3 6 8 9 10 12 13 15 16 16 16
12 10 9 8 7 7 8 9 9 9 8 9 9 11 12 11 9 8 7 7 6 8 9 8 8 9 8 6 4 3 2 2 3 5 7 8 9 11 12 14 15 16 16
9 7 7 7 7 8 9 8 8 9 7 8 9 10 11 10 10 11 10 8 7 8 9 9 9 9 7 5 5 4 4 4 4 5 6 7 8 10 10 11 12 15 15
6 6 5 4 5 8 10 8 9 9 8 8 8 9 11 12 12 14 13 11 9 8 9 9 9 8 7 7 6 6 5 5 5 4 5 6 7 8 9 9 10 11 13
4 3 2 3 4 5 6 6 8 8 8 8 8 8 9 10 11 13 15 14 13 11 10 10 10 9 7 7 6 5 5 5 5 4 3 4 5 5 6 8 10 9 11

GFSGL_850_spd_012.txt.gz
Wind_Speed
37 39 37 33 34 34 33 31 28 24 21 23 19 16 14 13 13 13 13 12 12 11 11 11 12 12 10 10 11 13 13 14 19 21 18 18 18 20 21 20 20 22 22
41 43 41 37 37 36 38 35 33 29 24 22 18 16 14 13 15 15 13 12 13 12 12 12 12 11 12 11 12 12 13 14 18 22 22 21 20 21 21 21 22 23 24
34 35 37 40 38 41 40 39 37 31 29 24 22 16 16 16 17 16 14 14 14 13 13 14 14 13 14 13 15 15 14 16 19 20 21 19 22 22 22 22 21 24 22
32 33 35 39 40 36 39 41 43 39 33 28 22 11 15 20 21 18 18 17 17 14 15 16 15 16 15 15 15 15 16 17 19 20 21 22 22 24 24 22 24 24 27
32 33 31 28 27 28 30 43 45 42 39 32 29 18 30 27 25 24 23 19 18 16 16 17 16 16 17 17 18 18 20 20 21 23 25 25 26 22 24 25 27 27 28
29 28 26 26 27 29 32 42 44 45 45 44 39 45 30 39 30 29 25 19 18 16 17 16 17 20 21 21 22 24 24 24 24 24 24 26 24 21 23 25 27 29 33
24 24 24 25 26 27 30 34 37 44 51 53 48 42 31 41 31 26 25 23 19 19 19 19 22 20 22 25 23 23 24 25 27 27 22 21 22 21 24 27 27 29 33
22 21 21 22 23 25 27 28 30 34 44 51 45 35 28 37 35 31 28 25 25 26 27 29 26 23 23 22 18 19 22 18 20 20 18 19 21 24 30 30 31 30 32
19 19 19 19 21 24 26 25 24 29 33 42 36 34 33 35 32 29 27 29 27 29 31 30 28 23 21 20 22 21 20 17 17 21 24 24 27 29 27 23 23 23 28
17 15 15 18 19 21 21 22 23 25 28 37 33 28 26 24 20 27 27 26 27 31 29 29 26 19 21 20 20 20 15 15 15 18 20 20 23 22 24 24 24 25 27
14 13 15 16 17 18 18 19 24 25 27 36 26 25 26 29 25 20 20 22 31 31 24 23 14 16 17 19 19 18 16 19 21 20 19 22 22 19 19 19 21 23 28
9 11 15 17 16 18 16 16 20 23 27 26 25 23 30 27 18 21 24 26 26 28 22 12 18 21 19 18 19 20 19 20 17 17 20 21 20 20 20 22 25 26 26
9 14 17 17 16 14 14 16 18 24 26 22 20 24 27 26 23 25 25 24 22 20 14 17 19 19 19 19 20 17 17 15 15 16 19 19 18 21 22 23 24 27 26
12 12 13 13 12 11 11 12 15 20 20 17 19 19 19 19 16 16 17 17 16 14 17 19 19 17 17 16 19 14 11 11 13 16 15 17 18 20 21 21 23 23 24
10 13 14 11 10 13 14 13 13 16 18 16 20 21 17 16 13 14 13 11 10 12 14 10 11 11 13 12 11 11 9 11 12 13 15 17 18 19 20 20 20 21 23
13 13 13 11 10 9 12 15 18 15 18 15 17 13 14 16 15 17 15 15 14 14 14 11 13 13 12 12 12 11 11 12 11 12 14 16 17 18 19 19 18 19 22
14 13 10 12 12 9 10 11 11 14 13 16 15 15 15 13 14 14 13 12 12 14 10 11 12 11 11 11 10 11 10 10 13 11 14 14 15 15 17 18 19 19 23
11 15 13 13 11 9 11 13 7 7 8 12 15 15 14 11 11 9 8 10 7 7 7 8 9 10 10 11 10 10 10 10 10 12 12 12 12 13 15 17 18 19 21
12 14 14 10 8 10 9 10 9 9 10 9 12 13 12 10 9 9 8 4 5 6 7 8 8 8 9 8 8 8 9 9 10 9 9 10 10 12 14 16 17 19 20
14 16 8 7 8 8 8 8 9 9 11 11 10 10 13 11 8 7 5 5 5 4 6 6 7 7 7 7 7 7 8 8 7 7 8 8 9 11 13 15 16 18 18
10 9 11 9 8 7 7 6 6 7 8 9 9 11 12 8 8 8 8 7 5 5 6 6 7 7 6 6 6 6 6 5 6 6 6 8 9 10 12 13 15 16 16
9 9 9 7 7 6 6 6 6 6 8 9 10 13 13 11 10 10 9 8 7 5 5 6 6 6 6 7 7 5 5 4 4 5 6 7 8 10 11 12 14 15 15
8 8 7 7 6 8 7 7 7 9 10 10 10 10 12 12 12 11 10 9 8 6 5 5 5 6 6 5 5 5 5 4 4 5 6 7 8 10 10 11 12 14 14
8 8 8 7 7 6 7 9 9 10 10 11 10 11 11 11 12 12 10 10 8 7 6 5 6 7 7 5 5 5 5 5 4 4 6 6 8 10 9 10 10 12 13
7 6 6 6 6 6 9 10 10 10 10 11 11 12 13 13 12 11 10 10 9 8 8 6 6 7 6 7 7 8 11 8 7 6 4 7 8 9 9 8 9 9 11
4 5 5 5 6 7 8 9 10 11 11 11 12 12 11 11 12 12 11 11 10 10 10 8 8 7 7 7 8 10 8 8 7 6 5 3 6 6 5 7 8 8 9

GFSGL_850_spd_015.txt.gz
Wind_Speed
37 35 35 34 32 33 35 33 32 26 25 23 24 17 15 14 12 10 10 12 11 12 11 11 10 9 7 8 9 10 10 12 16 16 16 18 20 20 20 19 19 22 22
37 39 39 38 35 34 36 33 32 31 29 27 25 22 18 15 11 4 11 12 13 15 13 12 11 10 12 11 10 13 15 15 15 20 20 20 20 21 21 22 21 20 22
37 37 39 39 41 42 37 35 34 35 33 30 28 26 24 19 9 20 17 21 17 18 15 15 14 13 15 14 15 15 15 15 15 18 22 23 24 23 24 26 24 23 25
35 36 38 42 44 40 37 36 36 37 38 38 35 32 29 26 18 21 26 24 21 20 19 17 16 16 17 18 16 16 17 17 17 19 22 23 23 27 19 24 28 26 25
38 37 39 39 38 37 36 37 37 40 42 43 41 38 36 35 31 25 31 24 23 21 20 19 18 18 17 20 18 18 19 19 21 22 24 24 25 23 22 23 23 26 26
37 40 37 37 38 37 36 36 38 40 38 43 46 44 43 38 33 26 26 23 23 22 21 20 20 21 23 24 22 20 23 25 27 24 23 24 28 26 22 23 23 24 28
39 34 37 34 37 37 36 37 40 41 40 41 43 45 45 39 33 24 22 26 23 20 20 22 19 18 20 24 25 23 23 23 23 24 26 26 24 22 22 26 24 28 30
37 38 33 36 33 35 35 34 38 39 37 36 36 45 47 42 36 28 25 28 25 21 27 23 22 26 25 25 26 22 24 19 22 24 24 23 22 22 26 29 32 30 27
34 35 36 34 34 32 29 29 35 35 33 33 35 38 45 35 34 30 27 28 23 25 26 24 26 26 26 30 26 21 25 24 19 21 24 25 28 27 22 20 19 21 25
29 27 27 28 28 27 26 29 30 27 27 28 32 28 31 31 35 34 25 28 28 24 25 24 26 26 32 26 22 24 22 19 16 17 20 22 25 23 22 24 26 23 25
24 22 23 23 24 22 23 25 24 23 24 24 23 22 21 23 24 25 23 26 26 25 28 27 26 27 21 20 21 22 21 20 21 23 21 22 24 21 20 19 16 21 26
24 21 20 20 18 20 21 24 20 19 17 19 20 21 22 23 23 20 19 22 24 24 23 28 26 24 19 21 21 22 22 21 21 18 18 21 20 20 19 20 25 26 25
24 23 19 23 23 21 20 19 16 16 17 17 17 20 20 19 19 20 22 23 22 24 23 23 22 19 19 20 20 20 18 19 16 16 18 18 19 19 22 21 22 23 25
19 24 22 19 19 16 15 16 15 15 15 21 18 14 12 15 16 20 22 20 21 21 24 23 19 20 20 17 17 15 13 8 13 16 16 15 17 18 19 19 21 22 23
17 17 18 17 15 16 16 14 11 12 13 16 14 10 10 13 14 12 11 15 16 16 14 11 13 11 12 16 17 13 9 14 13 14 14 16 17 18 18 18 19 20 22
16 15 14 16 15 14 13 14 14 10 13 14 14 14 14 11 10 13 11 18 17 14 12 13 15 16 15 15 15 13 13 11 14 13 14 15 17 17 17 18 17 19 20
14 17 15 14 14 12 12 11 12 10 11 13 11 12 17 15 14 16 17 18 18 14 14 13 15 15 13 13 13 13 14 13 15 16 13 15 15 15 16 16 17 17 19
16 17 16 15 13 13 13 12 9 7 9 14 17 17 17 16 14 14 13 12 10 11 10 11 12 10 12 13 12 12 12 12 12 13 14 13 13 13 14 15 16 17 20
14 13 15 14 12 12 12 11 8 7 8 9 9 15 15 15 13 12 12 10 8 9 9 9 9 10 11 11 10 10 10 10 11 13 10 10 11 11 13 14 15 17 19
13 16 13 11 11 11 10 9 8 8 10 10 6 8 15 14 13 12 11 8 8 8 7 7 8 9 9 9 9 9 9 9 9 9 9 9 9 10 12 14 15 17 17
11 14 10 11 10 10 9 9 9 9 9 10 11 19 10 7 10 12 9 8 8 7 8 7 7 7 8 8 8 8 8 8 8 8 8 8 9 10 12 12 14 15 16
12 10 11 12 12 9 9 8 8 7 6 8 8 13 11 7 10 9 10 9 9 9 7 7 6 7 7 8 9 9 7 7 7 7 7 7 8 9 11 12 13 14 15
11 10 12 10 9 11 9 8 8 7 8 5 5 8 10 9 11 12 12 11 10 9 8 7 7 6 8 8 7 7 6 7 6 6 6 7 8 10 10 11 12 13 14
7 8 6 8 8 8 7 7 6 9 7 5 8 8 10 8 10 12 12 11 10 9 9 9 8 7 8 9 7 6 7 9 6 3 7 5 7 10 9 10 12 11 13
7 9 8 9 6 7 9 10 10 9 10 8 8 10 11 11 10 11 9 11 12 10 10 10 8 9 9 8 7 11 16 16 13 10 6 5 6 9 9 8 11 10 11
5 5 4 5 7 9 10 11 11 10 12 10 13 13 14 13 12 13 16 13 12 11 11 10 10 10 10 9 9 16 14 11 10 9 7 2 5 6 7 7 9 9 9

GFSGL_850_spd_018.txt.gz
Wind_Speed
40 39 40 40 38 37 36 32 31 29 26 24 26 26 22 21 22 20 19 18 10 8 10 19 16 16 15 12 10 7 9 8 11 16 17 19 20 21 21 19 19 20 19
44 40 42 41 41 42 40 38 36 34 33 33 33 30 28 26 27 22 23 22 14 14 17 15 18 17 11 12 7 6 11 13 14 18 17 15 16 16 20 23 20 19 21
44 43 43 43 43 44 44 42 40 39 38 37 36 37 35 33 31 25 20 16 13 15 17 17 17 16 17 15 15 15 15 15 15 17 21 21 21 21 25 22 19 21 25
44 44 45 46 46 46 45 44 41 42 41 41 42 42 39 37 34 29 25 21 16 18 18 18 18 19 19 20 18 15 15 16 17 18 19 23 21 25 25 20 21 27 26
45 45 46 46 46 45 44 44 41 40 43 41 42 42 40 39 36 35 30 24 18 20 20 19 20 21 23 22 21 18 17 18 20 22 22 26 26 24 27 32 32 29 26
46 47 43 42 44 43 42 41 39 39 41 41 41 40 44 43 37 37 33 26 21 22 21 18 17 17 20 21 21 21 20 22 25 27 27 30 29 30 30 28 27 28 31
46 46 46 43 44 44 41 39 39 39 40 42 41 38 38 39 39 40 35 26 21 23 20 17 16 17 20 26 24 16 22 25 27 26 25 25 26 27 23 25 28 31 35
48 44 45 45 44 43 42 39 38 38 40 40 40 38 35 38 39 41 36 23 21 21 20 25 22 22 22 22 19 27 27 24 23 24 23 25 24 24 24 29 31 30 27
43 48 41 42 41 43 41 38 37 37 37 39 38 34 33 35 35 39 35 23 23 25 25 27 19 25 24 22 25 27 29 24 23 21 23 25 26 25 27 27 24 27 30
47 44 45 36 34 34 36 35 33 34 34 34 33 31 30 30 28 32 26 28 25 28 26 24 23 24 23 25 25 27 25 23 21 21 21 23 24 28 21 22 26 34 32
41 36 35 34 34 31 27 28 26 27 27 28 26 25 24 24 22 24 26 24 28 26 26 25 24 22 24 25 24 19 20 20 22 22 25 25 19 21 22 20 15 16 20
31 30 29 31 30 29 30 28 25 26 24 22 20 18 17 16 15 17 19 22 21 20 22 19 16 21 23 23 22 20 21 21 22 23 20 14 17 19 16 21 23 27 27
29 26 26 25 25 24 26 23 23 23 23 21 18 16 14 14 18 18 18 16 18 18 21 21 20 20 20 19 18 17 18 18 18 16 13 16 15 21 22 22 21 22 24
29 29 27 26 27 23 21 20 21 21 20 17 15 12 14 15 16 13 14 17 17 18 22 21 24 22 16 16 17 12 13 11 11 11 16 16 15 18 20 20 22 23 26
31 29 27 24 24 23 21 20 19 17 16 14 16 14 12 12 14 12 8 12 11 12 14 16 14 10 13 13 13 16 14 11 13 10 12 17 18 18 19 19 21 21 22
28 24 22 21 20 21 20 20 16 13 13 14 15 14 13 12 11 10 10 10 9 7 9 11 14 13 18 14 13 11 9 11 7 11 13 16 17 17 18 18 18 19 21
19 20 20 18 19 18 18 18 16 15 14 14 14 15 12 12 11 7 7 8 9 10 14 15 12 12 12 8 8 8 6 5 9 15 15 12 15 15 16 17 18 19 20
18 14 14 14 12 15 12 12 11 13 14 16 15 13 13 13 12 10 10 11 10 10 11 9 10 9 8 8 9 9 9 10 10 11 13 15 11 13 14 16 17 19 21
24 22 21 13 15 16 16 16 16 12 14 9 12 16 14 13 12 11 10 10 7 7 9 6 5 6 8 9 9 10 11 13 13 13 11 5 10 11 13 15 17 18 20
17 14 17 17 16 16 15 14 12 13 19 14 7 6 10 10 10 10 11 11 9 5 6 6 5 9 12 12 12 11 9 7 7 8 9 10 9 11 12 15 16 19 20
12 15 16 15 13 14 14 11 12 13 15 16 13 6 7 9 9 10 7 3 5 6 7 8 7 8 8 9 9 8 5 5 6 7 7 7 9 10 12 14 14 18 18
12 12 15 12 14 15 11 10 10 8 10 14 17 16 11 8 7 11 13 13 12 10 8 5 8 6 5 7 10 8 7 4 6 7 7 6 7 8 12 10 15 16 17
8 18 11 13 17 17 12 10 9 8 4 13 11 15 17 11 8 10 12 13 12 11 8 7 7 6 6 10 11 6 4 4 7 6 7 5 5 9 11 11 13 14 15
2 13 19 16 15 9 13 13 8 8 8 6 5 7 8 9 10 10 12 15 15 12 11 8 8 7 8 9 9 6 7 11 12 13 8 6 2 8 7 11 13 10 16
3 6 7 5 6 10 6 6 12 10 8 9 13 13 12 8 9 9 13 14 13 12 14 13 11 7 10 11 10 11 13 15 17 17 13 9 2 4 11 7 11 9 13
7 5 4 4 7 9 5 11 7 10 12 11 12 12 12 9 12 13 13 14 13 13 10 12 11 11 11 9 11 12 13 15 13 11 9 6 2 5 10 4 8 10 10

GFSGL_850_spd_021.txt.gz
Wind_Speed
43 39 36 35 40 38 39 39 39 30 28 30 26 27 26 25 23 23 21 20 19 17 16 16 14 15 16 17 17 14 12 12 10 11 13 14 14 13 15 18 21 22 20
44 41 38 37 38 40 42 42 41 39 34 32 33 31 29 28 25 25 23 24 21 18 18 20 21 19 15 15 18 18 14 13 15 17 18 17 15 16 19 19 21 19 23
45 43 41 39 39 42 42 44 44 42 40 38 37 38 36 32 30 28 25 25 24 19 18 20 21 24 22 19 18 17 17 16 15 17 19 18 17 16 18 20 24 24 19
47 45 44 44 42 42 43 44 46 45 41 42 42 40 39 37 35 31 27 27 29 26 25 24 24 22 20 19 17 19 16 19 17 19 19 18 19 18 23 22 23 24 29
46 46 46 45 44 42 44 45 45 48 47 43 42 42 42 39 38 35 35 32 33 26 22 23 25 22 19 18 18 21 20 19 18 19 23 26 26 27 26 27 29 31 29
46 46 45 45 45 45 45 46 45 43 44 45 44 43 42 42 40 36 37 34 33 29 22 21 25 25 22 23 21 24 21 19 15 22 26 29 28 26 25 26 29 27 28
48 46 45 45 44 44 45 45 44 42 40 40 40 40 41 39 37 36 37 35 33 33 23 22 23 23 26 25 22 26 23 17 20 19 26 23 24 21 20 24 23 25 29
51 49 46 45 44 42 42 43 42 40 38 38 37 38 37 36 32 32 33 34 32 34 25 21 22 24 24 21 23 23 18 24 20 24 23 24 22 22 22 25 26 27 29
55 52 51 47 44 46 45 42 40 38 37 37 36 37 35 33 32 29 30 31 32 32 26 22 22 25 25 21 20 22 23 25 23 22 21 22 23 23 23 24 26 29 32
58 56 54 50 47 48 47 43 40 38 36 35 35 34 30 27 27 27 22 26 29 31 27 27 24 26 26 20 21 21 22 24 22 18 20 22 22 22 23 20 21 28 28
59 54 52 48 47 47 44 40 41 36 34 33 30 29 26 24 22 23 23 20 19 24 27 27 25 24 22 20 19 20 23 23 18 18 22 24 22 18 14 18 16 17 21
49 43 46 40 41 40 38 38 33 31 31 28 25 22 22 18 17 18 17 14 15 19 20 18 17 18 19 16 17 17 19 17 18 19 18 19 13 13 15 17 21 23 19
39 39 33 34 34 34 34 29 30 28 27 23 22 20 17 15 16 16 14 15 14 17 17 17 16 15 15 16 18 16 14 14 13 14 13 11 13 15 19 19 22 21 22
35 36 35 37 33 29 28 28 26 25 21 21 20 18 16 16 16 15 13 14 15 18 18 17 17 17 18 17 11 10 10 11 14 14 13 9 12 17 20 21 19 23 22
37 35 32 32 32 31 27 24 22 20 16 17 16 14 16 19 16 11 11 11 13 13 15 19 19 16 9 7 9 10 12 13 14 12 10 13 17 21 20 18 17 18 18
33 26 28 29 29 27 25 22 19 15 15 14 14 16 14 12 10 9 10 8 11 11 13 11 8 7 10 11 13 15 15 13 12 9 13 15 17 16 16 15 15 17 18
23 26 28 27 25 22 18 17 18 19 17 18 16 16 12 11 9 12 11 9 10 12 11 9 8 8 10 12 6 7 8 9 8 14 13 13 16 17 15 14 16 16 18
21 24 22 22 19 19 18 18 16 18 20 18 16 15 13 12 14 15 10 11 10 8 6 6 7 6 6 5 5 7 7 6 9 11 12 15 18 9 10 13 13 17 18
23 22 22 19 19 19 19 20 21 19 14 14 15 16 15 15 15 13 11 8 8 9 3 6 8 12 11 9 11 13 14 16 17 18 11 4 5 8 11 12 14 15 17
17 16 18 19 19 21 20 18 20 18 16 16 11 15 15 16 14 13 11 10 11 8 4 13 12 12 12 13 14 16 16 16 13 6 6 6 7 8 11 11 14 14 18
15 6 18 23 24 21 18 19 19 17 16 14 11 11 11 14 14 12 9 9 8 12 7 9 10 11 14 14 10 9 7 6 4 7 8 9 11 9 9 12 12 13 18
7 12 15 20 19 17 14 16 14 15 20 23 19 15 15 17 14 12 9 10 11 12 12 13 13 12 13 8 10 9 9 11 8 11 13 13 12 5 9 11 8 14 16
14 12 18 15 9 16 18 16 15 14 17 18 18 16 18 17 14 11 11 9 11 16 14 13 13 12 10 10 13 14 9 9 8 11 13 14 9 7 6 6 10 14 12
5 10 13 16 12 20 19 15 10 11 12 14 13 15 18 18 17 15 13 13 14 13 14 14 15 14 12 14 16 15 10 13 12 14 14 10 7 7 4 6 9 11 12
8 14 17 17 18 15 9 7 6 9 12 10 11 15 18 20 18 14 17 14 11 13 14 15 14 14 13 10 9 11 13 13 15 16 16 13 7 6 5 8 8 6 11
6 6 7 8 7 6 7 6 11 11 14 17 20 17 17 16 10 13 17 12 14 14 13 14 12 13 14 10 10 12 7 9 11 13 11 8 9 9 5 8 5 5 8

GFSGL_850_spd_024.txt.gz
Wind_Speed
51 46 42 37 35 35 36 38 38 31 29 29 27 26 23 22 20 19 19 21 19 17 15 14 12 16 21 24 20 17 16 15 15 13 11 12 13 13 14 15 17 18 17
51 47 44 39 35 36 38 40 41 39 35 34 31 29 26 26 25 23 22 23 25 24 18 15 14 17 19 21 21 21 17 16 17 16 15 16 18 15 16 18 17 18 22
53 48 45 43 40 37 38 41 43 43 43 40 35 34 34 30 28 27 26 25 27 24 23 19 15 18 21 19 17 19 19 18 14 16 18 19 20 19 20 22 18 20 21
54 50 47 45 42 39 38 42 43 45 44 45 44 41 36 33 33 32 30 29 28 26 26 21 20 22 21 21 21 21 18 18 16 19 16 21 20 21 24 26 27 25 28
57 52 50 46 42 41 40 42 44 45 47 45 43 43 40 38 37 36 34 32 31 28 27 28 21 20 21 19 18 20 23 21 24 25 22 22 23 24 25 23 22 22 23
58 55 49 47 47 46 44 43 43 45 45 46 48 45 44 41 38 38 35 36 35 31 28 30 26 21 21 21 21 25 25 24 25 25 22 25 26 20 21 19 21 22 22
57 56 52 49 48 48 46 45 45 44 44 44 46 45 43 41 39 37 35 36 37 29 27 30 27 23 21 23 25 26 28 24 25 21 20 22 26 22 21 21 23 23 24
56 56 53 51 49 47 47 46 45 43 42 41 39 39 40 40 36 32 34 35 32 30 24 26 30 24 23 22 24 28 27 25 22 17 22 22 24 21 21 21 22 24 25
56 55 55 52 49 49 47 46 43 40 39 38 34 33 33 31 27 25 27 31 30 26 24 23 27 25 21 21 23 24 22 22 21 21 22 23 20 20 21 22 21 24 24
56 55 55 56 52 47 46 44 40 36 34 33 31 30 29 26 22 24 26 29 27 19 22 24 25 25 21 18 24 22 23 23 22 22 21 18 19 20 21 23 21 20 22
50 55 58 58 55 48 44 42 40 37 36 32 30 30 27 25 24 24 25 26 20 18 20 22 25 24 23 23 23 25 23 20 21 21 17 18 17 19 19 15 15 15 19
54 53 54 57 57 50 47 44 42 40 36 35 30 24 26 26 23 21 19 18 16 15 14 14 20 23 23 21 20 22 19 20 19 15 15 12 14 14 12 14 18 21 23
53 50 52 48 50 50 48 48 44 40 39 35 29 26 28 26 20 19 18 16 15 14 14 15 14 12 12 14 15 16 18 18 15 13 13 15 13 12 13 15 19 22 23
50 47 48 47 46 47 47 46 43 42 38 31 26 36 28 24 21 19 19 19 17 15 15 15 14 14 14 14 15 17 13 13 12 12 12 15 15 14 15 18 22 23 19
47 44 43 44 44 45 44 42 42 38 31 31 28 23 21 20 18 14 18 17 16 14 15 18 16 14 15 14 10 9 10 13 14 14 12 15 15 16 17 19 19 15 17
45 47 45 43 41 42 42 36 30 18 15 15 15 17 16 13 16 14 14 14 14 15 16 16 14 13 12 11 11 10 12 13 12 14 16 16 15 14 16 18 15 15 16
42 42 41 40 32 24 17 23 12 22 18 17 20 21 16 16 14 16 15 14 13 13 14 13 12 12 10 11 11 11 11 12 14 15 19 19 18 18 18 17 13 16 16
17 22 19 18 19 19 23 27 23 20 26 24 22 21 20 17 14 14 16 12 11 13 12 12 11 12 12 11 11 10 9 10 11 14 17 17 19 19 13 11 15 14 16
13 14 21 25 27 26 20 20 21 23 22 25 26 24 22 18 17 17 16 10 13 13 13 13 12 13 14 13 10 9 8 9 10 11 13 11 9 9 10 12 12 12 15
22 19 20 21 21 21 23 24 20 20 20 17 19 19 18 15 17 19 16 14 15 14 15 12 14 14 13 10 8 10 13 11 11 10 9 10 10 11 12 12 10 14 13
22 20 18 20 21 19 20 22 21 20 18 16 15 14 12 12 15 15 15 14 14 16 15 13 16 13 11 11 13 14 10 7 7 9 9 10 10 14 14 12 11 11 13
9 13 18 19 17 15 15 19 15 17 19 17 15 15 15 17 17 16 14 13 16 17 16 14 10 10 11 14 15 13 11 11 11 12 11 12 14 15 15 13 10 10 11
10 13 15 18 17 16 19 20 18 21 20 19 19 20 22 21 19 17 15 13 18 18 17 16 10 10 11 11 12 13 12 13 13 11 10 12 14 16 13 11 8 9 11
9 10 16 18 11 15 19 18 13 15 19 18 19 17 18 17 16 16 16 16 18 20 20 18 13 13 13 12 9 9 12 13 11 14 13 14 12 11 11 10 9 9 8
11 5 9 11 13 15 12 11 10 12 17 17 16 14 13 16 19 19 16 16 22 23 17 17 15 14 14 7 4 6 9 9 11 13 14 15 14 12 13 10 8 6 7
9 10 10 9 12 10 11 12 14 18 14 15 17 13 14 21 20 18 16 16 19 22 17 17 14 13 6 6 6 6 6 7 8 11 13 14 12 13 13 10 7 7 7

GFSGL_850_spd_027.txt.gz
Wind_Speed
60 54 51 48 44 40 33 32 35 34 33 30 28 25 22 22 21 21 18 18 20 18 18 16 14 15 16 19 18 15 14 14 15 13 13 8 10 12 12 12 11 14 15
60 57 51 49 47 44 38 34 37 37 35 31 30 29 26 25 24 23 21 21 21 21 20 20 15 15 14 15 17 18 17 16 14 11 11 12 12 12 14 16 18 19 20
58 58 55 51 49 48 42 38 38 39 38 37 33 34 31 28 28 27 26 24 22 21 21 22 19 16 15 16 18 19 19 18 17 15 14 14 15 13 15 16 18 21 23
57 56 58 52 48 49 44 40 39 41 41 41 40 37 35 32 31 30 29 27 26 25 22 22 25 22 18 17 17 18 19 19 18 18 18 19 21 20 17 23 24 21 23
56 56 57 52 48 48 47 46 41 41 43 43 43 42 40 37 36 34 32 30 29 28 27 24 25 26 22 19 20 19 18 20 22 23 23 25 23 24 20 19 20 19 20
53 56 56 52 50 51 49 49 46 44 43 43 45 46 44 44 42 39 36 33 31 30 31 30 23 26 26 22 21 21 20 21 22 22 23 23 26 22 21 19 19 21 24
53 54 55 53 52 52 52 50 50 48 45 45 47 47 48 46 42 39 37 35 33 32 34 27 24 25 27 27 23 22 22 22 23 23 20 20 17 19 18 21 21 20 23
52 53 55 53 52 53 53 53 52 50 49 47 46 47 45 44 40 39 35 34 33 34 31 26 23 22 25 28 25 22 20 22 22 21 19 18 19 19 21 19 20 22 23
52 54 56 53 53 54 54 54 54 53 51 49 48 42 40 37 33 33 31 33 32 30 26 23 22 22 24 28 25 21 20 19 17 17 18 19 20 20 17 18 20 20 23
54 52 52 54 55 55 53 53 54 54 52 49 47 39 34 32 27 22 22 28 28 29 24 19 19 21 21 25 23 19 20 17 16 18 18 18 17 13 16 19 20 19 16
53 51 54 55 55 55 55 53 53 52 50 46 41 33 29 26 23 21 24 25 27 24 24 18 19 20 21 22 22 20 16 16 16 18 18 17 12 10 13 15 12 12 15
55 53 52 53 53 55 55 55 51 49 46 42 37 33 29 27 24 22 23 20 18 23 19 17 17 19 21 20 19 20 19 16 17 18 16 12 10 12 13 12 12 13 17
52 53 52 53 53 53 53 53 53 48 42 38 38 35 32 28 25 23 19 19 16 17 18 17 15 16 20 22 21 18 17 16 16 17 13 10 10 14 16 15 15 17 20
50 54 53 54 55 51 48 46 48 47 43 42 38 35 32 30 29 29 26 22 19 19 19 18 18 18 19 17 13 12 14 16 15 14 12 12 13 14 15 16 17 19 22
42 48 51 53 47 43 46 46 45 44 43 42 40 37 37 31 22 21 16 21 23 20 20 20 19 20 17 13 12 12 12 10 12 12 13 14 14 15 15 16 16 18 19
23 36 38 39 42 44 42 40 38 34 38 34 21 17 13 10 15 19 19 21 23 23 24 23 21 19 15 13 13 13 10 9 10 13 16 15 16 17 16 13 16 17 16
11 10 31 39 42 40 36 31 29 31 20 9 10 8 6 15 33 27 26 25 25 25 24 24 20 16 13 13 13 12 10 9 9 12 15 16 16 17 17 17 18 14 17
27 32 19 20 39 42 40 35 30 10 4 13 13 15 24 28 29 27 25 25 26 23 20 19 17 16 16 15 13 9 8 8 9 11 14 15 15 16 19 15 12 15 15
19 30 33 21 19 40 26 16 23 24 29 37 39 31 29 29 26 25 26 23 22 21 20 17 17 17 17 14 9 7 8 8 10 12 12 13 16 14 11 11 13 13 14
16 12 30 24 36 13 14 25 31 34 34 35 33 35 33 31 31 30 26 21 18 16 16 15 18 17 13 10 9 9 7 10 12 12 12 14 13 10 10 11 14 13 14
15 16 16 24 23 23 27 29 29 32 32 33 34 33 30 29 29 27 25 19 17 15 13 17 17 14 11 10 7 5 7 8 7 7 9 10 10 9 10 13 14 14 15
17 19 22 23 22 20 21 22 25 27 29 30 29 28 26 24 23 22 19 16 13 13 14 13 10 8 7 5 2 7 9 8 9 8 10 9 10 9 10 14 13 13 12
13 15 17 18 20 22 23 23 24 26 25 25 25 26 24 21 19 19 19 19 16 13 11 11 10 10 6 2 5 10 7 7 7 9 8 10 11 11 13 15 12 12 12
9 8 6 9 12 13 13 14 18 21 22 24 24 22 21 21 21 21 20 19 15 13 13 15 13 7 5 6 7 8 6 6 7 5 5 9 12 13 13 12 12 13 12
4 9 6 4 3 5 10 14 14 15 15 14 16 18 19 22 21 19 19 18 14 14 16 12 13 10 9 9 6 1 4 4 2 3 5 8 12 14 14 14 13 12 10
1 2 5 4 4 4 6 11 11 9 8 8 11 17 18 17 16 17 15 14 14 15 16 13 13 12 8 8 4 3 2 4 5 4 5 8 11 13 13 13 12 11 9

GFSGL_850_spd_030.txt.gz
Wind_Speed
56 54 53 51 47 44 42 37 33 29 31 31 33 29 26 25 24 24 22 19 18 18 16 16 15 15 17 16 17 15 13 12 12 12 11 9 9 7 8 9 10 11 14
55 54 55 53 50 48 45 39 36 33 32 31 34 33 30 28 25 25 23 22 20 19 19 18 19 17 16 16 16 15 14 13 13 13 13 11 11 12 12 10 11 13 14
54 54 54 55 53 50 47 43 39 36 34 36 35 37 34 32 28 25 24 23 22 20 19 20 19 22 20 18 16 16 14 15 16 16 15 15 15 13 13 14 14 16 18
53 53 54 54 53 51 47 44 42 39 37 38 40 40 37 35 31 28 28 27 25 24 22 20 20 23 25 20 17 16 16 17 18 18 18 17 17 16 16 19 23 20 19
50 52 54 54 50 48 49 45 41 41 41 39 42 42 42 38 36 34 31 29 27 25 25 24 23 23 23 24 21 19 18 18 19 19 20 20 21 22 21 21 21 20 22
46 49 51 53 50 48 50 49 44 43 45 43 43 46 45 43 40 37 33 31 29 27 27 26 28 26 22 23 25 22 20 20 20 19 19 20 19 20 20 15 16 19 21
47 46 48 51 50 48 47 50 49 46 46 48 45 45 49 46 43 40 36 34 33 32 28 27 29 28 21 22 23 26 23 20 22 20 20 18 18 14 14 15 17 18 18
49 49 48 48 47 47 48 50 51 49 48 48 49 47 47 48 46 43 37 36 36 33 31 29 28 25 21 22 24 26 25 21 20 19 18 15 17 17 18 19 18 17 18
48 50 48 46 46 47 48 50 53 53 51 50 50 49 48 45 44 41 39 41 39 36 31 28 24 21 20 22 24 26 24 21 18 17 14 15 18 18 18 17 15 17 19
47 46 46 46 47 47 46 49 51 53 53 52 51 51 49 46 43 37 40 42 41 36 29 27 24 21 20 22 24 26 25 21 17 16 16 16 17 16 15 13 13 15 14
43 43 45 45 46 44 47 47 48 52 52 52 51 52 49 45 42 37 37 38 36 31 29 28 29 21 18 20 22 23 21 17 15 17 16 16 15 14 12 11 12 11 10
36 37 42 43 45 48 46 45 45 44 46 47 44 46 48 44 40 38 38 38 34 32 31 26 22 21 19 20 21 20 20 20 16 17 18 16 14 12 10 12 13 12 12
28 32 35 39 43 44 45 46 41 39 41 46 47 45 43 41 39 37 34 33 33 32 27 27 27 24 22 23 22 20 20 20 19 18 16 15 13 11 12 12 13 13 14
24 25 28 34 37 38 40 42 44 47 50 52 52 51 44 42 41 40 39 38 30 26 26 25 26 22 18 17 19 20 19 19 19 16 16 15 16 14 13 13 13 14 16
9 17 20 23 31 34 36 40 44 44 41 37 35 34 38 41 38 36 38 36 26 16 20 27 28 21 17 18 18 17 17 18 19 16 16 16 15 16 17 15 14 15 15
15 16 15 17 23 30 34 38 39 38 36 34 35 39 36 22 19 12 8 8 9 25 27 31 26 18 20 21 19 16 17 16 15 14 16 16 16 17 18 15 15 15 13
18 19 16 16 20 24 33 35 29 28 36 38 34 29 26 9 6 18 32 16 29 32 33 26 19 19 22 21 18 18 18 15 14 13 13 13 15 17 17 15 14 14 9
10 12 18 15 17 24 33 36 33 34 39 33 21 23 27 11 12 13 19 28 34 31 26 24 19 18 22 20 18 18 17 15 14 12 12 13 15 17 15 13 12 9 9
9 9 4 7 14 26 36 37 38 35 32 28 23 16 13 25 28 24 19 32 37 32 26 23 21 22 21 20 19 17 15 15 13 12 13 15 17 16 13 12 10 7 6
8 6 6 14 14 17 14 13 26 15 12 10 13 23 25 26 26 26 32 34 26 23 22 22 22 20 20 20 18 17 17 14 12 14 15 15 15 13 12 12 8 6 4
9 8 4 6 12 6 7 11 11 7 10 8 14 31 28 27 30 32 30 27 24 20 19 18 18 19 19 18 18 17 13 10 11 14 15 14 14 13 14 11 6 5 4
13 7 8 11 13 14 14 10 9 18 14 16 34 35 28 29 26 23 24 23 21 20 18 16 18 18 17 18 17 11 7 9 11 13 14 13 13 15 15 11 7 4 4
14 14 11 11 4 7 12 13 13 14 24 24 24 24 24 23 21 23 25 22 20 18 16 18 17 18 18 16 10 5 5 8 11 11 11 12 14 17 14 10 8 5 4
5 6 10 12 11 11 11 11 12 15 18 20 22 25 24 23 25 25 24 23 22 17 16 19 20 19 17 12 5 5 6 9 11 11 12 13 14 15 12 9 6 5 3
9 14 10 9 7 6 8 11 12 9 12 16 18 17 20 24 25 27 27 25 23 20 20 20 21 19 12 11 11 6 5 5 7 9 10 11 13 14 11 9 7 6 4
7 4 4 2 6 4 2 9 12 13 15 16 19 22 19 22 24 23 25 27 24 22 21 21 19 19 15 14 9 8 7 4 4 4 5 8 11 13 12 10 9 6 4

GFSGL_850_spd_033.txt.gz
Wind_Speed
47 47 45 47 47 46 45 40 35 33 31 31 31 29 29 27 26 24 22 20 21 20 19 19 18 17 17 17 15 15 14 13 12 10 10 10 11 11 11 12 13 13 14
52 50 48 46 47 47 46 42 38 35 33 31 32 33 33 31 30 27 26 25 25 23 22 21 20 21 20 18 18 17 18 18 14 12 11 12 12 14 14 14 14 13 14
53 55 54 53 51 50 47 45 41 38 36 35 33 36 35 36 34 31 29 27 27 26 23 22 22 23 23 23 20 18 17 17 16 13 11 13 15 15 15 15 17 18 19
47 50 53 54 54 52 49 46 44 41 39 37 37 35 36 38 38 35 33 31 30 29 27 24 24 24 24 25 24 21 19 19 19 17 14 12 14 14 16 18 18 22 16
46 47 47 48 50 50 49 46 44 44 42 40 40 38 38 39 41 40 38 36 34 32 30 29 28 26 25 25 26 26 23 21 19 18 15 14 14 14 15 13 15 16 20
48 46 45 45 47 48 47 46 44 45 44 44 44 42 41 43 44 43 41 41 38 35 34 32 31 29 28 28 26 27 27 25 24 19 17 16 16 16 13 11 14 16 13
47 46 46 45 46 44 45 44 45 45 45 47 46 46 46 45 47 46 45 43 42 40 38 35 34 32 30 31 27 27 28 28 25 21 21 19 17 15 14 14 14 14 16
45 45 45 46 46 45 44 44 46 46 47 49 49 48 48 47 48 48 46 44 46 44 41 38 36 33 30 31 28 29 30 30 28 22 21 19 17 17 15 16 18 19 16
42 44 45 45 46 47 46 45 47 47 48 50 50 49 49 49 49 47 45 46 49 48 44 42 39 36 32 30 30 31 31 29 26 21 19 19 18 16 16 16 16 11 11
39 41 42 44 45 46 45 47 46 47 47 48 50 51 51 49 49 48 44 43 48 50 49 45 42 39 33 30 30 31 32 30 26 22 21 19 18 16 16 16 13 10 11
30 32 36 39 39 40 41 42 41 42 41 48 51 51 51 51 50 49 47 45 48 51 52 48 46 40 37 31 30 32 33 29 25 21 21 20 18 16 16 14 13 12 10
25 27 29 31 33 33 36 37 36 37 40 45 46 49 48 53 50 49 48 44 47 48 50 48 44 35 36 30 29 29 27 25 24 23 20 19 18 16 16 13 13 12 13
14 17 21 23 25 28 30 32 35 40 44 44 40 45 46 48 45 47 50 46 43 47 41 40 37 34 34 29 26 24 24 26 26 23 19 17 16 15 16 13 13 11 12
11 12 14 17 21 25 26 27 26 27 45 46 40 42 44 43 43 47 36 31 28 32 37 36 37 29 26 19 28 26 27 29 28 24 18 16 16 17 16 14 13 12 11
4 4 8 13 17 22 26 28 35 44 50 45 45 43 43 42 43 35 30 30 36 38 25 9 30 26 25 30 28 26 29 30 27 23 21 18 18 18 15 15 14 12 11
3 5 7 9 13 18 25 28 33 37 40 41 38 39 45 45 45 34 29 34 35 33 14 8 30 25 25 28 29 29 32 27 25 23 19 18 19 17 15 16 14 12 9
2 4 7 9 15 20 24 28 33 36 39 37 36 39 41 41 39 34 32 34 21 14 4 10 26 29 28 28 28 29 26 26 24 20 18 18 18 15 15 13 13 11 9
5 6 7 7 9 13 18 24 29 32 33 38 48 41 41 40 37 33 24 15 19 16 27 28 37 34 33 30 30 27 25 23 22 20 18 18 15 15 14 11 10 8 8
5 4 3 4 4 5 9 16 19 24 27 34 36 38 39 31 26 25 26 27 31 33 33 35 31 35 27 29 28 27 24 24 22 19 19 16 14 14 12 10 8 10 8
8 9 5 2 2 1 4 10 12 12 13 14 14 5 31 26 29 30 30 26 29 30 29 31 32 30 25 30 30 26 25 22 20 20 18 15 16 14 10 10 9 7 6
4 7 7 4 5 4 7 7 13 11 9 10 12 7 23 18 28 27 32 31 26 23 32 35 35 31 29 29 26 24 21 21 20 17 15 18 17 12 12 10 9 6 6
6 4 4 4 4 5 6 4 3 5 5 15 23 28 24 26 24 26 27 22 18 24 28 27 27 25 25 25 23 22 21 19 17 16 17 16 15 13 11 12 9 7 7
13 11 12 7 2 3 3 2 2 4 7 9 8 18 26 27 28 26 20 22 24 24 24 23 20 21 21 20 21 20 16 13 14 17 16 15 14 12 13 13 10 8 9
6 9 15 15 13 11 10 7 6 7 7 9 17 21 21 20 20 20 23 23 22 20 18 17 18 20 22 25 21 14 10 10 11 14 15 14 12 15 14 12 10 9 11
11 15 14 9 8 7 8 10 10 10 10 9 10 11 13 15 16 20 21 19 20 18 17 18 20 22 22 21 16 11 8 7 10 12 14 14 15 17 14 11 10 10 13
10 11 9 8 10 10 8 5 2 1 1 1 4 4 6 9 15 18 18 18 19 18 18 20 23 24 23 19 16 13 5 5 6 9 11 13 16 16 13 12 11 12 14

GFSGL_850_spd_036.txt.gz
Wind_Speed
47 48 48 46 45 44 45 44 42 37 35 31 30 25 25 25 26 27 24 21 23 23 23 23 23 21 16 14 14 12 12 12 12 9 9 11 11 10 9 9 10 11 11
47 45 46 47 46 44 45 43 42 40 38 35 33 31 30 28 27 30 29 25 28 27 27 27 25 22 24 22 16 17 14 14 13 12 11 10 10 12 12 15 10 10 12
43 46 46 46 47 49 47 46 44 41 40 38 36 36 34 33 33 33 33 32 31 30 29 29 27 26 25 21 22 18 15 15 14 13 11 10 11 11 11 11 12 11 13
38 40 47 52 51 48 47 47 46 45 43 41 41 39 37 35 36 37 37 36 35 34 33 32 30 29 27 25 25 24 19 16 14 14 14 15 13 12 12 13 15 14 15
41 39 45 48 52 53 53 52 49 47 45 44 43 42 40 38 37 42 43 41 40 38 36 36 34 32 29 27 26 25 22 20 17 17 17 16 16 15 16 13 14 14 14
41 46 44 44 44 48 52 54 52 50 47 46 47 47 45 43 40 42 44 46 45 42 40 38 35 34 33 31 28 26 26 26 26 21 19 19 18 17 16 15 14 14 14
41 44 45 45 44 44 46 48 49 51 48 48 49 50 50 48 47 44 45 47 46 45 45 42 34 31 35 34 32 30 30 30 27 23 24 21 18 18 17 15 15 14 13
36 41 41 45 45 42 42 43 44 47 49 49 49 52 51 51 50 48 44 44 47 43 42 44 42 36 36 35 34 34 34 34 30 32 26 22 21 18 18 15 14 15 14
36 39 41 41 38 35 42 44 38 35 39 43 40 47 53 53 51 49 47 46 47 51 50 48 46 44 41 39 34 31 32 34 31 30 30 26 24 22 19 13 14 11 12
34 35 35 37 37 39 39 37 35 32 34 33 37 44 51 54 53 51 49 49 49 48 49 51 51 50 45 43 38 37 32 32 28 24 28 30 28 25 24 20 15 13 13
24 26 30 32 34 35 35 36 35 36 33 36 37 38 45 53 56 56 53 53 54 52 49 46 47 48 49 47 40 37 34 30 30 27 23 27 26 25 24 22 20 15 14
22 23 27 28 26 25 32 33 34 33 35 40 40 42 47 52 56 59 58 58 55 55 53 51 49 45 43 42 39 36 33 33 33 27 24 22 23 20 18 16 18 17 12
21 22 23 23 23 25 27 27 28 31 32 34 37 35 39 37 47 55 58 59 57 57 50 44 40 43 40 31 35 35 36 26 25 27 26 24 22 18 17 18 18 17 17
19 20 21 21 21 21 22 24 26 29 31 33 34 35 26 40 45 40 47 52 54 47 45 42 42 36 29 28 35 35 30 33 33 28 28 23 20 18 18 15 15 14 12
15 15 16 16 20 20 23 24 27 30 31 32 35 37 35 39 41 39 47 49 42 41 49 43 40 28 24 26 27 24 25 30 33 35 28 22 21 19 16 17 17 13 14
9 9 10 11 13 15 17 21 30 30 30 37 37 35 30 34 34 36 39 39 33 40 45 41 28 27 27 27 25 34 27 31 33 32 26 24 20 19 18 19 17 15 16
9 9 6 10 9 12 14 18 20 21 31 37 36 38 40 39 36 36 37 37 34 38 49 47 38 38 35 25 39 38 38 38 35 29 25 21 21 19 21 19 15 16 16
6 5 3 8 9 9 12 15 17 18 22 23 27 39 43 32 42 40 43 41 45 49 52 51 48 44 35 29 37 43 36 31 28 25 22 22 22 21 20 18 17 16 14
8 5 3 3 1 2 2 5 10 14 19 23 25 24 28 34 37 43 40 33 49 58 51 40 34 32 29 33 35 27 32 29 26 23 23 23 21 20 19 15 16 17 17
12 12 11 10 8 7 6 5 5 6 6 6 6 4 2 5 20 27 41 7 13 22 19 19 20 22 25 30 32 27 28 26 24 24 22 21 22 19 16 16 16 17 15
12 14 12 8 7 7 5 3 2 7 2 9 1 3 2 3 15 19 21 14 21 18 17 18 23 26 30 32 27 28 26 25 24 23 23 23 20 17 17 16 16 17 14
12 13 10 8 6 4 4 4 4 2 3 4 7 10 5 7 11 10 17 23 21 18 19 23 28 30 27 26 27 25 23 23 23 23 22 20 18 16 16 17 18 17 14
15 16 11 7 4 5 4 2 3 7 4 5 7 7 12 10 11 13 12 19 21 25 22 26 23 19 20 23 22 21 22 22 22 21 19 17 16 16 18 19 19 17 15
15 13 12 13 14 10 8 8 9 8 9 9 7 6 4 5 9 9 11 14 15 15 16 17 19 21 21 20 20 19 18 18 17 17 17 17 17 19 19 19 19 17 15
12 13 12 11 11 9 8 8 9 10 11 10 7 5 4 6 10 9 8 13 14 16 18 17 17 18 20 21 20 19 20 18 13 15 16 18 18 20 20 19 18 16 15
14 14 13 15 15 10 11 10 9 8 9 10 9 8 7 7 8 10 9 9 11 11 13 12 15 19 22 20 20 19 14 9 9 14 15 15 17 18 18 18 17 15 14

GFSGL_850_spd_039.txt.gz
Wind_Speed
49 50 48 47 47 45 45 43 39 34 33 30 26 26 25 26 26 26 25 20 24 23 21 23 24 20 15 14 13 11 10 10 10 9 8 11 14 13 12 14 10 9 9
45 49 51 50 48 48 47 46 45 43 40 37 33 34 29 27 28 30 28 25 28 26 25 27 28 23 26 22 16 16 13 14 13 14 13 12 15 13 12 14 11 9 10
43 44 47 51 52 51 49 46 45 43 42 40 39 39 36 33 33 33 33 31 31 32 29 29 29 28 27 24 26 18 17 19 16 16 15 13 13 11 12 12 13 12 10
40 41 44 49 53 51 51 49 45 45 44 43 44 41 40 38 37 36 37 38 36 37 36 32 32 31 30 29 27 25 23 18 17 17 14 14 14 13 13 12 15 14 10
41 43 47 46 46 47 48 47 46 48 47 45 44 45 44 41 40 42 41 42 41 40 37 35 34 34 32 31 29 28 25 27 20 18 16 15 16 17 18 15 13 15 13
38 45 42 43 43 45 46 50 48 47 49 49 49 47 48 47 44 42 40 42 42 42 43 39 38 35 36 36 32 28 27 27 25 19 20 19 18 16 15 16 15 16 14
42 40 43 43 45 45 45 45 52 54 51 53 52 49 49 51 50 47 44 43 42 45 46 46 44 36 38 38 37 32 32 32 29 27 26 22 17 14 19 19 17 18 16
37 44 43 46 43 45 46 47 46 47 52 53 53 53 51 52 53 52 50 47 47 45 47 48 47 42 38 39 38 37 38 39 36 32 31 28 26 27 17 20 21 21 16
34 43 43 41 44 43 48 47 47 45 46 50 48 48 52 53 53 54 53 53 53 51 49 49 48 47 46 47 43 41 39 39 38 36 33 32 28 24 24 19 14 15 12
36 36 39 41 42 45 45 44 43 43 44 40 42 46 48 53 54 55 55 54 55 57 56 54 54 54 51 50 48 45 43 42 36 34 35 35 34 33 29 26 20 17 17
31 30 34 37 41 43 41 41 40 40 36 39 41 44 47 51 54 56 57 57 59 59 55 54 56 58 56 53 51 49 48 45 40 31 30 29 30 34 32 27 26 26 19
28 31 32 34 35 34 40 40 37 35 36 40 39 41 44 48 51 55 57 59 60 54 50 51 46 49 51 53 50 49 46 40 39 35 33 29 26 28 25 22 23 27 20
28 31 29 29 34 32 33 35 32 34 34 34 36 39 43 39 40 47 52 54 59 59 61 47 40 46 44 47 48 49 46 42 40 36 36 29 24 24 19 18 24 23 23
24 25 25 26 27 27 25 25 27 27 28 29 29 33 32 31 35 33 37 46 49 50 52 53 51 43 41 46 45 44 43 43 40 40 38 24 27 29 25 29 30 26 22
17 18 18 19 21 21 23 21 22 23 23 24 24 25 26 28 28 30 31 36 38 41 43 49 53 47 44 44 41 43 40 45 45 40 27 44 31 35 28 29 26 18 15
14 16 17 16 16 17 17 19 22 22 20 28 28 26 28 25 27 31 29 26 40 40 32 37 51 58 51 49 54 50 51 48 41 30 32 32 31 35 32 27 22 21 21
9 15 15 15 15 13 13 14 14 17 21 24 29 34 36 41 41 40 39 36 30 29 39 41 47 55 54 55 55 51 53 47 38 30 41 37 36 37 32 24 25 23 23
11 12 7 9 9 15 15 16 16 12 9 12 23 28 30 34 39 42 40 35 35 39 43 45 46 53 58 58 54 50 55 47 35 36 39 40 30 28 29 26 25 22 21
7 6 6 8 7 8 8 8 9 11 14 15 14 16 19 22 26 28 33 27 31 32 26 24 25 25 29 39 54 56 45 31 37 40 40 38 31 32 29 25 23 24 21
8 13 10 7 6 5 5 7 6 6 7 6 8 8 10 12 9 11 9 14 14 19 10 6 12 16 18 25 24 17 23 28 34 32 34 32 30 29 26 24 21 20 20
8 10 13 8 6 5 5 4 8 6 4 6 5 8 6 7 8 6 12 13 3 5 10 13 19 15 15 18 21 23 26 29 28 29 27 28 27 27 24 21 21 20 17
10 9 9 7 6 4 5 5 6 5 2 3 7 7 6 3 2 4 8 16 20 17 10 6 9 12 19 23 26 27 27 30 30 28 28 28 26 23 21 20 19 19 19
11 8 7 8 6 6 4 5 8 5 2 3 5 3 4 6 8 6 10 10 12 12 9 5 12 19 21 26 26 25 26 26 28 27 26 25 23 21 19 19 19 19 19
20 20 14 10 9 10 9 12 15 15 11 12 12 9 4 2 4 4 5 6 3 2 3 12 12 15 20 20 22 19 18 20 20 23 22 20 19 19 18 19 20 20 19
16 14 14 12 14 13 11 14 13 11 12 14 14 13 14 13 12 9 8 7 7 9 7 9 13 16 18 19 18 18 20 22 20 19 20 18 19 20 21 21 20 20 19
20 19 15 14 14 15 12 9 6 7 8 8 9 8 9 8 8 5 3 2 3 5 7 8 11 13 17 17 21 22 23 25 25 21 18 18 19 20 21 21 20 19 19

GFSGL_850_spd_042.txt.gz
Wind_Speed
44 44 46 45 43 42 43 38 37 34 26 28 20 27 27 23 25 29 28 24 25 26 25 23 23 20 19 16 15 15 14 13 13 10 6 11 11 11 14 16 15 13 10
46 43 45 46 45 44 44 44 41 38 36 35 33 29 32 28 26 28 31 32 29 29 27 28 27 25 24 22 20 19 17 16 15 14 13 9 12 13 12 13 15 10 12
43 43 44 47 48 48 47 46 45 44 43 40 39 40 38 35 30 29 31 32 33 32 32 29 30 31 27 26 29 26 22 21 21 22 20 17 17 18 15 11 10 7 9
43 44 45 46 48 49 48 47 47 48 46 45 43 43 43 41 38 35 33 34 34 34 33 35 33 33 33 30 29 30 28 23 23 24 21 18 17 19 19 15 13 10 10
45 46 47 45 46 46 46 48 48 47 48 46 45 44 44 43 42 40 39 38 37 37 37 40 41 38 36 33 32 30 29 32 27 24 23 21 20 19 24 21 16 11 11
44 48 46 45 44 46 47 48 46 47 47 47 46 46 47 47 46 44 40 41 41 40 40 41 44 43 40 38 36 33 32 33 35 35 27 26 21 19 24 22 18 15 15
42 43 46 46 47 47 47 47 47 50 48 47 48 49 51 51 49 47 45 44 43 44 43 42 43 46 45 44 41 37 36 36 35 32 34 31 28 25 24 20 21 23 23
38 42 41 43 46 48 48 48 49 49 51 51 50 50 51 53 53 52 49 47 49 49 47 45 45 45 47 47 46 45 44 41 41 38 37 34 33 30 30 29 30 30 25
38 41 43 41 45 46 50 50 48 48 50 52 53 53 54 55 56 55 51 50 53 55 53 53 51 49 48 48 47 49 48 46 43 43 39 38 35 33 32 32 27 26 25
31 35 42 42 47 48 49 50 49 48 49 48 52 54 55 58 59 59 56 53 55 59 60 60 59 57 52 48 49 50 51 50 45 42 45 44 42 38 33 32 27 25 21
29 31 33 35 40 46 47 45 47 47 46 45 47 48 50 51 52 52 53 52 57 54 54 56 59 59 53 51 50 52 55 49 47 43 44 44 45 41 37 34 32 29 24
27 32 34 33 34 39 43 43 42 43 43 43 43 44 45 47 46 47 47 49 52 52 51 48 46 44 49 52 53 55 54 52 47 44 43 42 40 41 36 26 29 32 33
26 26 33 33 32 32 34 40 38 38 39 39 40 39 40 38 34 37 40 41 43 48 55 53 44 33 43 45 48 51 54 55 50 51 47 42 42 40 27 22 24 30 33
26 28 29 31 31 31 33 32 36 35 36 38 31 33 32 28 29 28 32 33 33 37 40 43 53 54 51 38 45 50 53 60 61 60 57 42 45 39 32 27 28 28 32
21 24 26 26 25 28 29 24 27 29 28 28 28 26 25 24 24 29 27 29 27 32 33 35 43 49 56 58 60 52 47 60 60 64 57 49 48 41 37 31 34 35 37
16 17 19 19 22 23 22 30 21 24 23 27 25 21 23 27 25 22 25 31 29 26 32 38 42 44 49 50 53 51 57 53 63 62 56 54 51 44 34 38 39 42 40
13 13 15 16 19 19 22 19 27 25 25 21 23 27 32 35 36 36 35 34 35 35 32 32 34 37 42 45 47 52 50 55 64 65 63 59 51 35 41 46 41 40 36
17 14 15 17 10 18 18 17 12 11 16 20 26 27 29 30 32 33 35 39 43 42 36 30 32 33 39 44 43 47 45 51 62 69 68 60 54 38 46 41 41 43 34
12 13 12 13 12 13 13 15 14 14 13 14 15 17 15 15 17 19 22 24 26 23 22 28 31 27 28 29 31 35 39 35 27 18 6 11 16 39 40 40 37 37 33
14 14 9 10 8 6 6 6 6 6 5 4 3 4 7 8 8 11 10 7 4 5 8 8 10 6 10 17 18 13 12 18 10 10 17 22 32 35 36 36 33 32 27
11 17 11 14 12 9 8 6 7 5 3 4 3 6 4 5 11 11 7 2 4 8 8 8 10 12 11 12 15 17 21 21 16 10 17 26 26 29 29 32 29 27 27
12 12 12 13 14 13 11 11 9 8 7 4 3 8 2 3 2 5 8 7 9 15 11 8 9 8 8 8 10 11 14 13 15 16 19 18 21 26 27 25 28 24 22
18 17 16 14 12 12 10 9 5 5 2 8 6 3 3 2 6 6 8 8 7 8 10 7 6 3 5 7 8 11 13 12 12 17 22 24 26 27 26 23 21 24 21
24 22 21 25 21 19 16 17 19 19 19 16 14 12 11 10 10 13 12 12 7 4 4 7 3 7 5 6 10 10 10 13 19 17 22 23 22 23 23 24 24 20 24
22 19 17 18 18 17 19 15 14 12 9 9 9 10 10 10 8 7 6 12 12 10 11 6 6 5 4 8 14 12 13 15 17 22 20 20 19 21 22 22 21 22 22
27 24 22 18 17 18 16 15 12 9 8 6 4 4 5 7 9 8 7 4 2 3 4 5 1 3 4 9 12 11 15 18 18 19 21 19 20 16 20 23 20 22 22

GFSGL_850_spd_045.txt.gz
Wind_Speed
44 42 41 41 43 43 42 36 36 33 29 32 30 23 28 27 24 21 24 26 26 24 22 21 19 21 22 20 18 17 16 16 17 13 10 16 18 18 14 13 15 15 15
44 41 41 40 40 42 43 40 36 38 37 31 33 34 25 28 27 23 22 26 27 28 28 26 24 21 25 26 24 23 21 20 18 16 18 15 22 18 15 14 13 14 17
47 44 41 41 41 41 41 41 40 40 40 39 34 32 35 31 30 28 26 25 26 29 30 30 28 27 27 28 30 28 26 24 23 22 21 20 18 19 20 20 16 11 11
46 45 44 42 41 42 41 41 42 42 42 41 41 41 39 38 36 33 32 30 27 28 32 33 33 34 32 30 29 33 32 30 28 29 27 27 27 23 22 23 22 17 12
44 44 45 43 41 40 42 43 43 44 45 45 44 45 45 46 44 43 40 38 36 33 33 35 37 37 36 35 33 32 34 38 36 34 34 31 29 30 32 28 27 21 16
46 44 41 40 41 41 42 42 42 44 44 46 47 48 48 49 49 47 44 42 40 39 39 38 38 40 40 39 38 37 35 37 42 43 40 38 35 32 29 29 28 26 26
47 47 45 43 41 40 38 41 43 44 43 44 45 45 48 49 49 49 47 45 43 42 42 41 40 41 41 42 42 42 42 40 41 41 44 44 40 35 30 32 31 31 30
46 49 47 48 46 43 42 43 42 43 44 46 46 46 46 47 46 47 48 48 47 47 46 45 44 42 42 41 41 44 46 45 46 43 44 44 42 38 33 30 31 29 28
46 46 48 48 48 47 47 46 44 44 44 46 47 48 50 50 48 46 45 48 50 53 52 51 51 50 48 46 44 45 43 46 45 47 45 44 42 40 40 35 38 34 34
49 46 42 41 44 45 46 47 47 47 46 45 47 48 49 51 50 49 46 46 50 54 55 56 56 56 54 52 51 50 52 53 46 47 44 48 46 45 45 46 41 38 37
33 35 40 41 42 43 43 44 46 47 48 48 47 47 47 47 46 46 44 45 50 51 54 57 57 55 54 54 53 54 60 55 53 52 50 46 50 53 52 51 48 46 42
29 35 29 31 34 39 41 43 45 45 46 46 46 46 46 45 43 41 41 42 43 46 51 53 52 49 46 45 48 55 56 54 54 57 55 55 54 53 57 57 54 52 44
19 22 25 30 31 33 35 37 42 42 42 43 44 45 43 41 40 38 36 36 37 40 43 45 46 47 48 44 44 45 46 50 58 54 60 63 64 59 52 54 57 52 44
21 23 26 28 27 30 30 30 32 37 41 40 39 39 36 35 34 31 29 31 31 31 32 32 31 33 38 46 50 47 42 50 57 63 64 65 61 57 58 53 55 60 49
19 23 27 30 30 29 29 30 31 31 34 35 36 36 33 31 26 27 27 27 27 29 31 32 36 39 41 45 48 49 49 51 54 49 55 59 58 58 60 57 56 54 54
14 18 21 24 26 27 27 28 29 24 25 27 27 24 28 25 29 26 24 25 24 25 26 28 29 30 37 40 41 42 43 44 44 47 54 53 58 58 65 62 58 61 49
16 16 19 23 22 23 24 25 25 27 24 26 26 26 25 23 21 22 23 25 27 29 32 35 39 37 32 29 30 34 34 37 39 43 40 48 50 59 66 70 61 46 21
13 15 19 20 23 23 25 26 24 24 30 24 25 24 23 24 26 28 30 32 34 36 36 36 34 33 32 33 31 31 33 32 35 35 33 27 29 31 25 26 41 18 36
10 9 13 19 21 21 26 20 24 26 24 22 18 16 16 18 20 20 18 16 17 19 19 18 19 22 26 28 29 26 24 24 27 31 18 8 7 12 11 6 8 27 35
14 11 10 12 15 17 19 19 19 20 16 14 11 8 8 7 8 9 9 9 9 7 7 8 9 11 13 17 19 19 17 12 13 11 12 16 6 7 9 8 22 27 32
16 15 12 11 9 8 9 10 11 11 11 8 5 2 1 1 3 5 5 3 3 6 9 10 10 10 12 15 16 14 14 15 13 15 11 5 5 7 9 12 20 24 26
11 16 14 16 17 17 19 19 18 19 14 10 5 4 7 6 6 6 5 5 7 8 10 10 9 11 11 13 11 9 10 11 13 13 8 8 7 10 20 23 25 27 24
20 20 25 22 21 22 19 16 16 13 9 8 10 9 8 6 4 7 10 10 6 4 6 6 5 5 3 5 5 5 5 4 2 5 6 7 9 12 16 24 23 25 27
28 29 27 24 21 21 21 20 18 15 14 15 15 15 16 14 8 8 5 6 8 12 17 10 2 3 4 4 2 3 4 4 5 5 7 8 11 15 19 20 24 22 23
30 33 33 31 26 22 20 19 18 15 13 12 10 10 9 6 5 4 3 4 3 3 5 9 7 6 6 1 5 5 4 5 5 5 10 10 12 15 17 20 19 22 21
31 30 25 22 24 24 21 19 18 14 14 11 10 8 6 4 5 5 4 3 2 2 2 2 1 2 3 3 7 5 6 3 6 10 12 12 12 16 17 19 19 17 17

GFSGL_850_spd_048.txt.gz
Wind_Speed
48 45 44 43 42 42 41 37 33 30 31 29 27 24 24 26 22 25 23 19 23 24 23 22 21 22 24 23 22 20 20 23 24 21 19 15 16 19 19 20 16 16 15
46 47 45 43 40 42 43 41 36 35 34 32 30 31 30 23 27 28 27 24 23 26 28 26 25 24 26 28 27 26 24 23 24 23 22 24 23 21 21 22 19 17 15
46 44 43 43 41 40 42 42 40 37 36 37 33 33 36 34 29 27 29 27 23 24 27 30 30 29 29 28 32 32 30 28 28 29 27 25 26 24 24 25 25 22 18
46 43 42 42 41 39 37 38 40 38 38 38 40 39 36 35 35 33 29 29 27 25 26 28 30 33 32 30 30 33 36 35 34 34 33 31 29 27 28 30 30 28 23
45 43 40 37 37 36 36 36 37 38 38 38 40 43 42 41 38 35 34 34 33 31 30 29 30 31 32 34 33 34 34 36 40 38 38 38 38 35 37 35 34 31 29
44 42 38 38 38 38 36 35 35 37 38 39 41 43 44 45 46 45 42 41 39 39 38 37 35 35 35 34 34 36 36 37 40 42 45 45 45 43 41 41 40 40 40
44 42 40 39 40 39 38 38 38 37 36 39 42 43 46 46 46 46 45 45 45 45 44 42 41 39 38 38 38 37 38 39 40 41 44 48 50 50 48 46 46 44 42
44 41 40 39 37 35 36 36 35 37 37 37 39 40 42 43 43 42 42 43 45 47 46 44 44 43 42 40 40 41 41 42 42 43 45 48 50 49 49 48 47 45 43
45 44 42 41 39 36 38 36 32 33 35 36 36 36 39 40 38 38 37 39 43 46 47 48 47 47 47 45 45 47 48 50 46 45 47 47 44 48 48 46 46 44 47
44 44 42 41 42 40 38 37 36 37 37 37 38 39 39 39 37 35 35 36 41 44 45 48 51 52 51 50 50 49 53 57 52 51 52 52 49 48 48 51 50 50 51
42 42 43 42 41 39 40 39 40 41 41 41 41 40 41 40 39 37 35 36 38 39 42 45 48 49 48 48 49 51 54 49 51 54 55 54 54 52 53 54 57 59 58
23 35 39 44 42 39 37 37 38 40 41 42 43 43 43 42 40 38 35 34 34 36 39 40 41 39 39 41 43 45 46 43 45 50 54 56 53 55 57 56 55 61 57
6 13 23 28 34 35 36 36 37 37 38 40 41 41 42 41 38 36 34 32 29 33 34 35 35 36 36 37 39 40 39 42 44 48 56 57 60 60 59 60 58 58 64
9 11 15 20 21 27 32 35 36 37 37 37 39 40 38 37 35 30 28 28 27 27 27 28 27 28 30 32 37 38 41 45 47 49 50 51 56 55 54 55 59 58 58
12 16 18 22 25 27 29 32 35 34 33 33 33 32 31 29 27 27 26 25 24 22 23 26 29 30 33 34 36 40 44 44 46 46 47 50 52 51 52 57 58 54 52
17 16 16 17 19 24 26 29 32 33 32 32 29 26 27 26 25 25 24 22 22 23 24 25 26 28 30 31 32 35 36 37 38 36 38 40 42 40 41 46 50 53 57
18 17 17 14 14 17 21 25 28 28 30 29 25 23 24 25 24 24 23 22 22 19 23 24 27 28 30 32 31 27 28 30 31 34 34 37 36 37 36 40 43 40 38
22 14 16 17 18 21 23 23 26 27 26 25 27 27 25 23 22 22 22 22 25 27 28 30 30 31 30 28 26 24 25 27 27 24 24 26 23 19 20 23 14 5 13
19 14 14 14 16 21 24 25 25 25 24 24 23 21 22 22 22 21 21 21 20 18 18 17 17 16 16 16 17 19 19 18 17 13 12 16 16 13 9 7 2 2 7
15 14 12 14 15 16 20 25 26 28 26 23 21 19 17 17 14 14 14 13 12 11 10 7 6 7 10 13 15 17 18 15 11 9 7 5 13 14 12 11 13 8 11
15 15 13 15 17 12 10 13 18 21 21 17 15 13 12 10 9 7 6 6 5 5 5 6 7 8 10 11 12 14 15 13 9 9 8 14 15 12 16 14 12 10 13
17 11 15 15 17 17 18 20 19 19 17 15 12 10 9 7 6 5 3 3 4 4 5 6 8 9 9 9 9 8 7 9 8 8 8 4 4 4 5 8 13 17 16
24 20 20 22 20 20 21 21 22 22 18 15 14 14 12 9 7 8 6 4 5 5 1 3 3 6 6 4 3 2 2 3 1 1 2 2 3 6 10 10 12 16 17
21 24 23 26 30 26 24 24 21 17 15 13 14 12 11 10 9 7 4 4 3 2 5 1 4 3 1 4 5 2 2 2 3 3 3 2 4 9 12 14 13 15 16
30 31 34 33 33 32 29 27 24 22 19 17 15 13 10 8 6 4 2 2 2 2 2 3 2 3 5 6 6 6 4 5 1 2 2 3 6 9 13 14 15 15 17
30 33 30 32 33 30 29 27 25 22 20 17 14 11 9 7 6 6 4 3 1 1 2 3 4 5 6 6 6 7 6 5 6 6 7 8 8 10 14 15 17 20 21

GFSGL_850_spd_051.txt.gz
Wind_Speed
55 51 49 46 42 38 35 35 33 31 30 28 26 24 22 21 21 20 21 19 20 20 21 21 22 22 24 25 25 25 25 25 25 23 23 20 21 19 18 20 20 21 20
52 51 51 47 43 42 37 34 34 33 31 30 29 26 25 24 23 26 25 25 24 23 22 25 26 25 26 27 28 29 27 26 27 28 24 23 24 24 23 23 23 24 25
53 53 52 50 46 43 39 36 34 35 34 33 32 32 30 29 27 24 23 28 28 27 24 24 26 29 30 30 30 32 33 32 31 33 32 28 27 28 29 29 29 28 29
52 51 50 49 46 43 38 37 35 35 36 36 36 36 35 32 32 31 30 27 28 29 28 26 24 27 29 32 32 33 33 34 37 38 38 37 35 33 34 36 34 33 33
49 50 49 46 43 39 37 35 34 34 36 36 37 38 39 39 36 33 33 33 33 31 29 29 28 27 26 27 29 32 34 35 36 39 42 44 44 42 43 41 40 39 38
46 45 43 43 42 39 36 36 34 35 34 35 38 40 41 41 41 39 37 36 34 34 34 33 33 34 34 33 33 33 35 35 38 40 42 45 46 46 47 48 46 45 46
47 45 44 44 41 39 36 36 36 34 34 35 36 38 41 41 41 40 39 41 42 42 41 41 41 40 39 39 38 38 39 41 41 42 45 46 48 48 48 50 49 52 53
45 44 43 42 40 38 37 37 36 35 35 34 35 36 38 40 38 39 40 41 44 46 46 45 45 43 42 40 39 41 42 43 44 44 48 50 49 47 50 50 50 49 48
42 41 40 38 36 35 34 33 33 33 33 33 33 33 35 35 34 34 35 38 41 42 42 42 42 42 40 39 40 42 44 47 44 44 45 48 48 50 50 52 54 50 53
39 38 38 35 34 34 31 28 27 30 29 28 29 29 28 29 27 26 27 31 36 37 37 40 41 42 41 40 42 42 46 47 45 45 44 42 40 41 41 47 53 48 49
37 36 34 32 33 35 34 32 30 31 31 32 33 32 33 32 30 28 26 28 31 32 34 36 37 36 34 34 34 36 39 34 32 35 39 43 46 49 47 44 43 46 51
27 29 31 33 34 34 35 33 34 34 34 34 35 36 35 34 33 32 29 28 28 31 32 32 32 29 29 30 30 33 32 32 34 38 41 45 47 48 48 50 51 51 51
14 16 20 24 27 28 30 30 33 33 32 33 33 33 33 32 32 30 29 28 26 28 27 26 29 29 28 30 29 27 28 32 35 39 43 43 44 44 48 51 55 52 53
8 8 7 10 14 19 23 26 29 30 30 31 32 33 32 30 29 27 25 24 19 25 26 25 23 25 28 29 30 31 32 35 37 40 43 44 44 46 47 46 46 46 47
6 7 8 9 12 16 18 21 25 27 29 30 31 31 29 27 25 19 18 20 22 23 23 25 26 26 27 29 30 31 31 30 31 31 34 36 38 36 33 31 33 38 41
4 9 12 13 14 16 19 22 25 27 28 29 29 28 25 24 21 18 19 19 18 20 24 25 27 28 29 26 26 26 29 31 33 31 33 32 31 35 35 34 34 37 42
9 8 10 14 15 16 18 18 20 23 25 26 27 26 25 22 17 17 17 19 19 21 22 23 23 22 24 26 29 31 31 28 29 30 32 34 35 32 27 26 25 26 19
9 9 8 6 8 12 14 14 14 16 18 20 23 25 24 21 21 20 19 18 18 19 21 24 26 27 28 27 25 23 23 23 23 22 22 21 21 21 21 20 14 5 11
11 9 7 4 4 7 11 13 14 16 18 18 18 16 17 20 21 20 19 19 20 22 24 25 23 20 17 15 16 16 16 17 18 18 16 14 14 11 12 6 4 11 16
11 12 9 7 5 4 7 8 15 19 19 21 20 18 16 17 18 18 19 19 19 18 17 15 13 12 11 11 12 14 14 15 14 13 13 11 7 10 13 14 14 16 8
13 13 12 11 11 9 11 11 13 17 20 21 19 17 17 15 13 12 13 13 13 11 10 11 11 11 11 11 13 13 15 14 13 13 12 10 13 17 17 15 14 12 7
20 20 17 14 14 14 15 17 14 15 19 21 19 16 13 13 13 13 14 13 12 12 12 10 10 10 10 9 8 8 8 7 7 9 10 10 9 9 10 11 11 8 4
27 26 21 16 15 14 16 18 16 18 19 19 19 17 16 14 13 13 11 9 9 9 9 9 9 8 8 7 6 5 5 5 5 5 4 4 5 4 3 5 6 8 9
26 25 22 23 19 20 20 23 23 23 21 18 16 15 13 11 10 8 6 7 6 3 2 2 5 5 4 5 8 8 6 4 3 4 4 5 7 7 7 7 7 8 10
29 29 25 25 26 27 28 29 28 26 23 21 18 16 13 12 11 8 6 6 5 4 1 1 1 2 4 7 7 7 6 6 5 4 5 5 7 8 10 10 9 10 12
21 24 28 32 33 34 33 32 31 28 28 27 24 21 18 14 11 9 6 4 3 2 2 3 4 4 6 8 9 8 10 9 9 8 10 11 8 7 10 13 13 13 14

GFSGL_850_spd_054.txt.gz
Wind_Speed
52 46 45 44 43 43 39 34 29 27 26 28 26 23 21 21 20 20 20 18 18 18 19 20 19 18 19 20 21 21 22 22 26 26 22 19 20 19 19 21 21 22 23
52 49 46 45 44 44 42 36 31 29 28 28 27 26 26 25 23 22 21 20 20 20 18 20 22 21 23 22 22 25 26 27 29 31 28 26 24 23 23 24 23 24 26
50 50 48 48 46 43 41 38 35 31 29 30 30 30 29 27 27 26 24 24 24 24 23 24 22 22 25 26 26 27 28 29 31 34 37 35 33 31 31 32 31 31 30
49 48 48 48 45 42 39 39 37 34 31 31 33 32 31 30 29 28 27 26 25 24 25 27 27 26 24 24 26 29 30 32 33 35 38 40 40 38 38 39 40 39 38
46 46 46 46 45 43 40 38 37 35 34 31 33 35 35 34 33 32 32 31 30 28 27 27 26 26 24 23 25 25 27 29 33 37 40 42 42 43 42 42 46 44 46
43 42 41 43 45 43 38 37 38 37 35 34 34 35 38 37 36 35 34 34 33 33 33 32 31 31 30 29 29 30 31 33 34 36 38 43 44 43 42 44 46 46 50
38 38 40 41 41 41 38 37 38 37 35 34 35 35 37 38 38 37 37 38 39 38 37 36 36 35 34 34 34 35 37 39 39 40 45 45 46 45 45 47 49 49 51
39 40 38 37 36 38 38 38 37 36 35 34 34 34 34 35 36 37 37 39 40 42 42 42 42 41 41 40 39 41 42 41 41 40 43 47 47 45 45 45 46 49 52
40 39 37 36 36 36 37 37 36 35 34 34 33 33 33 32 31 32 34 38 41 42 42 43 43 43 42 40 40 40 41 41 39 40 40 42 42 40 35 36 43 45 51
39 36 34 32 32 33 32 32 32 32 31 31 31 31 30 28 27 27 27 31 36 37 37 38 38 37 35 34 35 36 40 40 36 37 34 31 29 30 28 31 36 42 46
34 32 30 29 28 27 27 27 28 27 26 27 26 25 25 24 22 22 23 27 30 31 32 33 33 31 29 29 29 31 32 25 24 26 30 33 35 35 33 31 33 38 43
26 25 23 23 24 25 26 24 25 25 26 27 26 26 27 26 24 23 23 25 26 30 32 31 30 27 26 23 23 26 26 26 27 28 31 34 35 36 38 41 45 46 44
23 20 19 20 22 23 23 22 24 24 27 27 28 27 27 25 24 21 19 20 22 27 28 27 23 21 23 25 26 26 24 25 27 33 33 36 37 40 41 37 37 36 38
18 18 19 21 21 22 22 23 23 26 27 26 26 26 25 23 22 20 18 17 18 22 22 21 22 25 26 26 28 28 28 28 34 34 34 34 33 31 33 33 33 33 34
16 14 12 11 12 15 19 22 24 23 24 24 24 25 25 24 21 17 15 16 17 17 17 24 26 26 28 28 28 27 27 26 27 26 26 29 31 34 35 34 35 33 32
11 10 9 9 10 11 13 16 18 21 23 22 23 25 24 21 19 16 16 17 17 18 20 24 24 24 25 25 26 26 25 24 25 26 29 30 29 29 30 29 25 26 28
4 4 5 9 11 13 15 17 18 20 20 22 23 23 23 19 17 15 14 13 16 19 21 22 23 22 22 22 22 24 27 28 29 29 25 24 22 22 20 21 20 15 12
1 1 2 5 9 12 14 15 15 17 16 15 14 15 17 16 16 16 16 17 18 19 20 20 21 21 23 25 28 28 29 27 22 19 17 17 17 16 15 12 10 9 15
4 2 1 1 4 5 8 12 14 15 13 11 10 9 9 10 14 17 18 20 18 18 19 20 22 24 27 26 24 22 20 17 15 15 14 13 13 14 9 8 8 12 17
7 5 2 1 3 6 7 8 11 15 15 14 14 13 11 11 11 13 15 16 16 17 19 21 21 20 18 17 17 15 14 13 13 14 13 13 12 10 10 12 12 12 14
9 7 7 7 8 9 10 11 9 10 12 15 15 14 13 14 15 15 15 16 17 17 18 17 16 15 15 14 13 13 13 13 12 12 13 12 12 12 14 14 10 8 11
12 14 13 14 16 14 14 15 14 12 11 12 16 17 18 17 15 14 14 15 15 16 16 14 14 14 12 12 12 10 9 8 8 8 8 9 8 8 9 9 9 11 10
16 17 19 19 19 17 15 17 18 17 14 16 17 18 17 16 15 14 14 14 14 15 13 12 12 11 10 10 10 9 8 7 7 7 7 6 6 6 5 4 6 8 9
22 22 21 20 21 21 18 19 22 20 20 21 20 19 18 16 15 13 11 10 11 9 8 7 8 9 8 8 7 8 9 7 6 5 6 6 7 8 7 6 6 9 9
18 20 19 18 20 22 24 26 27 26 25 23 22 21 18 16 14 12 12 13 11 9 7 5 4 3 2 2 3 5 7 8 8 8 7 7 7 9 9 10 11 11 12
12 15 16 19 19 25 27 30 31 28 28 27 26 24 24 21 18 16 15 14 13 12 10 8 7 4 3 2 3 5 7 9 10 10 11 12 11 9 9 10 13 13 14

GFSGL_850_spd_057.txt.gz
Wind_Speed
46 47 45 44 42 38 35 31 31 28 24 22 22 23 23 22 21 21 19 18 17 17 17 17 16 16 15 16 17 17 18 19 22 19 21 21 19 18 18 20 21 23 25
46 46 46 43 41 40 37 34 31 30 27 24 24 26 25 24 24 23 22 20 20 19 17 17 17 17 18 18 19 20 21 22 24 29 27 29 28 25 26 27 28 30 30
49 47 47 46 44 41 39 36 34 32 30 27 27 27 28 28 28 26 25 23 22 22 20 20 19 19 19 19 21 24 24 25 27 30 33 32 35 33 34 33 34 35 37
48 48 48 47 45 42 39 37 34 33 32 30 29 30 29 29 29 29 28 27 27 26 25 24 24 23 24 22 23 23 24 27 29 32 35 33 33 34 39 39 40 39 39
46 45 45 43 43 43 42 38 34 33 32 32 32 31 31 32 31 32 31 31 31 30 28 27 26 25 24 23 24 24 24 26 27 27 28 30 31 28 32 35 34 36 38
45 44 40 40 40 40 40 39 37 34 33 34 35 34 33 35 35 33 33 34 33 33 33 31 29 28 27 27 27 28 29 31 33 34 31 32 40 39 36 35 32 33 37
44 40 39 39 39 38 36 38 39 37 35 36 36 36 36 36 36 35 34 36 37 36 36 35 34 34 32 32 32 32 33 34 36 38 44 45 48 45 45 46 39 40 40
42 39 38 38 37 35 36 37 36 37 36 35 36 36 37 37 36 36 36 37 40 40 40 39 39 39 38 37 37 39 41 41 41 41 45 48 46 45 41 40 40 41 42
39 39 38 37 36 36 36 36 35 35 35 36 35 36 37 36 35 33 34 37 41 42 42 42 42 42 40 40 41 43 44 44 41 41 40 40 39 37 32 29 32 35 42
38 38 37 33 30 30 30 31 31 32 32 33 34 35 35 34 32 31 31 34 38 40 41 42 42 42 40 39 39 39 42 40 37 36 36 35 31 26 23 25 29 34 38
38 38 37 35 35 33 30 31 32 33 33 33 34 33 33 32 32 31 31 34 37 37 37 36 35 33 29 28 29 31 34 29 28 26 29 30 30 30 29 29 29 32 37
35 37 34 31 30 30 30 30 30 30 30 30 29 29 29 26 25 25 25 28 28 31 32 31 31 28 24 23 24 25 23 23 26 29 32 32 30 30 32 32 33 35 35
25 27 25 26 27 27 27 28 28 28 29 29 29 28 26 23 23 24 24 26 27 30 30 30 28 26 23 21 19 19 21 25 26 27 29 30 29 32 33 32 30 25 26
24 25 25 25 25 26 25 25 26 27 29 29 27 27 24 24 24 22 22 23 24 27 27 28 27 26 25 24 23 23 26 27 27 29 31 30 30 29 29 28 28 30 25
21 23 23 24 25 26 26 24 27 27 25 26 26 24 23 24 23 17 17 20 21 22 21 25 27 26 25 26 26 28 29 27 26 23 24 27 28 27 28 30 26 23 19
17 15 17 11 21 24 23 25 25 26 21 24 26 25 23 24 23 19 21 21 20 20 23 26 26 24 23 23 25 24 24 23 21 22 23 25 27 28 27 25 18 14 15
8 11 13 9 8 16 20 20 18 18 20 22 24 24 24 24 19 18 18 19 20 20 24 25 24 23 22 22 22 21 19 19 22 24 24 26 24 22 20 13 11 9 7
10 8 7 15 25 24 15 14 14 14 15 17 19 21 23 24 21 19 19 20 21 21 20 22 23 25 22 21 21 20 22 23 24 23 20 19 18 17 12 9 7 6 7
10 15 11 12 15 7 5 7 9 11 12 14 13 14 15 17 18 19 18 20 23 23 23 23 22 21 20 21 22 23 23 22 19 17 17 17 16 15 10 8 8 11 10
6 8 7 4 2 2 4 6 7 10 12 12 13 14 14 16 15 13 16 21 19 20 19 19 20 21 21 22 22 20 19 17 16 16 16 16 15 13 11 10 9 12 9
6 4 4 3 3 5 6 8 7 7 9 12 15 15 16 18 20 18 20 18 18 20 20 19 20 22 22 20 19 18 17 16 16 15 14 13 11 11 12 13 13 12 8
11 9 9 11 11 12 11 12 11 10 10 10 13 17 18 19 19 20 20 22 22 21 20 20 21 21 20 19 18 16 15 13 12 10 9 10 11 11 11 9 11 10 11
16 15 14 15 16 16 16 15 14 14 13 13 13 15 18 18 19 19 19 19 19 19 18 18 18 19 18 16 14 12 11 10 9 9 9 9 9 8 8 8 8 9 10
16 17 18 15 14 15 15 14 18 17 16 17 15 17 20 19 18 18 17 16 16 16 16 16 15 14 13 12 12 12 11 10 9 8 7 7 9 10 11 9 9 10 10
14 13 14 18 18 18 21 21 20 18 18 17 18 20 21 21 20 20 18 15 14 15 13 13 12 12 13 12 11 10 9 10 11 11 9 8 8 10 11 11 11 14 14
6 8 10 11 14 15 18 21 21 21 20 20 22 22 22 21 21 19 17 14 15 15 14 14 14 13 11 9 8 7 6 7 9 11 11 11 11 11 13 13 12 14 15

GFSGL_850_spd_060.txt.gz
Wind_Speed
45 41 42 41 41 41 37 35 32 28 26 22 21 19 19 18 19 21 18 15 13 12 12 13 13 13 11 10 11 11 12 12 15 14 14 15 22 20 19 21 24 25 26
43 48 47 43 43 37 41 38 34 31 29 25 24 22 22 21 20 21 21 17 17 16 15 15 15 13 15 15 14 15 14 16 17 24 20 20 23 24 27 27 27 24 26
39 41 43 44 42 41 42 39 36 33 30 29 28 27 25 24 23 23 24 21 20 18 17 17 16 16 17 15 15 16 16 17 18 20 23 20 22 22 24 28 27 27 28
38 39 41 48 47 45 44 42 38 35 32 31 31 30 28 26 25 24 23 25 25 21 20 20 19 20 20 19 19 19 20 20 21 24 24 24 23 22 23 25 26 22 24
43 41 42 47 47 46 45 42 39 37 34 33 32 32 30 29 26 27 26 25 26 25 23 22 23 24 25 24 20 21 21 21 20 22 24 24 24 24 23 26 31 30 28
46 48 46 48 48 47 46 43 41 38 36 34 35 35 34 31 29 31 30 27 26 26 27 27 28 29 29 28 28 27 27 28 28 27 28 29 32 31 27 29 32 35 41
47 48 49 49 49 47 45 44 44 41 38 36 37 36 36 35 33 32 32 32 27 29 31 30 28 25 28 30 31 31 33 33 35 35 40 41 40 38 36 38 37 38 39
44 47 47 46 47 46 45 44 43 41 40 39 39 38 37 37 36 34 33 33 35 37 35 33 35 35 34 31 30 29 31 33 35 37 41 43 41 34 30 31 35 40 40
46 49 49 45 45 45 44 45 43 41 40 40 39 39 39 39 38 36 34 35 38 40 40 40 41 41 40 38 39 41 41 42 35 37 39 41 38 34 30 27 31 30 35
47 46 47 45 43 43 43 42 41 40 39 37 37 38 39 39 37 36 34 35 37 38 39 41 43 44 42 41 41 41 44 37 31 31 30 30 31 30 25 24 26 29 29
33 33 37 40 41 39 39 37 37 37 34 37 35 36 37 37 37 36 34 36 36 31 30 30 29 32 35 34 35 37 38 33 30 29 28 25 24 22 22 21 24 28 32
30 31 35 37 34 31 34 33 33 33 34 35 35 34 33 36 36 35 35 36 36 37 33 26 25 28 31 27 26 28 29 27 29 30 26 25 24 23 24 26 26 30 31
29 32 32 31 32 32 33 33 31 33 28 29 27 27 26 25 30 33 33 33 33 35 34 27 27 29 30 28 27 28 26 26 26 26 29 28 27 28 27 29 29 29 28
27 27 26 26 25 25 23 24 25 26 27 26 26 25 24 23 23 22 30 32 32 33 34 33 32 32 30 29 29 27 26 26 27 30 29 30 32 31 28 26 27 24 18
22 22 21 21 22 21 21 19 21 21 23 23 24 22 23 23 22 22 21 20 27 30 30 29 28 27 29 28 28 26 25 27 30 30 29 27 26 26 25 25 27 16 13
21 20 20 20 18 19 19 19 23 24 25 27 25 24 20 22 24 25 24 24 24 21 22 21 24 27 26 24 23 25 25 26 24 23 24 24 22 23 21 17 12 10 11
27 25 19 20 21 20 18 16 12 13 24 26 31 30 29 19 29 28 23 23 26 27 29 21 21 19 18 22 23 23 24 23 21 20 19 23 23 21 17 10 10 10 7
16 26 16 16 17 18 15 13 10 9 2 10 26 31 29 28 27 25 24 24 26 28 30 29 27 26 24 23 22 22 23 21 21 21 18 18 14 12 12 12 10 9 9
10 21 10 9 13 15 13 9 16 17 7 17 26 23 24 24 25 25 24 25 22 24 27 26 25 24 22 23 21 21 21 20 16 17 16 15 14 13 13 11 11 14 13
7 11 11 8 17 15 14 9 12 17 19 25 22 22 24 20 21 24 25 24 24 24 21 22 23 24 22 21 22 22 18 18 19 18 16 14 13 14 13 12 12 13 17
4 4 6 6 10 15 18 24 10 12 21 24 24 21 15 11 15 19 21 22 20 19 16 15 16 18 18 16 13 14 14 14 14 14 13 14 12 11 13 13 15 13 13
7 4 0 2 7 7 7 9 15 16 16 16 16 17 15 12 12 12 17 19 20 21 21 19 17 19 20 19 18 16 13 13 13 14 14 14 12 13 13 12 12 12 14
11 7 4 3 5 10 10 12 14 14 12 9 8 9 11 11 18 19 17 17 16 18 19 19 19 20 19 19 19 20 19 19 17 17 15 14 13 12 12 12 11 12 12
7 7 7 3 6 8 9 10 11 12 9 8 7 6 6 6 9 15 17 17 16 17 16 16 16 18 20 20 20 19 19 18 17 15 13 10 13 13 13 12 11 11 11
4 7 7 10 14 15 15 16 17 14 10 12 14 14 13 13 8 10 12 13 14 15 14 14 14 15 16 16 16 17 18 16 16 17 15 12 12 14 14 11 12 13 14
7 5 2 4 4 8 12 14 14 15 14 14 16 18 18 17 16 13 14 13 14 14 14 14 15 15 15 13 11 11 10 9 11 13 14 14 12 13 15 15 14 15 16

GFSGL_850_spd_063.txt.gz
Wind_Speed
42 43 42 40 38 41 36 34 31 25 22 24 21 18 18 18 18 19 18 13 13 11 13 12 13 15 10 10 10 11 11 11 13 12 11 12 16 22 24 24 24 22 22
42 45 44 41 39 37 43 41 33 31 29 25 23 23 20 19 19 20 19 18 17 14 15 16 15 14 16 16 14 13 13 13 14 19 17 19 20 20 23 26 29 22 22
40 43 43 42 43 42 40 42 38 36 33 26 26 25 23 21 23 23 21 20 20 18 19 19 18 18 20 16 16 15 15 17 16 17 20 18 20 20 22 23 24 28 27
38 40 44 46 45 43 42 41 41 39 36 32 30 28 26 24 23 23 23 22 22 20 21 21 21 21 21 21 19 20 20 20 19 22 23 23 22 22 21 23 23 22 23
41 41 46 47 45 42 43 42 43 40 39 35 33 31 30 26 24 25 26 24 23 22 22 22 22 24 23 24 20 20 20 20 20 21 23 23 23 23 21 23 30 30 27
43 45 43 44 45 45 44 45 44 44 42 38 37 35 33 29 27 28 27 25 26 25 24 24 25 25 26 27 28 27 27 27 29 26 27 28 30 30 28 28 30 37 41
42 44 43 44 46 48 47 47 47 46 43 42 39 37 37 37 32 30 29 29 25 26 26 26 24 22 24 25 25 26 27 29 32 34 38 39 41 39 39 38 33 33 33
46 41 45 44 46 47 46 48 47 45 45 44 42 40 39 39 37 35 33 31 31 31 30 29 30 29 28 25 24 26 28 30 31 31 34 36 37 37 33 31 34 38 37
42 49 47 48 46 46 49 50 49 47 46 45 44 42 41 41 38 35 34 34 35 35 33 34 36 37 36 33 34 36 38 40 36 36 38 37 36 34 31 31 33 33 32
47 49 47 45 44 45 48 51 52 49 47 43 42 43 42 41 40 38 36 34 31 32 34 36 37 38 38 39 40 40 42 41 39 36 34 32 28 28 28 27 26 28 28
41 39 41 43 44 42 40 41 47 49 36 42 36 39 41 41 40 39 38 38 34 29 30 29 29 29 29 29 30 33 36 35 35 31 28 27 24 24 24 24 23 24 27
35 39 39 40 40 38 40 40 40 42 41 37 39 36 33 40 39 39 38 37 35 37 34 25 25 26 28 29 29 30 28 27 28 28 25 26 22 20 20 23 26 29 31
35 37 37 37 38 37 38 39 35 36 34 35 30 31 30 28 30 36 37 36 35 37 37 28 29 30 31 32 33 32 29 29 30 26 23 22 21 22 27 28 29 30 29
32 32 34 35 37 37 33 31 30 30 32 30 32 29 27 28 28 25 27 31 33 35 36 36 36 36 33 30 28 29 30 28 25 23 21 23 23 26 30 30 27 26 26
28 30 32 31 35 38 32 31 30 28 29 30 28 26 26 27 27 27 25 26 28 33 33 32 33 32 32 28 24 25 25 21 22 19 20 22 28 27 26 25 25 23 16
27 28 30 31 31 31 32 33 31 30 32 30 29 28 24 26 25 25 28 29 24 21 20 23 22 21 21 20 21 22 22 22 24 25 26 26 26 25 22 22 18 13 14
24 26 28 30 30 31 32 28 29 34 30 33 31 29 30 26 29 26 27 31 33 29 25 17 18 19 20 23 19 19 20 19 19 22 23 23 22 22 24 21 14 13 14
17 22 24 26 29 28 28 25 20 19 22 21 27 29 28 27 23 26 27 23 27 27 26 22 20 20 19 17 20 20 20 22 21 19 19 21 20 18 14 15 15 15 14
9 15 20 8 19 19 25 23 22 16 14 11 12 8 6 5 9 22 32 32 20 19 18 21 24 25 24 19 19 21 19 20 20 19 18 15 16 16 17 16 15 17 16
12 9 8 12 16 15 14 14 15 15 14 11 8 17 10 38 20 28 31 33 31 21 22 20 17 16 17 18 19 19 20 20 17 14 15 15 14 15 15 16 15 15 15
13 9 7 6 13 11 12 17 11 6 7 15 13 12 23 23 7 15 18 22 28 24 26 22 25 24 18 19 16 8 8 9 12 12 12 12 12 14 14 14 15 15 15
9 5 7 6 4 5 15 12 16 25 29 26 17 21 29 20 9 9 14 13 17 19 22 18 11 12 18 18 18 14 8 9 10 10 11 14 14 13 15 17 14 17 16
6 7 4 6 7 6 2 0 6 13 14 12 11 7 3 10 12 12 13 11 12 15 17 14 11 11 15 17 19 17 12 9 13 16 17 18 18 13 16 16 14 15 15
7 5 1 8 7 4 3 2 4 6 10 9 8 5 2 8 15 20 20 20 16 13 11 12 14 14 11 7 8 8 19 19 20 20 18 13 13 12 14 17 16 14 17
4 8 14 14 9 10 5 4 5 7 9 9 11 14 14 10 7 5 4 7 10 9 9 11 11 11 13 13 16 18 20 17 17 17 17 17 13 13 14 16 14 15 17
7 4 3 3 5 8 12 14 11 7 7 10 13 16 21 22 20 16 15 15 12 12 11 12 13 15 15 14 14 14 15 14 14 13 11 12 13 11 15 18 17 19 19

GFSGL_850_spd_066.txt.gz
Wind_Speed
44 42 45 45 44 42 36 35 31 28 24 27 17 20 20 17 20 19 16 16 18 12 13 11 14 9 14 8 10 8 10 12 15 16 12 15 16 17 22 25 23 26 26
45 42 44 43 44 44 44 39 38 34 32 28 28 21 21 21 20 22 20 20 16 16 12 17 13 14 15 16 15 13 9 12 16 20 21 21 21 17 19 23 24 24 25
43 43 42 43 43 43 44 45 40 40 36 34 32 29 30 26 21 21 20 18 22 19 16 16 17 18 17 17 16 16 18 14 17 20 21 19 21 22 22 22 25 27 26
42 43 44 46 46 45 42 41 46 40 40 38 35 33 29 27 24 23 24 22 20 24 22 21 22 22 22 21 20 20 21 21 21 22 25 23 19 20 22 23 19 19 27
43 44 46 47 46 43 43 43 41 47 45 41 37 34 32 29 27 26 25 25 23 23 23 24 25 25 24 23 23 22 20 19 21 23 24 22 19 19 24 28 33 32 32
43 45 41 43 43 45 44 43 41 42 42 42 40 36 35 33 30 25 24 24 26 26 24 24 26 24 23 21 23 27 27 26 27 27 30 32 32 31 32 35 38 39 44
44 42 43 42 45 46 45 44 44 43 43 43 41 40 39 37 33 28 27 27 26 27 28 27 25 23 23 23 22 22 23 23 25 29 33 33 34 30 29 34 35 34 37
43 41 43 44 45 46 46 45 45 45 45 44 43 42 41 39 36 33 32 31 30 30 29 28 28 26 24 25 24 24 25 25 24 24 27 30 31 34 34 32 33 35 36
39 45 43 47 46 46 47 47 47 46 45 45 43 43 43 41 39 35 34 36 36 35 33 33 34 32 30 27 28 31 33 33 33 35 37 38 35 31 32 32 33 34 37
37 42 43 43 45 46 48 46 47 47 47 46 44 44 43 42 40 38 36 34 38 38 37 36 35 35 34 34 35 35 36 35 34 35 35 33 31 30 27 27 28 29 28
40 36 38 42 45 45 44 44 45 46 44 44 43 43 43 43 42 40 38 38 39 37 37 36 34 31 29 26 25 26 28 24 25 27 29 31 29 28 26 20 19 23 25
33 39 40 40 41 43 42 43 43 43 43 40 41 41 44 44 43 41 40 39 39 40 40 37 33 28 23 20 22 24 23 23 24 27 30 30 27 24 14 17 19 22 24
18 38 37 39 42 41 41 42 43 43 42 43 39 43 39 38 42 40 39 38 37 39 38 37 37 31 25 25 25 26 25 27 28 30 31 28 23 16 18 22 27 28 29
30 36 38 38 40 43 41 42 45 43 43 40 40 36 35 34 31 33 32 30 34 36 35 36 36 35 34 35 36 35 34 32 29 29 28 22 18 20 26 28 27 25 25
29 36 37 38 38 40 43 38 43 42 42 43 37 37 31 30 31 32 32 30 25 25 28 32 34 36 38 39 37 35 34 31 29 24 18 18 19 24 26 27 25 20 21
20 28 30 32 33 37 39 37 38 36 37 35 33 27 29 30 29 29 29 33 27 20 19 26 30 28 28 28 28 26 23 24 22 20 21 21 25 27 24 20 19 20 20
18 22 25 29 31 35 35 38 35 37 36 36 35 33 23 28 31 30 27 33 24 19 23 18 14 16 18 18 20 22 24 24 18 19 21 22 21 20 17 20 19 13 13
19 23 25 24 31 33 34 35 32 39 40 36 34 36 33 29 25 24 23 21 22 21 18 18 21 17 14 19 23 22 18 19 18 17 19 19 17 18 18 15 12 13 15
10 17 20 19 26 27 32 35 29 28 29 30 30 32 33 29 22 19 13 4 10 15 18 20 29 26 23 24 23 18 18 18 18 18 17 17 16 14 14 12 14 16 18
13 14 12 12 11 21 21 28 26 24 21 24 19 20 19 18 16 10 10 11 12 12 19 34 28 21 17 19 24 23 21 19 20 16 16 10 12 17 17 17 16 14 15
10 12 12 13 13 13 10 14 14 14 20 23 12 8 6 15 26 14 11 15 14 17 20 24 26 20 19 17 18 22 20 15 11 9 9 13 16 17 16 16 13 11 13
7 7 8 12 10 11 10 10 9 10 7 12 15 10 12 13 16 15 13 12 10 13 24 21 21 19 14 13 14 11 10 8 9 12 12 13 14 17 16 13 16 19 16
2 4 5 7 8 12 8 7 6 2 2 18 31 16 10 15 17 19 19 15 17 23 20 15 14 14 16 15 17 21 20 17 17 20 20 20 21 21 19 21 20 21 19
3 1 6 11 8 11 10 11 10 11 13 19 18 21 19 21 19 20 22 23 21 18 18 20 18 18 16 16 17 17 15 15 16 19 20 20 16 12 10 11 13 15 17
1 8 8 1 3 8 8 8 6 8 6 13 21 27 24 15 8 6 5 5 6 12 14 18 18 15 14 15 15 15 15 16 16 16 16 16 15 15 10 14 16 15 13
11 9 6 1 4 3 7 5 5 6 4 1 6 12 11 10 7 5 5 6 9 12 12 11 10 10 10 10 12 13 13 12 11 10 11 5 8 11 14 13 12 16 18

GFSGL_850_spd_069.txt.gz
Wind_Speed
44 44 46 48 43 39 40 36 32 32 28 21 17 20 16 13 13 14 12 12 10 10 9 11 13 11 18 13 11 10 13 13 15 14 11 13 14 16 19 24 21 19 22
46 44 44 47 48 44 41 40 37 33 31 27 24 20 20 18 15 18 17 16 17 14 15 15 16 12 13 19 15 14 15 15 15 18 17 18 16 13 17 13 16 22 25
49 46 45 43 47 49 45 43 42 37 35 33 26 26 25 24 20 18 20 18 22 21 15 14 18 18 17 14 21 20 19 19 18 21 22 19 19 20 14 18 22 15 17
50 49 47 46 44 46 48 46 44 42 39 39 36 33 33 31 28 24 22 21 20 25 22 19 19 19 21 20 19 20 19 21 22 22 24 25 21 16 17 17 22 27 30
47 48 48 44 43 42 43 45 46 45 44 42 40 39 36 32 30 27 25 24 22 22 24 26 24 23 22 21 22 22 21 20 20 20 22 22 22 20 23 29 32 33 32
47 47 45 43 41 42 42 43 42 47 47 44 44 43 40 37 34 30 27 26 25 25 23 22 24 24 24 22 20 21 22 24 24 25 27 29 30 30 29 27 28 34 37
52 50 47 45 43 41 43 43 42 42 44 47 44 43 42 40 37 33 29 27 25 25 25 23 22 23 24 25 25 25 25 23 23 23 26 26 26 22 24 28 32 33 35
48 51 49 48 45 41 40 44 43 42 41 43 45 45 43 42 38 35 31 29 28 26 26 25 24 23 22 22 22 22 25 25 24 24 26 25 24 27 28 33 31 35 33
27 48 50 49 46 43 41 42 43 44 43 42 42 42 42 41 38 36 34 33 34 33 31 30 29 28 25 24 24 27 30 32 30 30 30 31 33 34 31 30 28 29 32
32 43 52 49 47 45 43 42 42 42 42 43 44 43 42 41 39 37 35 35 36 37 36 35 34 33 31 30 31 32 33 32 30 29 31 31 27 25 24 24 23 26 27
25 44 47 49 46 46 43 43 43 43 41 43 43 44 43 41 39 37 36 37 38 37 38 37 36 34 33 31 31 34 34 23 20 20 22 23 24 24 23 19 16 18 21
26 18 42 42 46 45 44 45 45 44 43 42 42 43 42 41 39 37 36 37 37 39 39 37 36 33 31 29 25 22 19 18 21 22 24 25 25 25 18 11 13 15 18
17 16 26 44 41 43 45 45 46 45 44 43 44 43 43 42 40 38 37 36 36 38 39 37 36 36 33 26 22 22 22 24 27 28 28 28 26 22 12 14 16 18 23
20 20 22 35 42 41 44 45 46 46 47 45 43 42 41 41 40 39 38 35 34 35 35 35 36 36 36 36 36 34 33 31 29 29 28 24 22 13 12 18 21 25 27
20 23 23 27 40 43 44 43 45 46 46 45 43 40 39 39 41 38 37 35 33 31 28 32 37 37 36 37 38 37 34 32 30 29 26 20 12 15 17 19 21 24 21
19 17 22 25 37 44 43 46 41 41 42 41 39 37 39 37 35 33 31 31 27 23 25 30 29 29 33 35 33 33 35 35 32 24 17 16 16 16 17 20 18 15 17
15 12 17 26 34 40 40 43 46 41 38 38 37 35 33 32 28 34 30 27 24 29 31 31 28 24 18 14 16 17 18 17 16 17 16 15 18 19 18 12 11 13 12
11 17 15 20 28 26 30 36 37 39 40 37 33 33 30 31 29 31 31 31 32 39 35 28 21 17 12 8 12 17 17 18 20 20 18 19 18 17 15 14 13 12 11
3 9 13 18 26 27 29 31 33 36 33 35 36 31 34 35 30 24 21 23 25 22 24 22 17 14 16 17 19 17 16 19 26 23 21 15 16 15 14 13 14 13 16
3 3 4 14 20 29 31 26 32 35 33 33 37 35 33 32 29 27 25 22 20 22 23 23 19 19 17 16 18 13 22 26 27 22 15 15 18 18 13 12 16 17 18
5 7 2 11 22 19 24 24 25 33 33 30 31 31 26 28 19 15 9 16 18 19 21 23 23 12 13 14 39 54 44 28 16 12 11 11 11 10 11 15 15 16 15
4 5 7 9 10 17 18 20 20 23 29 26 22 20 21 19 15 17 17 20 21 20 20 22 21 17 19 30 24 27 25 21 17 14 11 14 15 16 17 18 20 20 19
1 5 4 7 16 15 14 15 19 22 29 30 23 22 17 10 13 17 20 20 18 18 17 20 23 25 26 25 18 18 17 17 16 18 20 19 16 18 19 22 23 23 24
4 4 6 9 8 16 26 27 21 16 24 26 25 20 19 18 17 23 26 24 21 22 21 21 20 19 17 13 10 14 18 21 19 19 19 18 18 20 20 20 15 12 14
9 7 7 6 11 12 20 20 26 25 24 27 28 27 29 29 28 23 22 22 20 17 13 9 8 7 8 10 11 11 12 13 14 14 13 14 15 17 18 17 17 16 17
19 16 15 13 12 12 12 19 21 22 22 21 23 17 10 10 17 20 14 10 8 6 7 7 5 3 3 4 5 7 7 8 9 9 11 14 13 14 15 17 19 20 22

GFSGL_850_spd_072.txt.gz
Wind_Speed
43 41 40 43 42 42 40 35 29 28 26 25 20 21 24 20 14 15 16 14 17 16 15 15 17 20 20 17 13 13 10 14 15 16 14 14 15 16 18 19 18 18 20
44 44 42 42 44 43 44 42 36 33 30 29 27 21 25 24 18 15 16 17 16 17 15 14 14 16 18 23 19 15 15 13 16 19 17 15 17 18 17 17 14 17 19
48 47 45 42 45 48 46 46 43 38 34 34 33 29 23 26 22 17 16 17 17 18 17 16 14 18 17 15 22 20 18 17 18 21 23 22 24 22 21 17 18 17 21
46 49 48 45 43 46 48 47 46 45 41 37 34 33 30 28 25 21 19 17 18 20 21 20 18 16 17 17 17 18 20 22 21 23 26 27 26 22 21 21 23 28 29
45 47 52 48 44 42 44 49 49 48 47 44 41 38 33 31 31 30 27 24 22 21 23 25 24 21 20 20 20 20 20 22 22 23 24 25 25 24 23 26 31 29 28
42 47 50 49 47 46 43 43 47 51 51 49 48 44 43 39 35 32 30 27 24 24 24 24 24 24 24 23 23 22 21 21 23 24 25 25 26 24 23 24 26 30 36
33 41 44 47 46 45 46 43 44 46 48 53 52 49 47 45 43 40 35 31 29 27 27 25 25 24 23 23 23 22 23 23 23 24 26 25 26 24 25 27 30 33 34
30 27 39 46 46 42 43 43 41 41 43 46 50 53 50 48 45 43 39 36 32 30 28 26 24 22 22 22 21 23 24 24 23 23 27 28 29 28 28 30 34 35 31
23 24 23 39 43 46 44 44 41 37 39 42 45 46 50 49 44 41 39 39 36 34 31 29 27 26 23 21 23 25 25 25 24 25 28 29 29 30 31 33 29 27 29
25 27 23 18 38 49 48 46 43 39 35 37 41 43 45 45 44 41 40 39 38 37 35 33 31 30 28 27 27 28 31 29 27 28 29 30 30 29 25 23 23 26 25
32 33 28 32 36 47 54 52 48 42 39 38 39 38 39 40 40 38 36 36 38 38 38 37 34 32 30 30 30 33 33 29 31 32 27 23 22 22 20 19 21 21 19
12 36 35 36 39 38 46 51 49 46 43 42 42 41 39 38 36 36 35 35 34 37 39 37 35 33 31 32 32 33 32 30 30 28 27 25 25 22 20 20 19 17 17
31 29 28 35 29 36 43 49 52 49 47 47 46 44 42 40 38 35 33 33 33 36 36 35 33 32 33 33 32 30 27 28 28 30 31 29 25 20 21 22 17 16 16
18 22 25 26 30 35 46 45 49 51 50 51 48 47 42 41 39 37 36 34 32 33 34 34 34 33 33 33 32 30 29 29 29 28 29 28 24 23 23 16 15 16 16
21 18 23 22 33 31 39 42 45 47 49 51 48 45 42 41 40 36 35 35 34 33 32 34 37 36 36 36 36 36 36 37 38 36 33 28 24 23 19 17 16 17 19
24 19 19 21 24 34 30 39 43 45 49 48 45 43 39 37 33 31 31 30 29 26 28 32 34 35 34 34 36 37 38 37 36 35 36 31 25 20 17 16 18 22 18
17 19 18 16 19 26 31 39 41 45 45 43 42 38 38 36 31 29 28 27 25 23 31 32 31 30 30 29 28 28 29 28 26 27 25 21 19 18 17 16 20 20 19
17 18 20 20 18 21 29 37 41 42 43 41 39 35 34 34 33 28 26 30 32 31 32 33 32 30 27 28 24 18 12 11 12 13 14 16 18 19 22 22 22 20 18
16 17 19 19 21 21 26 30 31 33 34 37 37 39 38 34 39 33 33 33 32 33 33 32 32 31 28 22 21 16 13 8 6 8 12 17 19 16 22 28 22 19 17
14 13 20 20 21 24 24 28 28 31 32 34 34 32 37 39 35 38 34 27 22 23 26 28 29 31 28 25 23 19 18 14 11 17 22 20 26 32 44 50 24 18 17
13 11 12 14 20 16 19 24 29 32 34 33 34 34 34 39 36 35 31 31 30 29 25 24 26 26 28 30 24 24 25 28 24 15 20 32 34 38 30 28 21 19 16
12 12 10 9 11 20 25 23 25 27 33 35 33 33 32 37 33 31 30 27 26 27 25 27 29 29 27 26 27 32 33 35 31 21 21 23 24 16 23 24 20 18 19
7 12 9 8 11 15 19 17 17 17 24 29 26 29 33 31 31 32 30 24 22 23 23 23 25 26 28 28 29 29 27 24 19 21 24 21 18 19 22 19 20 20 20
3 5 3 6 1 8 10 17 17 16 24 29 34 35 32 29 29 31 30 28 26 23 21 19 19 20 23 26 28 26 23 18 17 20 22 21 20 21 19 20 21 21 20
1 5 6 5 10 10 9 2 12 22 22 20 31 29 28 26 25 25 25 26 25 24 23 24 23 18 16 14 17 19 22 23 18 20 19 18 14 14 15 18 19 18 16
7 5 7 8 8 11 15 16 17 19 21 22 25 26 26 21 19 18 15 16 18 15 15 15 14 14 10 9 8 10 9 8 9 8 8 9 9 9 9 11 13 14 16

GFSGL_850_spd_078.txt.gz
Wind_Speed
46 41 35 32 30 31 33 30 27 24 21 19 19 17 17 15 13 13 10 11 13 13 15 17 19 18 16 17 17 16 16 16 19 21 19 17 17 18 18 19 21 23 22
47 45 42 36 31 33 34 33 31 29 26 21 20 18 17 18 18 17 16 14 13 14 13 15 16 16 15 16 18 18 19 19 20 23 22 19 18 18 21 22 22 22 21
45 47 46 42 38 33 33 33 32 32 30 28 24 22 21 19 18 16 17 18 16 14 15 15 14 15 15 15 15 17 17 19 21 24 26 24 24 23 24 23 23 23 21
39 41 45 46 43 39 34 32 32 33 34 33 31 27 26 23 22 21 18 18 18 16 15 16 16 17 18 17 17 18 18 19 19 22 26 27 26 26 25 27 26 23 24
35 37 39 42 45 44 42 37 33 33 35 36 36 34 31 29 27 25 23 21 20 19 17 16 15 16 18 19 20 19 19 21 21 23 26 27 27 26 25 25 26 27 26
30 33 33 35 36 40 43 43 39 37 34 36 38 39 39 37 33 29 27 25 25 25 25 22 20 19 18 19 20 21 23 23 24 25 26 28 28 26 24 24 26 29 33
27 33 34 34 36 37 36 38 40 39 38 35 36 39 41 41 39 35 33 32 30 29 28 26 24 22 21 21 21 22 23 24 25 26 28 26 27 25 24 24 27 29 31
21 26 32 32 33 33 35 36 35 35 38 37 35 35 37 42 42 41 39 38 38 36 34 32 31 29 27 25 24 25 25 24 25 24 26 25 24 23 23 25 29 31 32
21 21 30 32 34 33 33 33 33 33 34 35 34 34 36 37 37 41 43 44 43 42 40 39 37 34 32 30 30 29 27 26 24 23 23 23 23 22 22 26 28 30 31
12 21 23 25 30 32 25 25 30 31 31 29 30 30 30 32 34 36 38 41 45 47 45 44 42 40 36 34 33 32 32 29 26 25 25 25 25 25 24 26 27 27 24
8 11 14 21 22 28 30 28 28 30 31 29 29 28 28 27 26 27 31 37 40 41 43 44 44 41 38 35 34 35 35 31 30 30 30 29 29 27 27 25 23 24 24
8 8 10 13 19 22 23 27 27 26 27 29 29 32 31 28 26 27 27 29 33 36 38 39 39 39 38 35 34 34 34 33 34 33 33 33 32 28 25 21 19 22 24
8 8 7 9 13 16 25 24 22 24 27 28 33 34 34 32 29 26 25 26 26 31 34 36 37 37 35 34 33 32 32 34 34 35 34 35 31 27 24 21 20 20 22
12 11 17 15 11 14 18 21 28 33 30 31 35 33 29 30 30 29 28 27 26 28 29 29 32 35 36 35 35 34 35 35 35 35 35 35 31 29 27 23 23 22 21
18 15 17 15 19 17 19 24 32 32 32 36 36 32 29 28 24 24 25 25 26 25 25 27 32 36 37 38 38 37 37 37 38 37 37 36 33 30 30 27 27 22 22
23 22 19 19 16 23 23 22 24 31 34 35 35 34 31 29 26 23 21 19 19 18 22 28 31 35 37 38 38 37 37 38 38 37 37 37 37 35 34 31 29 27 25
28 24 22 20 20 20 21 20 24 22 26 30 33 28 28 25 23 23 20 16 15 19 26 30 32 34 35 36 36 37 37 38 36 34 33 33 34 35 36 36 34 32 31
30 28 26 25 22 22 21 21 19 22 20 19 24 24 30 28 24 23 24 24 26 25 26 30 32 33 34 34 34 35 36 33 33 30 29 30 34 35 36 37 35 34 32
30 29 26 28 24 24 24 22 22 21 22 22 23 21 26 29 28 28 27 31 32 32 31 32 32 33 36 36 33 34 34 31 31 29 27 32 31 29 31 32 31 33 32
28 28 26 25 24 24 25 26 23 23 22 24 20 26 25 24 26 27 28 34 33 33 35 34 35 35 36 37 36 34 34 32 31 30 31 32 29 28 28 25 25 27 28
25 26 27 26 22 21 21 24 23 24 24 24 26 24 24 21 25 20 22 30 33 36 39 40 39 39 38 38 38 38 35 33 32 33 31 31 29 27 25 23 23 23 23
24 24 24 22 21 22 21 18 22 24 23 25 27 28 21 21 26 26 27 27 29 33 36 36 38 39 37 37 35 31 35 35 35 36 34 34 33 33 29 27 26 29 33
23 21 20 19 19 20 21 19 18 21 23 20 22 23 22 25 26 26 27 28 30 31 32 32 31 33 32 33 33 30 31 33 34 35 35 35 35 33 30 28 30 29 30
18 16 15 15 15 15 13 14 16 17 19 18 18 19 20 22 21 22 24 25 27 29 27 27 27 27 27 27 27 29 28 29 30 30 31 31 30 31 32 31 27 27 25
13 11 11 11 11 11 11 9 11 13 14 14 15 17 18 18 18 19 20 22 23 23 22 19 16 14 11 12 12 14 19 21 23 25 25 25 25 25 26 27 25 27 26
3 4 6 6 6 5 5 3 2 6 9 9 10 12 13 14 15 16 18 19 19 19 19 17 14 13 11 9 8 7 11 13 13 15 17 20 21 20 18 18 20 20 17

GFSGL_850_spd_081.txt.gz
Wind_Speed
36 38 37 35 31 25 26 28 26 25 22 19 17 15 13 11 11 11 9 8 8 10 12 13 15 15 14 15 14 15 15 15 13 14 19 19 18 16 16 18 20 23 23
34 34 38 38 35 32 27 26 29 28 26 23 20 19 16 14 16 14 12 11 10 9 10 12 13 14 15 14 14 15 16 16 17 20 18 18 22 20 19 20 20 21 24
33 37 38 41 41 37 33 28 29 31 31 29 26 22 21 18 18 18 15 14 14 12 11 13 12 13 14 13 13 13 13 15 17 19 18 18 22 21 21 21 22 22 21
27 30 31 36 40 41 38 34 30 30 32 34 32 29 25 22 22 20 18 16 13 15 13 12 14 15 14 14 14 14 15 16 16 19 16 17 17 18 20 19 20 20 23
26 29 30 32 30 33 39 40 36 33 32 32 34 35 32 28 27 26 22 20 18 16 16 15 14 13 13 14 16 17 17 17 15 16 18 18 17 16 17 17 18 19 21
23 26 26 29 30 30 32 34 38 38 36 35 35 36 37 37 34 30 26 25 24 23 22 21 19 18 17 16 16 16 17 19 21 19 19 20 22 19 16 16 19 18 19
19 22 26 26 28 30 29 31 34 35 37 38 38 37 38 39 39 37 33 31 29 27 25 24 23 22 20 19 17 17 18 19 21 22 25 25 24 20 20 21 20 21 22
17 21 24 24 26 27 30 32 32 31 33 35 38 39 39 39 39 39 38 37 37 35 33 31 28 26 25 23 22 23 23 22 23 23 25 25 23 20 19 21 24 25 27
9 17 22 24 25 25 29 31 30 31 33 35 35 36 39 40 38 37 38 40 41 42 39 38 36 33 31 27 27 28 28 28 26 25 24 24 22 21 21 23 25 19 22
9 9 18 21 26 27 28 28 29 30 31 32 35 35 35 38 39 38 36 37 41 43 44 44 41 39 36 33 32 32 34 32 29 27 27 26 26 26 25 26 26 26 22
14 10 9 15 22 25 27 29 28 29 28 28 32 34 35 36 37 37 36 39 41 40 41 42 42 41 38 38 37 36 36 31 31 31 31 31 30 30 29 29 28 28 24
18 13 8 9 11 15 25 28 28 27 25 27 27 30 33 35 36 35 35 35 36 38 38 39 41 40 37 36 36 37 34 31 33 34 30 29 29 28 27 26 27 28 27
19 20 14 8 7 9 19 18 25 28 28 29 29 31 33 33 35 34 34 34 33 35 33 33 35 35 34 36 34 32 30 32 35 35 34 34 32 32 31 29 29 28 26
25 23 23 19 14 12 11 17 17 22 27 25 24 29 31 32 34 36 38 37 35 34 33 31 30 30 31 34 33 32 33 35 35 35 36 35 33 33 34 31 30 26 27
27 26 23 25 20 17 18 14 18 18 26 30 32 29 31 37 34 33 32 34 35 34 30 32 33 34 34 34 35 33 33 35 38 38 37 36 33 33 35 31 31 28 25
31 26 24 24 24 21 20 21 19 21 19 27 36 34 36 39 37 33 31 27 28 26 25 31 32 34 36 36 37 35 35 35 33 33 33 35 35 33 32 31 31 32 28
31 29 26 25 25 26 21 21 24 25 22 26 32 35 41 43 41 36 29 26 24 23 28 29 34 35 36 35 35 35 35 30 29 31 31 31 31 33 33 33 28 28 28
31 30 30 27 26 25 25 22 21 25 31 28 26 30 33 38 37 31 29 25 31 29 30 32 32 32 33 32 32 33 33 31 31 33 31 29 29 30 29 31 31 32 32
30 29 28 28 27 26 26 22 20 24 27 30 29 28 26 29 28 30 33 33 35 36 37 35 34 32 29 28 27 28 29 30 30 30 31 32 31 31 32 33 36 36 35
27 28 27 27 27 26 25 25 21 24 25 28 28 28 23 22 24 25 28 30 34 37 35 36 35 34 33 32 31 30 31 31 32 31 31 32 32 31 32 32 32 29 28
27 27 26 25 24 25 24 25 26 23 25 28 27 26 24 24 23 20 24 27 28 25 32 35 37 37 35 31 31 30 31 32 33 32 32 33 31 32 31 32 31 31 27
24 26 27 25 23 24 24 24 24 25 24 27 28 25 24 23 23 23 25 28 27 23 29 34 37 40 38 33 33 35 34 34 35 35 33 32 31 32 31 31 28 26 27
23 24 24 24 24 24 23 22 24 24 23 25 26 26 24 22 20 18 20 24 28 28 34 40 31 28 29 28 28 32 33 30 32 30 33 33 34 35 36 35 32 30 33
19 19 19 20 20 20 21 21 21 22 22 21 24 22 20 18 17 16 17 18 20 20 21 23 23 23 24 24 25 24 26 26 26 28 29 29 27 28 26 25 26 27 30
16 14 15 17 18 18 18 19 18 20 18 19 20 18 16 15 16 14 14 14 17 20 20 19 20 19 18 18 18 20 19 23 20 19 18 21 21 22 22 24 26 28 30
11 9 10 11 12 13 13 13 13 13 13 16 16 14 12 11 12 12 11 12 11 12 14 14 14 14 12 12 11 12 12 14 14 14 13 12 12 14 15 16 16 14 14

GFSGL_850_spd_084.txt.gz
Wind_Speed
22 23 25 25 26 23 22 21 20 18 16 17 17 15 13 13 12 12 12 10 10 11 12 12 12 13 11 11 11 10 10 10 12 13 12 13 15 14 14 16 16 17 15
21 23 24 26 24 23 24 23 21 21 20 18 18 16 15 15 15 14 13 11 11 10 11 11 13 12 15 16 13 13 12 13 14 16 15 15 15 15 15 17 15 14 16
20 21 24 23 23 30 28 26 24 22 21 21 19 20 18 16 17 18 17 15 14 13 12 12 12 13 14 12 13 12 11 11 12 13 14 13 14 14 14 15 15 15 14
18 18 20 27 30 30 29 32 27 26 24 24 26 23 20 18 19 19 20 19 16 15 15 15 13 14 14 13 14 13 13 12 13 14 14 14 13 13 13 14 15 14 16
13 18 19 19 19 23 24 24 33 32 30 27 26 28 27 23 21 21 20 21 20 18 16 17 16 15 16 15 14 14 14 13 13 14 15 15 14 13 14 15 16 16 17
13 14 16 18 19 20 20 22 25 30 33 32 31 28 29 27 27 28 26 22 21 21 20 19 19 20 18 17 17 18 18 17 16 16 16 18 19 17 15 16 16 17 17
9 7 11 17 19 19 20 21 23 27 30 33 34 32 33 33 32 33 34 30 24 24 24 22 22 22 24 23 22 21 21 20 21 20 22 21 22 18 17 17 16 18 19
4 11 15 15 15 16 19 22 22 22 25 28 31 35 36 37 35 34 35 36 35 33 30 27 26 25 25 24 23 22 23 22 23 23 25 24 23 21 20 17 19 20 19
12 8 10 19 17 18 19 20 22 24 24 25 26 29 33 38 38 37 35 36 37 42 40 40 36 32 33 32 30 26 25 25 23 26 27 27 27 23 22 23 21 18 21
16 15 13 11 14 16 14 20 20 23 24 23 24 26 29 34 38 39 38 37 32 34 39 42 45 45 42 39 37 36 36 32 25 24 25 30 29 27 26 27 27 22 22
18 17 17 16 14 14 18 18 20 25 26 26 25 26 28 29 34 38 38 39 38 34 34 34 35 39 41 44 44 43 42 35 27 27 26 26 26 24 22 24 26 27 23
21 21 19 18 16 14 14 18 20 22 25 26 28 28 25 29 33 36 38 39 39 38 39 34 33 35 38 39 39 41 41 40 33 32 30 29 27 26 24 24 26 29 25
22 24 24 21 21 18 19 13 15 17 21 26 28 27 26 26 30 28 33 37 38 39 40 37 35 35 36 39 41 38 34 34 35 32 33 31 29 27 27 27 28 29 31
23 24 24 26 25 23 20 18 18 13 15 18 19 24 29 27 25 24 26 30 34 40 41 41 40 39 35 33 32 35 35 36 32 30 30 30 28 27 26 24 24 23 24
23 22 23 21 22 28 24 19 21 20 18 19 17 20 23 25 21 22 23 25 27 30 39 41 37 35 36 32 30 29 27 30 37 32 30 29 28 27 27 25 26 25 25
23 22 21 21 21 22 28 29 28 32 25 25 24 24 28 29 31 32 35 33 31 32 33 32 33 32 33 30 29 29 28 29 28 25 27 28 29 29 28 27 26 26 26
23 22 23 22 21 22 23 24 29 31 31 27 27 24 27 35 32 35 38 40 39 33 33 31 30 33 33 31 34 34 33 30 28 28 29 28 27 27 27 28 27 27 27
22 24 25 23 22 22 22 24 26 28 33 33 26 22 24 30 33 38 42 42 35 31 30 36 33 31 31 32 36 32 28 26 25 27 27 26 25 25 26 27 27 28 27
24 26 21 22 23 24 26 27 28 31 34 33 35 24 23 26 34 32 33 35 30 31 34 47 37 31 26 27 26 29 28 28 27 29 30 29 30 26 26 26 26 28 29
23 26 28 28 26 25 26 27 28 29 30 29 30 28 23 26 29 25 29 26 23 29 27 32 35 33 27 28 31 31 32 32 30 29 29 29 29 29 34 34 34 33 32
21 22 22 24 27 26 25 25 26 26 29 28 29 29 29 26 29 27 25 23 23 24 34 37 30 30 26 29 30 32 32 31 31 32 32 32 31 30 30 32 33 34 31
21 23 23 22 24 25 27 27 26 23 25 29 31 31 29 27 26 30 25 25 26 27 28 29 35 38 36 33 31 31 31 31 30 32 33 35 35 34 32 31 32 35 32
22 21 23 26 25 26 28 28 27 26 28 30 31 31 29 26 25 26 27 25 26 31 28 33 38 36 33 26 29 30 25 27 30 33 38 38 37 33 31 31 31 33 31
20 21 23 24 27 28 29 30 29 30 31 30 29 30 28 25 25 23 23 24 23 25 27 30 32 35 30 30 29 27 25 26 31 40 34 36 35 33 29 27 29 28 27
20 21 20 20 22 26 27 28 29 29 29 27 26 25 25 24 23 20 21 23 22 22 22 20 21 22 22 22 24 26 28 31 27 24 24 26 24 23 20 21 22 24 25
20 19 17 17 17 19 21 23 24 24 24 23 23 23 23 23 20 17 18 19 17 16 15 15 16 16 17 17 16 17 16 17 19 16 14 15 15 15 16 17 17 18 18

GFSGL_850_spd_087.txt.gz
Wind_Speed
18 18 19 19 19 17 18 16 16 18 15 10 7 15 10 10 10 11 13 7 10 11 14 10 12 16 11 10 10 11 11 11 13 14 13 13 16 21 19 20 17 16 17
19 17 18 18 18 18 18 17 16 16 16 16 14 15 14 14 14 13 12 12 12 11 11 12 13 13 15 16 15 13 12 13 12 17 17 17 16 17 20 22 16 15 14
22 20 18 18 18 20 20 18 18 17 16 16 17 18 15 15 16 16 16 14 14 13 12 12 13 14 17 15 14 14 13 13 12 12 15 14 15 15 16 16 18 16 15
11 19 20 18 19 19 19 20 18 19 18 17 18 20 18 17 16 16 17 18 18 17 16 15 15 16 17 16 16 16 16 16 13 14 14 14 13 13 14 14 15 15 16
12 8 7 14 17 18 20 19 24 22 22 21 20 21 23 21 20 21 20 19 22 21 18 17 18 19 19 20 15 16 15 16 13 14 15 15 13 13 12 14 17 17 17
11 12 10 10 10 14 15 18 22 26 29 26 25 25 24 23 24 25 24 20 23 23 20 21 20 21 23 21 19 18 21 20 22 18 17 17 20 19 15 16 16 17 20
6 9 17 19 18 19 18 19 19 20 22 28 31 28 29 30 26 28 30 30 26 23 23 24 19 21 24 24 23 24 24 24 26 24 25 23 22 20 21 22 18 18 21
9 6 13 13 15 18 21 20 21 24 24 24 27 31 32 31 31 30 31 33 34 34 31 26 28 29 27 22 26 25 27 27 28 28 29 29 27 25 21 20 21 22 22
16 15 11 9 15 18 19 18 18 20 23 28 27 27 30 32 33 33 33 34 34 37 38 38 38 32 33 31 31 28 29 30 25 27 28 29 28 26 26 26 24 21 25
13 14 13 15 14 13 14 18 23 21 21 25 25 26 29 30 31 32 35 34 31 34 35 38 40 43 44 40 38 38 40 41 32 29 29 29 29 31 30 30 31 28 25
13 13 14 14 16 15 14 15 20 23 24 20 24 27 28 29 30 31 33 33 32 32 33 33 33 34 35 38 42 44 46 41 34 32 33 32 30 29 29 28 27 26 27
16 16 15 15 16 14 18 16 15 18 21 25 23 25 27 31 30 31 35 35 34 34 35 33 33 33 34 35 35 36 35 34 37 38 38 36 33 31 28 28 31 31 31
19 18 18 18 17 18 19 18 14 17 16 16 16 20 21 24 27 27 29 30 32 33 37 39 36 35 37 35 35 36 34 33 36 39 41 42 37 34 32 31 30 28 28
21 22 21 20 20 20 18 16 15 15 15 17 18 15 19 17 18 23 26 27 25 27 30 32 37 42 41 41 37 36 36 39 40 40 38 37 36 32 32 30 30 29 29
23 23 22 21 21 21 20 20 18 20 20 22 22 24 26 27 21 17 19 21 25 19 22 21 24 27 35 43 40 39 34 33 30 34 35 33 32 31 31 30 30 29 28
19 21 22 22 22 23 23 23 23 28 28 29 29 29 30 32 30 26 28 27 29 32 31 32 28 24 29 32 31 32 32 34 32 30 28 30 33 32 31 30 30 29 29
17 20 22 22 23 24 24 25 26 24 27 29 29 30 28 33 33 32 27 24 25 30 33 30 35 37 32 30 32 34 33 31 29 27 30 31 29 28 29 31 31 29 30
19 22 26 23 24 26 26 27 27 26 26 25 25 26 32 30 31 33 32 29 27 27 35 38 38 39 37 32 36 36 34 29 32 36 35 33 32 31 29 29 29 29 30
21 20 21 23 24 27 29 28 28 28 27 28 26 24 23 25 31 34 32 26 27 29 31 35 38 36 38 41 41 36 35 36 33 33 33 33 31 32 29 28 28 29 29
24 25 25 23 26 27 27 27 28 29 28 28 26 25 22 20 25 30 28 27 24 27 29 32 31 33 41 40 35 35 34 38 35 32 32 31 30 31 31 33 35 34 31
22 23 25 28 27 27 28 27 27 28 29 28 28 23 25 29 27 31 35 33 29 27 28 28 34 34 35 33 29 32 36 37 35 33 31 31 30 31 31 30 30 30 30
23 25 27 27 28 29 32 31 29 31 27 28 28 26 27 29 27 31 35 35 33 30 28 28 30 38 41 36 34 36 33 32 32 31 30 29 27 27 29 32 30 30 31
21 21 22 25 26 29 32 32 34 33 29 28 28 26 24 23 25 30 32 35 34 33 31 27 31 29 34 36 35 32 29 29 31 35 35 31 28 27 31 34 31 29 28
20 20 21 23 24 28 31 32 32 36 37 34 30 29 31 34 37 35 33 33 34 33 31 27 27 30 30 33 35 35 33 30 37 35 32 31 27 26 29 31 29 24 25
22 21 21 21 22 23 26 29 31 35 37 37 38 38 37 37 36 34 33 31 31 31 29 26 26 27 27 30 32 33 33 35 39 35 28 24 22 21 22 21 22 18 20
22 25 23 23 22 23 24 25 27 28 30 33 34 36 35 36 36 33 32 29 26 26 23 23 21 21 20 18 20 23 26 26 24 23 24 23 21 21 20 18 16 16 19

GFSGL_850_spd_090.txt.gz
Wind_Speed
22 23 20 19 18 20 22 20 18 15 7 8 9 15 11 8 10 8 10 9 13 8 12 10 14 12 17 9 8 12 12 13 16 19 18 20 21 21 21 21 23 19 17
22 24 24 21 18 17 19 20 15 17 21 17 9 9 13 12 13 12 8 9 9 8 8 16 14 10 12 20 17 14 12 12 14 20 24 23 16 16 18 18 18 16 17
24 27 23 22 22 20 19 15 16 15 13 15 18 17 20 19 17 16 13 11 14 13 12 10 11 10 16 17 13 16 14 14 19 19 20 16 19 12 12 15 17 16 16
7 12 24 23 21 20 21 17 14 16 17 15 18 19 19 16 17 18 17 15 15 17 16 16 14 15 16 16 16 17 20 20 20 19 20 19 23 20 17 14 13 15 16
15 5 8 18 18 18 15 18 19 19 17 17 18 19 22 20 17 16 15 16 18 17 20 20 19 19 16 19 20 17 17 17 17 17 18 19 17 16 18 20 21 19 19
4 3 7 17 2 15 20 19 16 18 25 21 22 22 23 24 21 20 22 22 19 23 23 19 23 18 18 22 23 21 21 23 21 22 24 24 23 21 22 22 22 26 29
7 6 1 9 13 12 13 14 13 16 17 22 28 22 25 26 26 24 25 27 28 24 25 23 22 23 20 25 24 22 21 22 26 26 29 28 27 23 25 27 27 26 26
14 13 11 6 9 10 16 17 17 17 16 19 20 24 31 29 30 28 28 30 31 33 33 30 26 26 22 24 22 24 26 26 26 27 29 29 25 22 22 24 25 27 28
15 15 13 10 8 7 12 14 18 24 23 21 25 27 27 29 32 30 29 30 33 35 36 37 36 36 34 30 30 32 34 31 29 30 27 27 28 26 24 27 29 30 35
10 11 12 13 13 11 10 10 15 20 23 20 21 24 27 30 30 30 29 32 35 36 36 38 38 39 37 37 37 35 39 41 37 37 34 33 31 32 29 27 31 32 32
10 10 11 12 12 13 13 12 12 13 18 24 24 22 22 25 28 27 28 29 31 32 35 36 31 33 33 30 29 33 44 45 44 41 39 38 36 35 34 29 25 27 31
13 13 13 13 14 14 17 14 14 14 16 16 19 24 24 22 21 24 29 30 29 31 32 32 33 29 28 34 36 36 33 31 32 36 38 37 36 35 32 28 30 32 33
17 18 17 17 16 16 17 19 18 11 17 18 20 16 15 20 20 20 22 25 31 34 35 35 34 34 40 39 37 30 30 36 37 37 39 40 40 42 40 38 38 38 39
14 17 19 19 17 16 16 13 15 17 14 13 16 19 17 20 21 20 13 18 23 27 30 32 34 36 37 38 42 43 42 36 37 41 43 44 43 43 42 37 34 32 35
14 13 15 17 18 18 17 18 18 17 20 25 25 27 29 27 23 21 25 25 24 25 31 30 27 26 27 32 33 35 42 45 42 41 41 41 39 37 37 32 30 33 34
17 15 15 18 17 16 19 21 22 22 21 22 25 27 29 28 26 26 26 26 27 30 33 34 33 34 30 26 28 26 27 29 37 39 35 36 35 32 27 31 29 31 33
16 18 19 20 18 19 18 21 25 25 24 24 25 24 28 31 29 26 26 29 30 30 33 33 33 36 33 30 29 34 36 37 38 39 43 39 37 33 30 27 25 33 33
18 20 18 17 19 20 22 23 26 27 26 23 22 22 24 29 32 27 28 29 31 31 32 34 34 29 31 36 34 33 37 38 36 37 34 35 33 33 32 34 31 29 29
19 19 21 23 23 23 24 23 26 27 28 30 30 29 26 24 26 27 28 31 29 29 30 32 30 27 28 29 33 37 38 41 41 38 42 37 32 38 43 44 35 28 27
19 20 22 21 23 23 25 30 29 28 28 30 28 28 27 24 24 23 22 25 29 29 29 31 33 32 30 31 32 35 36 36 38 37 38 40 36 37 41 40 34 37 35
20 21 22 24 24 26 27 28 30 35 34 33 35 32 25 26 32 36 33 29 33 33 31 30 33 35 34 32 32 31 38 37 33 35 36 35 33 39 39 35 32 29 28
18 19 20 21 24 25 26 29 31 31 34 39 41 37 29 30 25 26 26 28 36 35 32 33 33 34 37 35 32 36 34 42 38 38 36 31 33 30 39 34 30 26 24
18 20 21 21 22 25 26 27 29 31 31 33 36 36 35 37 35 33 31 34 37 38 38 35 35 35 35 36 34 34 36 37 39 38 38 31 23 19 33 34 27 25 24
22 22 24 26 26 27 26 26 28 30 31 33 35 34 34 40 41 39 37 44 44 40 39 38 35 36 35 34 33 35 34 37 37 35 34 31 30 30 29 27 26 28 31
20 24 27 30 29 29 29 28 26 27 29 30 30 31 33 37 41 43 44 45 42 39 38 38 36 34 34 34 33 35 34 35 39 38 37 35 32 31 30 32 32 31 27
18 23 28 30 30 30 29 29 28 27 26 26 26 26 30 33 36 37 38 38 37 36 35 35 35 32 31 31 31 32 32 32 34 34 33 32 33 33 31 28 26 26 26

GFSGL_850_spd_093.txt.gz
Wind_Speed
22 22 22 21 20 19 18 18 18 14 8 13 9 10 9 10 6 4 7 9 10 6 9 11 14 15 14 14 9 12 9 11 13 17 18 19 23 25 24 19 14 17 16
20 23 22 22 21 22 21 20 21 19 18 16 11 8 13 10 9 9 8 9 8 9 8 15 14 15 13 20 17 14 14 14 15 18 19 19 16 12 14 15 16 17 17
3 19 23 22 19 19 21 26 24 21 23 21 21 19 14 15 12 14 12 9 12 12 9 8 9 12 11 13 14 19 22 21 17 16 16 18 16 20 24 18 15 11 13
30 15 17 20 23 20 18 17 17 19 19 18 17 17 18 15 16 19 16 13 12 15 16 14 13 12 11 11 11 12 15 18 19 20 22 23 21 19 15 20 18 19 22
20 19 11 12 19 22 16 19 19 18 16 16 15 19 19 19 17 16 16 15 13 12 15 18 18 17 16 17 18 18 17 16 15 17 17 17 18 21 24 24 26 27 25
13 15 20 22 18 12 23 17 24 20 20 19 20 19 18 23 21 17 14 15 18 18 18 16 17 18 21 19 17 20 20 19 20 21 21 22 22 23 22 23 25 27 30
10 9 8 17 15 19 26 24 21 23 23 22 24 23 23 22 21 24 21 24 24 24 24 24 22 19 19 22 22 22 25 24 23 23 25 25 27 25 22 20 20 23 26
17 14 10 8 11 13 13 16 20 19 16 18 20 21 29 29 25 24 23 26 29 26 26 28 28 28 25 23 21 25 25 24 25 25 27 26 24 20 21 22 25 27 30
12 12 11 10 7 2 4 10 13 14 16 18 20 20 21 22 23 25 28 28 27 30 33 32 32 33 32 31 31 31 31 33 32 32 33 34 32 28 24 26 28 28 35
7 7 6 7 6 6 6 5 4 6 11 18 22 20 18 18 21 24 25 26 30 31 31 33 34 35 36 36 37 38 40 40 38 37 38 38 37 37 34 35 36 36 35
6 5 4 3 4 5 7 8 8 7 6 7 9 12 16 17 19 18 21 24 24 28 29 31 31 30 30 31 28 29 32 32 34 36 36 37 36 33 31 30 29 28 29
7 8 9 9 8 8 7 8 9 9 8 9 12 13 10 11 13 17 16 18 23 28 29 31 31 32 31 30 28 28 33 38 39 41 41 40 38 36 35 33 33 32 33
11 10 8 10 11 10 10 9 8 9 12 9 5 9 12 10 12 14 17 19 19 22 26 32 34 36 38 38 36 39 38 36 34 34 39 41 39 38 39 39 39 39 40
10 8 7 6 7 7 8 10 11 13 14 13 15 17 20 20 18 17 17 16 21 22 20 22 25 29 29 31 35 38 40 44 46 46 45 44 42 40 40 41 41 40 40
11 8 7 9 9 10 8 9 9 9 13 18 20 20 20 23 21 21 20 20 22 22 25 27 28 29 32 33 34 35 34 35 35 36 41 46 46 44 43 41 40 36 36
14 15 15 16 14 14 16 18 19 15 14 17 18 18 20 22 22 20 21 21 23 25 26 26 26 28 31 31 32 34 34 31 32 34 33 33 35 35 35 33 33 33 32
15 17 18 18 18 20 20 21 24 24 24 24 21 18 16 18 18 18 20 22 25 26 27 27 29 29 30 32 33 33 36 35 32 30 38 39 37 35 37 35 29 29 30
15 15 16 20 22 22 21 22 25 28 31 31 28 27 25 22 25 25 22 23 27 27 29 28 28 27 27 26 27 29 30 31 35 37 33 35 37 38 34 37 37 38 42
17 18 19 21 20 19 20 22 24 26 29 33 36 33 28 26 24 22 22 21 23 27 25 27 22 23 23 28 29 30 33 36 30 32 35 35 38 38 35 38 38 37 35
19 18 19 20 21 22 25 24 24 27 30 30 33 36 36 31 28 25 23 23 22 24 26 31 34 33 32 31 31 33 33 33 35 32 32 35 30 30 32 34 35 33 37
21 23 24 24 24 24 24 25 27 28 30 33 34 34 34 34 39 37 32 30 25 27 32 37 43 41 38 36 34 33 34 34 34 35 36 29 36 35 32 32 36 37 34
21 23 24 26 27 27 27 27 27 28 30 32 34 34 30 31 33 34 38 38 34 31 30 34 38 36 36 38 38 35 34 34 34 33 38 38 37 36 31 30 29 35 31
22 21 22 24 27 29 29 28 28 28 29 29 31 33 33 34 34 34 38 41 43 45 44 42 41 41 42 40 38 38 36 34 34 32 33 38 39 35 33 31 27 24 22
21 17 18 22 25 30 31 30 31 31 30 30 29 29 31 32 33 34 37 36 39 46 51 52 50 50 48 43 40 38 37 34 33 33 33 36 35 33 35 33 30 27 23
20 17 19 21 25 27 32 32 30 32 32 31 30 29 30 29 29 31 35 36 38 39 43 44 42 42 42 40 39 38 37 35 33 31 32 33 35 34 33 34 32 31 28
19 18 21 23 24 28 29 34 33 32 32 30 29 29 26 27 28 27 27 30 34 36 36 36 34 33 35 36 36 35 35 35 33 29 31 31 33 32 32 36 34 30 27

GFSGL_850_spd_096.txt.gz
Wind_Speed
24 23 23 23 19 16 20 17 14 14 12 11 10 12 11 10 11 10 10 10 10 9 13 16 15 16 14 14 12 11 10 11 11 13 15 17 17 16 12 11 9 13 14
26 26 24 21 20 18 18 19 16 16 14 10 12 10 9 11 11 10 8 9 12 9 10 12 12 16 17 18 21 18 16 17 17 19 20 20 20 13 18 16 14 14 13
22 24 25 22 22 22 21 21 20 19 19 18 17 15 12 10 15 13 11 11 12 13 12 11 11 12 15 14 14 14 19 21 22 24 24 25 25 18 19 13 18 18 17
20 13 16 17 21 22 21 22 22 22 20 20 21 21 20 18 15 16 15 14 15 15 14 14 13 11 10 10 10 10 10 12 14 18 21 22 21 19 16 21 23 23 23
31 35 31 11 13 22 23 23 24 23 24 23 22 19 17 17 17 15 16 17 18 17 17 15 17 17 16 15 14 14 15 15 16 17 17 18 18 17 18 21 25 24 23
15 22 22 11 17 15 17 11 16 25 23 22 22 20 19 19 19 17 17 19 18 16 17 17 16 16 17 18 20 20 17 18 19 20 20 21 21 20 20 22 21 21 27
9 16 12 13 13 17 19 23 24 20 23 22 22 23 22 22 20 20 20 22 22 22 23 24 22 21 19 18 18 20 22 23 22 24 27 27 27 22 21 20 20 23 27
13 10 9 12 19 13 22 25 22 22 20 22 23 23 24 24 25 23 23 25 27 28 29 28 27 26 25 24 25 25 24 23 25 26 26 28 29 28 27 27 27 27 30
15 14 10 7 6 6 11 15 20 20 21 24 21 19 19 19 19 23 29 29 30 30 28 29 32 33 31 29 29 31 32 31 29 29 32 33 33 32 31 30 30 32 36
8 8 7 6 6 6 4 2 1 3 8 14 16 16 15 18 25 24 26 26 29 29 27 29 31 31 30 30 31 33 36 36 35 34 31 31 29 29 29 31 32 34 35
1 2 3 3 3 2 1 1 2 1 1 2 3 4 5 9 12 14 16 17 20 25 25 27 27 29 30 31 31 32 33 32 31 31 32 30 30 29 28 26 26 28 30
6 6 7 6 6 6 5 3 1 0 1 3 3 3 5 6 9 11 13 16 18 18 21 22 27 29 30 30 31 31 32 30 31 32 36 39 39 38 36 34 31 31 32
7 7 8 7 6 5 6 6 5 3 2 3 5 6 7 9 12 14 13 13 15 19 21 22 25 25 25 29 29 31 36 39 38 40 42 42 40 38 36 35 35 36 38
5 4 5 5 6 6 6 6 5 5 6 7 11 13 14 15 14 13 15 15 16 18 18 20 21 24 23 25 28 26 25 27 28 31 36 40 40 41 44 45 45 41 40
6 5 5 6 6 7 8 10 10 9 10 11 11 13 16 17 17 18 18 19 19 20 22 21 21 22 21 22 23 23 24 25 28 31 31 31 32 31 35 34 36 38 40
7 8 8 9 9 10 11 9 10 16 19 19 17 18 19 16 18 20 23 22 22 22 25 24 24 24 25 25 25 24 23 24 24 25 27 29 30 31 32 31 31 33 35
9 11 12 13 14 15 15 17 19 13 14 17 21 26 27 27 26 25 24 26 25 27 27 28 28 27 26 26 25 23 21 20 19 19 21 25 30 33 31 30 32 34 36
9 10 12 14 15 16 18 20 22 24 26 25 23 23 24 26 30 32 31 31 32 31 33 29 25 28 27 26 26 27 28 28 27 28 29 30 28 30 31 31 33 37 36
10 11 13 15 16 18 19 20 22 24 26 29 29 28 28 30 31 30 30 30 30 29 26 26 23 25 26 30 31 31 32 33 34 33 31 29 28 28 30 32 31 28 32
10 12 14 15 16 18 20 22 23 25 26 28 30 32 33 35 36 34 31 28 31 33 30 26 27 32 35 37 38 37 37 37 36 35 34 30 27 28 35 31 33 30 29
10 12 12 14 16 19 21 23 24 26 27 29 30 30 30 33 36 37 39 34 29 27 32 35 34 34 36 37 39 39 39 38 38 38 36 34 30 30 31 38 28 26 29
10 13 12 14 16 18 22 25 27 28 28 29 30 30 30 30 32 33 33 34 37 36 37 38 39 44 44 41 39 42 42 42 40 40 39 37 35 32 31 34 37 34 33
11 15 13 14 16 19 22 26 28 31 32 31 31 32 32 31 32 32 35 35 34 36 34 33 37 42 49 46 46 46 47 47 46 44 42 40 37 35 32 31 32 33 33
13 16 14 14 18 20 25 29 29 32 34 32 32 32 31 31 32 33 32 33 32 34 37 38 42 44 48 49 49 50 55 52 50 46 42 38 38 36 33 32 31 33 32
14 15 15 15 18 23 25 27 29 32 35 33 31 31 30 31 30 30 29 32 34 33 32 32 36 40 40 40 40 42 47 49 45 40 38 36 36 36 36 34 32 34 35
15 17 19 18 19 22 25 25 28 31 35 33 30 30 30 31 31 30 29 27 30 31 33 34 35 36 36 35 35 35 35 35 34 32 33 35 35 35 36 36 33 34 35

GFSGL_850_spd_099.txt.gz
Wind_Speed
22 24 24 25 20 16 16 16 16 13 12 10 11 12 12 9 10 11 10 11 11 10 13 16 16 16 16 12 10 12 12 12 13 15 16 18 18 18 18 13 12 12 13
22 22 21 24 23 21 18 18 18 16 15 11 11 11 11 11 10 10 11 10 10 11 10 13 12 13 13 12 12 14 15 16 17 20 22 23 24 24 24 20 13 14 19
23 22 23 21 20 20 19 18 18 18 16 14 13 12 12 10 12 12 12 11 10 10 12 12 9 10 12 13 14 13 10 11 13 19 22 26 24 20 19 19 17 19 21
13 20 17 16 18 21 22 21 20 21 19 17 18 17 18 18 16 15 16 16 14 13 12 12 13 13 12 10 12 13 11 11 13 16 17 17 17 15 16 18 19 19 21
24 19 19 12 8 12 20 24 22 22 21 21 19 19 18 18 17 18 17 18 17 16 14 15 13 12 14 14 16 15 15 17 17 19 19 18 17 17 17 20 22 22 20
17 24 24 26 23 20 14 13 12 21 20 19 22 22 20 20 19 18 17 18 18 19 17 14 13 13 15 14 15 17 18 21 22 22 23 23 24 22 22 23 24 26 30
8 9 13 15 14 6 18 23 20 15 12 15 21 23 21 20 21 22 22 22 23 21 20 20 20 19 19 20 19 19 20 19 20 23 25 25 26 23 24 26 26 27 30
15 13 11 10 15 11 11 16 19 20 20 17 19 22 21 20 23 25 25 24 25 26 25 25 25 25 24 23 24 25 25 25 24 24 27 28 28 28 28 29 29 31 32
11 10 7 5 9 17 11 6 11 18 19 15 16 20 21 22 25 27 24 24 27 28 28 28 27 27 27 27 28 31 32 32 29 29 31 32 32 31 30 30 29 30 33
8 8 6 6 4 2 6 7 4 4 4 12 21 18 16 15 17 17 20 23 22 24 26 25 26 25 27 29 30 30 32 33 33 34 33 32 31 30 27 27 27 29 30
1 1 1 2 2 2 1 3 1 2 3 2 4 3 1 1 4 7 10 11 14 17 18 20 21 21 24 26 27 27 28 30 29 31 33 34 34 33 32 31 31 31 32
6 7 7 7 7 6 6 6 5 5 4 3 3 4 3 3 5 6 7 9 13 16 17 19 20 20 19 19 23 24 28 30 31 32 34 36 36 35 35 35 34 33 31
7 8 8 9 8 8 8 8 8 8 9 8 7 7 7 8 10 11 12 13 14 15 14 15 16 18 20 21 20 20 22 24 24 24 26 28 28 31 32 33 33 35 36
3 4 5 6 7 8 8 9 9 9 9 11 12 13 14 16 17 18 18 18 18 20 20 18 17 18 18 19 20 20 21 24 24 25 26 28 28 28 31 29 30 29 31
2 2 2 2 3 4 5 8 9 12 13 13 15 17 19 20 20 21 22 24 26 26 28 27 25 23 23 21 20 20 20 20 21 21 23 25 26 27 28 27 28 28 29
4 4 4 4 3 1 1 2 6 8 11 14 17 21 22 24 29 29 28 28 29 31 31 31 32 30 28 29 27 25 22 20 20 20 21 22 23 23 25 26 28 28 29
4 5 6 6 7 7 7 6 5 4 7 10 12 15 18 23 27 30 32 33 32 33 33 33 33 32 32 32 31 26 23 24 25 25 27 27 26 26 29 31 28 29 31
5 5 6 8 10 12 13 14 15 16 16 13 13 15 18 21 24 26 28 29 29 28 30 32 32 32 27 24 25 27 30 32 32 31 30 29 28 28 29 27 28 28 30
4 5 7 9 10 13 14 15 17 19 20 23 23 21 23 24 25 26 26 27 28 28 27 27 27 27 24 28 28 32 34 33 36 37 36 35 34 31 31 30 26 30 33
3 5 7 9 11 13 15 17 20 22 24 26 28 30 31 33 34 33 31 31 31 31 30 28 26 25 29 33 36 37 36 38 42 41 39 38 38 38 35 34 34 34 34
1 5 7 8 10 12 15 17 21 23 25 26 28 30 31 33 34 34 35 34 34 34 36 34 30 34 35 32 36 43 46 44 42 41 43 42 41 42 42 40 37 36 36
2 4 7 7 9 11 14 18 21 23 25 28 30 32 33 33 34 35 35 35 35 35 36 36 36 35 30 29 32 38 43 48 47 47 46 47 46 44 44 45 43 38 38
6 5 6 7 7 10 13 17 21 23 25 27 31 33 33 33 32 33 34 36 36 37 34 34 35 38 37 37 41 46 47 48 49 48 47 48 50 49 47 47 46 45 39
9 7 8 8 9 11 13 16 19 22 25 28 31 34 34 32 31 31 32 34 35 36 36 35 35 37 37 33 33 36 41 44 44 43 43 47 51 52 51 49 47 45 41
12 9 8 10 13 15 15 16 19 22 25 28 32 34 33 30 29 30 31 33 34 34 35 35 35 34 34 34 37 40 42 41 41 40 40 41 44 46 46 45 44 41 41
15 12 10 11 13 14 16 18 21 24 26 27 31 33 31 30 29 30 31 31 32 32 33 32 31 31 31 33 36 37 37 37 37 37 37 39 41 42 42 43 40 38 39

GFSGL_850_spd_102.txt.gz
Wind_Speed
29 23 19 20 19 14 12 9 9 10 9 11 9 8 9 9 7 9 9 11 12 11 11 12 12 13 13 13 13 11 11 13 15 18 20 20 22 24 24 24 20 18 17
26 24 20 20 20 19 17 12 12 12 11 13 11 9 7 8 9 8 9 9 9 8 9 9 10 12 13 13 12 12 13 15 17 18 20 22 24 21 18 17 15 16 19
20 22 21 21 18 19 18 17 16 16 15 13 13 9 7 7 6 7 10 10 9 8 10 12 9 9 9 10 11 11 10 12 13 16 17 18 18 16 16 15 16 17 17
16 21 14 16 16 13 15 16 16 15 16 16 13 12 10 11 11 11 12 13 13 12 12 12 11 12 11 11 11 11 12 14 14 16 18 19 19 17 18 21 20 18 19
16 18 19 10 10 9 8 13 17 18 17 18 17 15 12 13 13 13 13 14 14 15 14 14 14 13 13 12 13 13 14 16 18 20 20 20 20 20 21 22 22 23 23
14 15 13 13 24 11 6 8 6 11 15 17 17 17 18 17 16 15 14 14 14 15 15 14 15 15 14 15 15 14 15 16 17 19 20 22 23 22 23 24 25 28 32
9 12 15 22 17 19 17 15 14 14 13 10 12 11 15 17 17 18 17 17 17 17 18 18 18 18 19 20 20 20 20 20 20 21 23 23 25 23 25 27 28 29 31
9 7 9 12 14 16 19 8 12 14 14 13 10 13 10 11 16 17 18 18 19 20 20 19 21 23 24 25 26 26 25 23 22 23 26 26 27 27 28 30 32 33 33
16 13 10 10 10 11 15 11 8 13 17 15 13 9 6 8 11 15 16 17 19 18 19 22 24 26 28 29 27 27 28 29 27 27 28 29 28 28 28 29 29 28 31
12 11 8 6 4 6 9 7 4 4 5 7 13 8 7 9 10 15 17 13 14 16 17 16 19 23 26 27 26 25 26 26 28 30 29 30 28 27 25 26 27 27 27
8 6 6 5 4 3 2 2 3 2 4 5 5 5 7 6 6 8 8 10 12 12 16 18 18 17 15 16 19 21 24 26 27 28 30 30 29 29 28 26 26 26 29
2 2 2 2 2 2 2 2 2 3 4 4 5 6 6 4 5 5 8 11 12 13 13 14 14 16 16 16 17 17 17 19 20 21 22 23 25 25 25 24 24 25 26
3 4 5 5 4 5 5 4 5 4 5 5 6 6 7 8 8 9 10 11 13 14 15 15 16 16 16 16 15 16 18 18 20 21 22 23 23 25 25 26 25 25 27
4 3 2 3 3 4 5 5 6 8 8 8 9 10 11 13 16 17 17 18 18 19 20 20 20 21 20 21 19 18 18 17 17 18 18 20 22 23 23 22 24 25 28
5 4 3 2 1 1 2 3 4 5 6 9 11 14 15 17 19 22 23 25 25 25 27 27 28 26 25 24 25 25 23 21 19 18 20 21 23 23 24 24 23 25 26
6 6 5 4 3 3 3 3 3 6 8 10 11 12 14 18 21 23 23 24 25 26 27 28 30 29 29 28 27 26 25 27 26 25 25 25 27 28 29 29 26 25 27
5 6 6 5 4 4 4 4 4 6 6 7 9 12 15 16 18 20 23 23 23 23 23 23 25 26 24 23 22 24 25 26 25 28 30 29 29 30 31 31 30 29 28
6 6 6 7 7 7 7 8 8 7 7 9 11 12 14 16 18 20 22 22 21 20 21 22 23 23 24 25 26 26 27 28 29 31 33 33 33 34 35 34 33 33 33
6 5 5 5 6 7 8 9 10 11 12 12 12 13 15 17 19 20 22 23 24 25 25 25 24 24 26 26 25 24 28 33 34 35 38 36 36 37 38 38 39 36 36
6 4 3 3 4 5 7 9 11 13 14 16 18 21 23 25 26 27 27 27 26 26 26 28 28 28 28 28 31 33 33 35 35 38 40 42 42 42 42 41 40 41 41
7 4 2 1 2 3 6 9 12 14 16 18 21 24 26 28 29 30 30 30 31 32 31 30 31 30 29 28 27 24 25 28 29 33 37 38 36 40 43 46 46 44 42
10 7 3 2 1 2 5 9 12 14 17 20 22 23 26 28 30 30 31 32 32 32 33 34 35 33 31 30 30 28 31 37 40 40 39 39 41 45 43 45 46 47 47
14 11 7 4 4 2 6 9 12 14 17 20 23 26 27 28 30 30 31 31 32 33 33 34 35 36 36 35 32 30 32 33 31 31 34 40 43 42 42 43 44 47 48
17 14 11 8 6 6 8 9 12 14 17 20 22 25 26 27 29 31 32 33 33 33 32 33 34 35 35 35 34 33 32 32 32 37 39 41 41 43 45 44 44 46 46
22 20 16 12 8 6 8 10 12 14 16 18 21 24 26 27 30 31 32 31 31 31 31 32 33 34 34 34 33 33 33 33 36 38 39 40 42 43 44 44 44 44 45
25 24 20 16 12 10 11 11 14 16 17 18 20 23 26 27 28 30 32 32 30 31 31 32 33 32 32 32 31 31 32 32 31 30 31 34 38 41 41 41 41 41 42

GFSGL_850_spd_105.txt.gz
Wind_Speed
20 23 19 17 15 15 12 9 6 10 9 7 8 9 10 12 7 6 8 8 10 9 10 11 12 12 12 12 13 13 13 12 12 14 19 20 21 20 19 15 15 15 15
27 22 25 20 17 18 16 13 11 10 9 8 9 8 9 12 10 6 6 8 8 7 8 8 7 9 10 12 13 14 14 15 14 16 17 17 19 16 16 15 14 15 18
28 32 25 22 19 18 18 17 13 12 12 11 9 10 8 8 7 6 7 7 8 8 7 8 9 9 10 9 9 11 11 13 14 16 16 17 19 17 17 18 18 18 16
28 28 22 22 20 16 15 16 15 14 13 13 12 11 10 9 8 8 8 9 10 11 10 11 10 11 11 11 12 11 11 13 14 15 15 16 16 17 19 18 18 16 21
15 18 16 15 14 16 14 13 13 13 13 13 13 13 12 13 12 10 11 11 11 11 12 12 12 12 13 12 13 12 14 15 15 15 17 17 16 15 16 16 18 20 20
11 15 17 21 19 13 9 8 5 6 7 10 12 13 14 15 15 14 13 12 11 11 10 10 12 13 13 13 13 15 15 17 18 18 18 18 19 18 18 18 20 21 24
17 19 15 16 18 14 14 10 6 8 7 5 4 7 11 13 14 13 13 13 14 13 13 14 13 14 16 17 18 19 20 20 21 22 24 24 24 21 23 27 23 26 26
16 15 15 17 16 18 13 15 7 3 5 7 3 4 7 8 10 10 11 12 13 15 15 16 17 19 20 20 22 22 22 24 25 25 27 28 28 29 29 28 30 31 28
16 14 12 12 11 11 11 10 13 9 3 8 7 7 6 6 7 5 6 8 12 13 13 13 15 17 21 22 23 23 23 23 24 26 26 28 28 28 27 28 27 22 24
16 15 13 11 8 8 7 6 4 1 5 4 4 9 9 9 7 6 8 6 7 8 9 11 13 16 19 21 22 22 23 23 26 26 25 24 25 26 25 25 26 26 24
12 10 10 9 8 6 5 5 4 4 6 5 9 10 8 5 4 6 8 6 4 5 7 9 11 11 11 13 15 16 19 20 19 19 18 17 17 16 14 14 17 19 20
10 9 9 8 7 7 7 8 9 9 8 8 7 5 3 3 2 3 4 5 6 5 7 7 9 10 11 12 13 14 15 17 18 18 15 13 13 14 15 16 18 19 20
8 8 8 8 8 8 8 8 9 10 10 8 7 6 4 4 5 6 8 9 10 11 13 13 13 15 16 17 16 17 17 17 15 15 17 17 17 20 20 19 18 17 18
8 9 8 8 7 7 7 8 8 9 8 8 8 8 8 10 12 13 13 15 16 17 18 20 20 20 21 22 21 19 18 17 18 19 21 23 24 23 22 22 23 22 22
7 8 8 7 7 6 5 5 4 3 4 5 6 7 8 10 12 14 15 16 16 16 17 17 18 18 18 18 18 17 12 12 13 18 20 22 22 22 22 24 25 25 22
8 9 9 8 8 7 6 5 4 2 2 2 4 5 7 9 12 14 15 16 17 17 17 17 18 17 17 17 16 15 13 14 15 19 20 20 20 21 22 24 22 21 24
9 9 9 9 9 8 7 6 5 6 5 5 5 5 6 8 10 12 12 13 14 14 15 16 15 15 16 16 16 14 18 18 22 18 20 21 21 22 26 23 22 22 23
9 9 9 9 9 9 9 9 8 7 6 6 6 8 9 9 10 11 13 14 14 14 14 15 16 18 19 19 20 21 24 26 26 28 28 26 27 27 26 30 30 27 27
8 9 9 9 9 9 8 7 6 5 5 6 9 10 12 12 14 15 16 17 17 17 18 18 18 19 19 20 21 22 24 24 23 24 24 28 29 28 30 34 36 37 38
10 10 9 9 9 8 7 6 5 6 6 8 10 12 13 14 14 16 17 18 19 20 21 22 23 23 23 22 22 21 23 25 26 26 28 29 28 31 36 34 35 38 41
10 10 9 8 8 7 5 5 5 6 7 9 11 13 15 16 17 18 19 19 20 21 21 22 23 24 24 25 26 27 26 25 24 24 24 26 29 31 33 35 37 37 38
12 11 9 9 8 6 5 3 3 4 7 9 12 14 16 17 18 19 20 21 22 23 23 25 26 26 25 26 27 26 29 30 30 28 28 31 34 38 39 39 42 39 38
17 15 13 12 11 10 7 4 0 2 5 8 11 13 15 17 17 19 21 22 24 26 27 27 28 29 30 29 29 29 29 29 29 28 30 31 33 37 40 42 41 41 41
20 20 18 16 14 14 11 8 5 3 6 9 10 12 15 17 18 20 21 22 24 25 27 29 29 30 31 31 31 31 31 31 30 32 33 36 38 39 40 41 42 44 46
25 24 24 23 20 17 14 11 8 7 8 10 12 14 16 18 19 19 21 23 24 26 28 29 28 29 30 30 30 30 31 30 31 31 33 35 37 38 40 42 43 44 43
31 30 29 26 25 22 18 13 11 10 11 12 14 16 17 17 19 20 21 23 25 27 27 28 28 28 29 29 29 29 29 29 30 30 31 32 34 39 39 41 42 43 43

GFSGL_850_spd_108.txt.gz
Wind_Speed
16 14 13 11 10 10 10 8 8 9 11 11 10 9 9 9 9 9 11 10 9 7 8 9 9 11 9 10 11 11 12 12 14 16 16 15 17 16 16 15 13 14 14
16 18 14 14 12 11 11 8 9 8 10 9 9 9 9 9 12 10 8 9 8 7 8 8 7 7 10 10 10 11 12 13 14 16 15 15 15 16 16 16 15 14 16
13 15 17 17 16 13 12 12 13 11 12 10 8 8 9 7 9 9 8 7 6 7 7 7 8 10 9 8 9 8 9 10 11 14 15 14 15 14 16 16 16 17 16
18 19 17 23 16 15 13 14 14 13 10 10 11 9 9 8 8 7 6 6 7 7 8 8 9 8 10 10 10 11 11 11 12 13 14 15 15 15 14 17 17 17 19
26 22 19 20 19 14 14 13 14 13 11 10 9 11 10 10 9 10 9 8 8 8 9 10 9 11 13 11 12 12 13 11 13 15 16 16 16 15 17 17 19 20 21
11 11 15 20 19 19 14 12 12 12 12 11 9 9 9 13 12 13 11 9 8 8 8 9 9 12 11 14 15 15 14 15 16 15 16 18 19 18 18 19 20 21 24
12 13 14 13 17 18 15 11 8 8 8 7 7 9 12 13 13 14 13 9 10 9 9 9 9 15 15 14 15 16 17 18 19 21 22 20 23 21 21 22 21 21 25
16 16 14 13 14 15 18 15 13 8 9 6 9 8 9 10 10 11 12 11 11 12 12 14 13 16 19 18 17 16 14 14 16 17 19 21 22 24 25 25 27 26 24
16 14 15 13 15 15 14 13 12 12 9 10 10 9 6 5 5 5 5 6 7 6 7 7 9 11 14 16 16 16 17 16 14 22 25 25 24 24 24 26 21 22 22
18 15 13 13 12 12 12 13 11 10 13 10 9 10 9 8 6 5 5 2 2 1 4 7 8 11 13 13 15 17 17 16 19 19 17 16 15 13 15 15 14 16 18
16 17 16 14 13 13 13 12 11 12 13 12 11 10 9 8 7 7 5 4 3 2 2 1 5 5 8 10 11 11 13 14 14 13 11 11 11 10 8 9 14 14 17
15 14 14 16 13 14 13 12 13 15 12 9 7 4 4 4 4 4 3 2 1 4 4 7 9 10 10 12 13 13 14 14 10 10 9 8 10 11 14 17 19 18 17
12 13 13 12 13 15 14 13 12 12 10 9 7 6 4 4 4 6 5 6 8 9 12 14 14 16 17 16 18 17 12 10 9 9 11 11 12 15 17 15 16 20 17
10 9 10 9 11 11 9 9 7 6 6 5 4 5 8 9 9 9 10 12 12 12 13 13 11 12 11 12 12 9 7 8 10 10 12 14 15 15 16 16 18 19 20
6 7 7 7 9 10 10 9 10 10 10 7 6 7 4 6 7 7 6 5 5 6 7 6 6 5 4 6 8 8 7 11 11 12 13 14 16 16 16 16 18 19 20
7 7 7 7 7 6 8 9 8 7 7 6 4 2 2 2 3 6 7 7 8 7 5 5 7 6 8 10 11 9 9 12 14 15 14 15 16 18 19 19 18 19 21
8 9 8 9 8 8 8 7 8 8 7 6 4 3 2 3 5 7 7 8 8 8 7 8 9 10 10 9 11 11 13 14 17 16 18 18 19 19 20 20 21 21 21
9 9 7 8 8 9 9 9 7 6 5 5 4 4 3 3 4 4 5 6 6 7 7 8 9 10 11 14 13 16 16 17 15 16 17 17 18 20 22 22 22 24 26
10 9 9 8 8 9 9 8 8 7 7 5 3 3 4 3 3 4 6 7 7 7 8 8 9 10 11 13 13 14 16 17 20 20 23 20 20 21 23 24 26 28 28
12 13 12 10 11 9 8 8 7 6 5 5 3 2 3 6 5 5 7 7 7 7 9 10 11 12 12 14 15 15 16 17 18 18 19 22 22 22 24 24 25 29 30
11 13 13 10 9 9 8 7 7 6 6 5 2 2 4 3 3 4 5 6 7 8 9 10 12 13 13 15 17 17 16 17 18 19 20 21 21 22 23 24 27 27 30
11 11 11 10 10 9 8 9 8 7 6 4 3 3 5 5 2 3 4 5 6 9 11 14 15 15 14 16 18 17 18 19 20 20 22 24 24 24 25 26 27 29 31
13 13 12 12 12 12 13 10 9 8 7 6 5 4 1 2 2 3 4 5 7 8 10 12 15 16 18 20 21 20 20 21 23 25 28 30 31 31 31 30 29 29 31
15 15 15 14 14 14 13 13 12 12 10 8 7 6 6 5 4 5 5 6 7 7 9 10 11 13 15 21 23 23 23 24 27 29 29 32 33 33 33 34 34 37 39
19 19 19 18 17 17 16 16 15 14 12 10 9 9 8 8 8 8 7 7 7 9 10 12 13 16 20 23 24 24 25 26 27 28 31 33 35 35 36 33 35 40 38
27 28 24 22 21 20 19 19 18 16 15 13 12 11 10 10 11 11 10 10 10 11 13 14 20 22 23 23 22 24 26 26 28 29 31 34 36 35 32 33 37 40 40

GFSGL_850_spd_111.txt.gz
Wind_Speed
16 14 13 11 10 10 9 6 5 5 10 9 7 9 9 8 9 12 12 5 6 8 9 8 9 10 10 10 10 10 10 12 15 15 14 15 20 16 19 16 17 18 16
19 17 15 14 12 12 11 9 8 5 6 9 9 12 10 9 11 10 9 10 11 10 9 8 9 7 8 9 8 10 11 12 11 15 12 12 14 13 16 19 16 14 17
14 17 17 18 15 13 12 11 11 9 8 8 10 9 10 8 11 14 10 8 9 6 8 8 8 8 10 9 12 8 9 9 10 13 14 12 12 15 13 15 15 16 16
19 18 19 19 18 17 15 14 14 13 11 10 10 9 11 9 11 10 9 9 9 8 8 9 8 9 9 10 8 9 11 11 11 13 13 14 13 14 9 15 18 17 19
27 21 19 20 23 19 20 18 15 15 13 11 11 11 10 10 12 14 12 9 9 9 10 10 11 10 13 14 12 11 15 11 13 14 15 15 15 17 18 16 20 19 21
16 16 25 24 21 23 22 19 16 14 14 12 11 12 12 16 16 13 12 9 9 10 10 9 7 14 14 10 12 14 15 16 17 15 15 18 20 18 18 19 19 20 21
11 12 14 19 22 22 20 16 16 14 10 10 13 17 17 16 15 16 14 13 10 12 10 12 11 13 12 14 15 15 14 15 17 18 20 19 21 18 21 24 23 23 24
12 11 11 12 12 14 19 18 18 13 11 10 13 15 13 14 13 13 11 13 12 12 13 12 13 15 14 15 14 10 10 12 14 16 19 22 23 25 26 26 25 25 23
12 11 12 12 11 10 17 19 12 12 11 10 14 9 8 8 7 7 6 2 5 8 7 8 8 9 11 11 13 13 13 9 10 18 23 19 17 16 16 18 14 18 18
14 15 16 15 14 13 11 15 15 14 14 14 11 9 9 8 7 6 10 7 3 1 5 4 8 8 8 9 8 8 9 10 13 13 13 13 14 12 10 9 12 14 18
18 18 16 12 10 8 9 13 16 14 13 13 12 10 8 7 7 8 10 9 8 7 2 1 9 6 7 7 10 12 12 13 12 12 12 9 11 10 12 14 16 19 17
13 13 15 14 10 12 11 12 11 11 11 11 9 5 6 6 9 7 8 7 7 7 9 7 7 7 10 12 13 13 12 11 10 10 10 11 12 11 14 16 16 18 18
13 12 11 10 11 12 10 10 10 10 5 5 6 5 4 5 4 4 4 5 8 9 9 12 12 13 12 8 13 11 9 7 6 7 10 10 13 15 17 15 16 18 17
9 9 8 8 10 10 8 7 7 6 5 5 5 4 3 6 8 8 9 11 10 9 8 7 6 4 8 7 8 6 6 8 9 9 11 12 13 14 14 15 16 17 18
8 9 8 8 9 14 15 13 15 15 13 9 8 9 8 5 4 4 4 4 3 3 2 4 3 3 4 5 5 4 5 7 9 9 11 13 12 13 14 16 16 19 19
7 7 8 7 7 6 9 9 7 10 12 11 9 5 5 3 1 1 2 2 3 3 5 4 3 5 6 8 10 8 7 11 12 12 11 12 15 16 17 18 16 17 19
7 8 6 8 7 6 6 6 6 7 7 6 5 4 3 2 2 3 5 5 7 11 5 6 7 8 9 9 8 9 10 11 13 13 15 15 13 13 15 17 18 19 20
5 9 6 5 6 7 7 6 6 5 4 4 4 3 2 2 3 4 5 7 8 7 5 4 5 6 6 8 9 10 11 13 14 15 16 17 17 18 19 19 19 20 23
5 3 2 4 5 7 7 7 7 7 7 5 2 1 2 1 0 1 1 4 4 4 4 4 4 5 6 7 8 9 11 12 14 14 15 16 17 19 21 23 23 25 26
11 12 9 6 7 7 7 6 6 7 6 6 6 4 2 5 4 3 3 3 3 2 2 3 4 5 6 8 10 12 12 12 13 14 15 16 17 18 20 22 23 26 26
9 14 15 11 10 8 8 7 7 7 8 7 7 7 6 8 4 2 2 0 0 1 2 3 5 7 7 9 11 11 11 12 13 15 16 17 19 21 21 22 23 24 25
10 11 15 11 11 10 10 11 10 10 10 9 8 7 2 6 4 2 1 1 2 3 4 5 6 7 8 10 13 13 13 13 15 17 20 23 24 24 22 24 25 26 27
13 13 13 13 13 13 14 11 12 12 11 10 9 8 4 3 5 4 4 4 5 4 5 5 7 8 9 10 15 15 15 15 19 22 24 25 25 25 25 26 25 26 27
15 15 16 16 16 15 15 15 15 15 14 12 11 10 9 8 7 7 7 6 6 6 6 7 8 9 9 11 10 12 12 17 24 26 26 28 30 31 31 32 33 31 28
20 20 20 19 18 19 18 18 16 17 16 16 14 14 12 11 10 10 9 9 9 8 8 9 10 10 11 12 13 12 19 23 25 26 29 31 32 32 31 32 33 31 32
22 24 26 23 23 22 21 20 20 20 19 18 17 15 14 13 12 11 11 11 11 10 11 11 11 13 14 13 14 19 21 22 23 25 28 32 33 32 32 32 31 31 35

GFSGL_850_spd_114.txt.gz
Wind_Speed
23 17 16 13 9 11 9 9 7 9 16 11 16 13 9 10 10 9 9 7 8 6 7 7 8 11 11 12 10 11 11 12 19 18 18 15 11 15 17 21 20 17 19
24 20 18 12 13 11 11 12 10 11 11 15 12 11 11 10 9 9 11 9 7 9 8 6 5 6 8 6 5 7 6 12 12 15 14 16 16 15 17 21 17 17 21
27 23 21 18 16 14 15 13 11 10 8 9 11 11 10 9 11 13 13 14 13 10 5 6 5 6 9 12 12 12 9 11 12 11 18 15 21 13 15 11 12 15 18
20 20 16 13 18 20 17 15 15 17 13 11 10 9 8 8 10 14 13 13 10 8 5 7 7 6 8 11 10 9 9 11 11 10 16 15 16 18 19 17 17 16 20
14 15 20 23 22 19 20 22 19 17 16 14 12 10 9 13 17 13 11 10 10 7 4 5 6 11 9 11 14 14 13 15 14 14 15 14 14 20 23 21 22 24 24
24 20 20 20 23 27 26 19 21 22 16 13 10 10 15 16 15 10 14 12 10 13 11 10 6 6 9 10 10 10 10 13 14 16 18 18 19 20 22 20 23 27 31
17 17 18 17 24 35 32 29 21 19 16 17 19 19 18 13 13 13 13 13 12 9 8 8 10 10 10 11 12 13 12 10 11 15 16 17 18 19 24 26 24 20 22
12 12 12 11 14 17 21 23 21 22 17 17 17 15 13 14 15 14 12 13 13 13 11 9 12 11 12 13 12 12 12 9 10 11 15 21 19 13 11 13 14 17 18
14 10 9 8 7 8 8 9 16 11 15 7 2 1 3 4 5 5 6 6 9 9 6 6 6 7 7 7 9 10 9 8 9 11 9 10 10 12 12 15 14 14 17
15 11 9 8 6 5 4 10 14 14 11 12 12 12 10 7 4 6 10 8 3 2 4 5 3 4 4 4 5 6 6 6 7 6 9 8 13 13 11 10 15 18 18
15 15 14 11 11 10 10 11 11 10 11 12 12 11 10 9 8 8 9 8 8 9 7 4 3 5 6 8 10 10 10 11 6 7 10 7 6 3 13 15 14 14 18
16 17 16 16 13 10 12 12 13 12 8 7 7 6 6 9 8 8 8 9 11 13 11 9 8 8 10 12 10 10 6 6 4 4 5 6 8 10 14 13 13 13 14
16 16 16 16 15 10 10 6 8 10 10 9 8 5 4 4 6 4 4 5 6 8 10 10 10 9 5 3 6 5 1 5 5 2 7 8 10 10 12 14 15 15 15
12 12 13 14 14 16 16 12 13 13 11 9 11 6 5 4 4 7 8 8 8 7 7 7 3 3 3 7 5 5 5 7 7 6 7 7 8 11 12 16 18 20 18
10 9 8 8 11 14 14 14 14 14 15 13 14 12 8 6 5 4 4 4 3 2 2 5 1 4 4 3 2 4 7 7 8 8 10 12 12 11 12 17 16 17 18
8 8 8 4 6 12 16 12 11 15 15 13 12 9 10 10 5 3 2 3 5 7 9 9 2 0 2 2 4 6 6 10 9 12 12 12 14 14 17 19 19 20 19
9 13 13 7 7 4 6 10 9 11 14 13 11 8 6 6 5 6 6 8 10 11 8 4 4 5 6 5 5 7 9 11 11 12 12 12 13 18 20 21 22 22 24
14 15 17 9 6 4 3 2 4 6 6 6 6 6 6 6 7 8 10 9 7 7 5 7 4 1 1 2 3 5 5 7 11 12 13 14 17 18 19 20 21 23 26
11 14 12 13 14 13 11 6 3 5 1 2 4 3 4 4 5 7 9 9 6 4 5 1 1 2 2 3 5 7 8 9 10 12 12 14 16 19 21 22 23 24 25
14 14 14 10 13 11 10 13 10 8 7 3 3 1 2 5 5 2 1 6 4 2 2 2 4 3 4 5 6 7 7 8 11 12 15 17 19 22 23 24 25 26 25
11 15 16 11 10 8 6 11 12 10 9 8 11 12 7 7 6 5 2 0 4 3 5 6 4 3 3 5 6 7 7 8 11 14 17 19 22 23 23 24 24 25 26
10 7 11 11 9 13 12 12 10 10 10 10 14 10 7 12 6 5 6 3 3 4 6 4 3 4 7 8 9 10 10 11 12 17 20 21 22 23 24 25 26 26 27
10 10 9 12 10 10 10 10 11 10 11 12 13 12 9 8 8 9 9 6 7 4 5 6 4 4 7 8 13 14 14 13 16 22 23 24 25 26 26 27 28 29 29
14 13 12 10 12 13 14 15 16 15 15 14 14 11 8 6 11 10 11 8 9 7 7 7 7 9 10 9 10 8 11 14 20 23 24 25 26 27 27 27 28 29 31
14 14 15 16 16 17 18 17 16 17 17 19 16 16 15 14 14 13 13 9 10 10 10 9 9 9 10 11 16 14 16 18 22 22 24 26 27 27 26 28 29 30 30
18 20 24 23 22 22 21 19 20 19 19 19 20 21 19 16 16 15 15 15 14 14 13 13 12 13 13 16 16 16 18 24 23 25 26 25 27 27 25 28 30 30 32

GFSGL_850_spd_117.txt.gz
Wind_Speed
20 17 15 15 17 17 12 12 16 14 13 12 13 9 10 8 10 10 10 10 8 8 5 9 4 9 11 3 11 9 7 7 8 11 5 9 9 14 13 13 14 14 16
21 17 14 12 12 14 13 11 13 11 9 15 13 12 12 9 11 11 9 8 8 6 4 7 4 3 7 5 5 5 7 6 6 8 9 6 15 13 13 5 9 11 12
20 20 18 16 15 13 11 10 13 13 8 11 13 12 13 11 11 11 10 10 11 8 7 7 3 4 5 8 10 8 11 8 9 9 11 10 11 9 16 14 15 15 16
25 25 23 24 20 20 18 15 13 12 11 10 12 12 9 10 13 12 10 10 8 5 5 5 5 6 8 9 7 9 9 8 8 10 11 12 14 17 19 20 18 17 19
28 25 20 25 23 26 21 19 20 18 14 14 14 13 11 13 14 10 7 7 11 10 6 4 9 9 8 9 9 10 9 9 10 10 11 13 14 17 19 20 22 23 21
26 24 23 21 19 21 23 26 21 20 17 16 16 17 15 16 9 8 7 13 10 15 10 10 12 9 9 8 6 6 8 10 9 10 11 13 13 14 18 18 18 21 23
25 26 25 21 21 22 26 26 28 23 24 22 21 19 16 11 5 4 5 6 6 4 5 10 14 12 10 8 9 10 9 10 10 10 12 13 15 10 11 12 13 15 16
22 19 18 17 18 19 15 21 27 24 25 24 22 15 7 9 9 7 6 10 9 10 12 14 13 11 10 10 9 7 7 8 9 9 9 8 6 7 10 11 13 12 9
14 13 13 10 8 6 7 6 21 22 21 17 16 16 10 8 7 7 10 8 9 10 12 10 8 7 7 6 5 3 2 3 5 6 5 10 7 6 7 8 11 16 18
13 12 11 10 8 6 4 5 5 4 11 16 14 10 3 2 2 9 11 10 8 9 8 4 3 3 2 3 2 1 1 1 6 5 10 8 5 2 7 11 12 15 17
16 15 13 11 8 7 4 3 3 5 6 7 10 8 8 6 6 6 8 10 7 6 5 3 1 1 3 3 4 4 2 1 4 5 4 4 3 7 10 12 12 12 15
16 14 12 12 11 9 7 5 4 5 8 8 9 9 9 9 9 9 10 9 8 5 6 4 4 5 7 9 7 6 5 3 5 6 8 9 10 13 14 14 13 12 10
11 12 13 13 14 12 9 7 6 7 8 7 7 7 6 5 6 6 7 8 9 9 8 6 7 9 9 9 7 4 5 6 7 7 6 7 8 10 14 16 15 14 11
16 16 15 15 14 13 13 12 13 17 15 10 7 6 3 5 7 7 6 5 6 8 8 8 7 8 6 5 6 7 7 6 6 5 6 7 9 11 13 15 17 17 18
14 14 13 13 13 16 15 15 13 14 12 14 12 8 5 2 1 2 4 5 7 8 9 9 8 7 6 5 5 4 4 5 5 5 6 7 9 12 14 16 17 19 20
10 9 9 7 9 7 8 7 8 9 12 11 10 8 6 8 7 3 4 5 7 7 6 4 2 2 3 2 2 3 4 5 7 8 8 10 12 14 16 18 19 21 23
13 10 8 6 4 4 12 12 11 12 13 12 11 10 8 6 4 4 7 10 11 8 5 4 3 1 0 1 3 4 6 8 8 8 10 12 13 15 16 19 21 23 24
12 10 7 9 5 0 4 6 9 11 11 11 10 8 7 7 7 9 12 11 11 8 3 2 3 4 4 4 4 4 5 7 8 10 11 13 15 16 18 20 21 24 25
16 14 14 10 8 4 4 7 7 4 3 6 8 8 8 9 10 12 12 9 6 6 7 7 7 6 5 5 4 3 4 7 9 11 12 14 16 18 19 21 22 22 24
17 17 10 14 14 12 7 5 4 6 2 1 5 8 8 10 11 9 9 10 9 7 9 8 6 5 5 4 3 3 5 7 9 11 13 15 17 18 20 21 23 25 25
13 16 12 13 15 14 13 13 10 8 6 7 5 3 3 5 7 6 3 8 9 9 9 9 7 6 3 2 3 5 7 9 9 11 14 16 17 19 20 22 23 23 25
11 13 18 16 11 16 14 16 16 14 13 11 10 10 6 7 11 9 10 9 10 10 9 7 7 5 3 2 3 6 7 9 8 14 16 17 20 21 22 23 23 24 25
10 11 10 12 15 10 14 17 17 16 15 10 13 10 9 6 11 12 11 10 11 11 9 6 5 5 7 8 9 11 12 13 12 16 18 19 22 22 23 23 24 25 26
16 13 12 7 14 15 12 13 15 14 13 13 14 13 12 10 7 14 13 14 11 12 10 9 8 9 9 9 11 17 19 18 18 20 21 23 23 22 24 23 20 23 27
17 18 16 15 14 13 16 17 16 15 20 19 16 11 14 15 14 15 17 16 15 14 12 10 10 9 11 14 15 19 11 13 20 19 22 24 23 22 22 21 22 25 27
18 17 18 19 20 17 17 17 19 19 17 19 17 19 18 11 18 20 19 17 16 15 14 14 13 15 16 19 18 18 21 20 20 24 24 26 25 22 20 20 20 23 26

GFSGL_850_spd_120.txt.gz
Wind_Speed
23 25 22 21 22 19 16 14 14 15 11 10 10 12 12 15 14 13 11 12 12 10 10 12 11 8 5 5 4 5 8 9 8 10 8 12 11 10 5 6 5 9 13
22 24 22 20 20 20 17 14 12 14 12 13 12 15 13 13 13 15 12 10 11 8 8 9 10 13 13 12 7 9 9 8 9 11 12 13 11 7 11 13 14 15 16
24 24 20 18 17 18 18 16 13 11 11 10 14 18 16 14 14 14 12 11 12 9 8 8 8 9 7 7 8 8 9 10 11 14 15 13 14 17 17 17 16 14 15
23 24 21 18 15 15 14 14 12 8 11 11 12 17 17 16 17 17 15 15 14 12 13 13 12 10 9 8 9 9 8 8 10 12 13 12 14 15 15 17 14 16 15
25 27 26 21 20 19 20 21 20 17 14 11 11 13 15 17 17 15 14 13 15 15 15 14 13 10 9 10 10 11 10 8 8 9 11 10 10 12 15 16 14 13 11
31 30 25 25 22 23 21 26 22 24 22 19 16 16 18 19 15 13 14 13 14 16 16 16 8 6 6 8 7 8 8 9 9 10 10 11 12 15 12 12 15 15 15
34 23 24 24 21 22 23 27 27 27 25 24 20 23 20 19 12 14 13 12 15 15 16 21 18 9 7 7 10 11 11 10 9 7 7 9 6 7 8 9 10 10 13
29 26 31 21 20 25 26 23 25 27 29 30 29 25 18 16 14 11 13 15 16 14 12 10 9 9 8 8 9 9 8 8 8 5 2 2 3 5 8 8 10 12 11
31 27 26 24 24 22 18 8 9 20 25 26 24 25 25 25 19 11 13 15 15 14 13 11 9 9 8 8 7 6 5 3 2 4 6 5 3 5 6 9 13 17 16
26 25 24 17 13 11 10 7 3 8 22 23 19 21 19 16 18 20 16 18 16 15 13 10 8 8 8 8 7 7 8 9 8 12 11 6 4 5 9 12 15 16 16
17 15 14 15 14 11 8 6 4 7 7 10 14 13 14 13 11 11 14 11 9 12 12 10 7 5 4 5 5 5 6 8 10 10 9 7 6 7 9 11 14 15 14
17 16 16 13 10 8 7 6 7 7 11 12 11 10 10 10 10 11 11 11 12 11 10 9 7 5 4 5 6 4 4 5 7 9 10 11 11 10 9 10 10 12 15
12 12 13 11 12 11 11 9 8 8 8 8 7 7 8 8 10 12 13 12 11 10 10 9 7 8 8 6 4 5 6 7 7 7 7 6 7 9 10 10 8 7 9
10 9 11 12 13 15 13 10 10 13 13 13 11 10 7 8 8 9 11 12 13 13 11 10 10 10 8 7 6 6 6 4 3 2 2 4 6 7 9 10 11 11 12
14 15 15 13 12 13 12 13 14 16 16 13 11 7 3 4 5 8 10 11 12 13 13 12 10 8 7 6 5 3 1 0 0 2 3 4 6 9 10 12 14 16 18
9 10 10 10 10 9 9 11 12 13 13 14 12 6 3 4 6 6 7 9 12 13 12 10 9 9 7 4 2 1 1 2 4 6 7 9 10 11 13 14 16 17 20
7 7 7 7 7 8 8 10 9 6 7 6 4 3 8 9 6 6 9 11 13 12 11 9 7 5 5 3 1 2 3 5 6 7 8 9 11 12 14 16 17 18 19
9 8 6 6 4 2 4 12 13 12 13 13 12 10 9 7 5 8 11 13 12 9 7 6 4 2 1 1 2 3 4 5 7 8 9 10 12 14 16 17 19 21 22
9 9 9 5 6 2 1 2 7 9 10 11 13 13 11 13 11 13 11 10 9 7 6 4 3 3 2 2 3 3 4 6 7 9 10 12 13 14 15 17 19 21 22
13 12 11 6 6 6 5 4 3 4 4 6 8 10 12 14 15 15 14 13 8 6 5 4 4 4 3 2 3 3 5 5 6 7 10 12 13 16 17 19 20 22 23
11 14 13 9 7 7 10 9 6 9 7 3 3 5 6 8 14 14 11 10 8 7 6 5 5 4 3 2 2 3 4 5 5 7 11 12 13 16 17 19 21 22 21
12 13 15 14 13 12 12 12 7 12 13 11 7 6 5 6 9 11 9 6 6 7 7 7 6 6 4 2 2 5 7 7 7 9 12 13 15 17 17 19 19 19 19
13 13 12 14 16 15 14 14 13 12 11 9 11 11 9 7 8 11 11 11 8 7 7 5 4 3 2 2 4 8 9 7 8 11 12 15 16 17 17 18 18 19 20
14 13 10 7 6 13 15 16 14 16 17 13 14 13 12 12 11 11 15 14 11 9 8 8 5 4 5 4 6 8 13 11 13 16 15 16 18 19 18 17 17 18 18
14 15 14 12 11 8 11 14 14 13 15 16 17 14 14 15 16 13 12 14 13 12 10 8 7 6 6 7 6 7 10 14 18 17 20 19 19 21 19 18 17 17 15
16 19 20 18 16 15 15 16 16 16 16 15 17 22 19 17 17 18 17 16 16 15 14 13 11 10 8 8 8 8 9 12 16 19 21 22 21 21 19 18 16 16 16